GFSSE_700_spd_000.txt.gz
Wind_Speed
14 14 14 15 15 11 5 5 10 8 9 8 11 8 5 5 3 5 7 7 8 8 10 12 14 17 16 18 19 17 13 7 17 23 20 21 20 20 17 14 9 8 7
10 12 15 15 14 11 5 4 2 0 4 8 7 6 5 7 8 8 10 10 10 13 14 16 15 15 17 18 17 15 14 15 17 22 22 22 23 23 22 18 15 13 12
14 14 14 12 11 5 2 2 1 4 5 6 6 5 6 8 9 9 11 12 14 14 15 17 19 20 19 19 17 14 16 18 19 18 26 24 25 23 21 23 20 18 17
13 11 12 10 9 5 4 4 6 7 8 9 9 9 8 9 10 11 13 15 17 19 19 19 21 19 21 22 21 18 19 21 18 17 25 30 25 23 20 21 22 21 20
11 9 7 7 8 8 6 7 7 9 10 10 10 9 7 8 10 12 14 17 19 19 20 21 19 19 19 20 21 20 22 27 22 17 19 27 32 26 16 18 17 21 21
7 7 9 10 10 11 12 12 12 13 14 15 14 13 12 11 11 12 16 19 19 19 20 20 20 20 20 19 21 17 22 24 28 26 21 24 21 25 17 14 15 16 19
5 5 7 9 11 12 14 14 15 16 17 16 16 15 15 15 14 13 14 15 16 15 15 16 15 16 17 16 16 18 16 24 32 31 26 25 33 25 16 14 15 16 17
4 7 8 8 8 9 13 15 15 15 14 11 9 7 6 7 6 6 7 9 10 9 9 8 9 12 12 14 17 18 21 24 23 27 27 29 30 20 21 18 16 16 17
4 7 6 5 9 10 11 12 14 12 10 9 7 3 6 7 5 3 3 4 7 10 8 6 7 5 5 8 13 18 22 25 26 27 27 27 29 27 24 25 21 19 19
6 5 2 4 7 10 11 14 12 8 7 9 7 6 9 10 11 9 8 8 8 8 7 6 7 9 10 11 12 14 20 21 24 27 27 25 30 33 30 25 27 22 23
3 1 1 4 8 12 14 13 8 7 7 7 6 7 8 10 11 11 11 12 13 13 12 12 12 12 12 14 14 15 15 17 20 21 24 25 27 27 34 30 28 25 23
2 0 4 13 18 18 17 15 11 9 9 11 10 10 10 11 11 12 13 14 14 15 15 16 15 16 16 15 15 15 16 17 18 20 20 22 23 22 26 34 35 30 26
4 6 10 15 15 16 16 15 15 14 15 14 15 15 15 15 16 17 18 19 19 19 20 20 19 19 18 19 19 18 17 18 17 20 26 28 27 24 24 29 35 38 35
8 10 12 12 16 19 19 19 19 18 19 20 20 20 19 19 20 21 22 23 24 25 25 24 24 24 23 23 22 22 22 22 21 21 22 24 25 31 31 28 28 33 37
8 9 10 12 16 19 21 23 23 21 21 22 23 23 23 23 24 26 27 27 27 27 27 27 26 26 26 26 26 26 26 26 27 26 25 25 26 27 28 30 29 30 35
6 6 9 13 18 21 23 23 22 21 22 23 24 25 26 27 27 29 29 29 28 28 28 27 27 26 27 28 29 29 29 29 30 31 32 31 30 29 30 31 31 31 34
4 6 9 14 18 22 23 24 23 22 24 25 25 26 26 28 28 28 29 29 28 28 28 26 26 27 27 28 29 29 30 31 32 34 35 36 35 34 32 32 31 36 34
5 7 10 15 16 18 20 18 20 22 23 27 26 25 26 29 30 29 29 29 29 28 27 26 27 28 29 29 30 30 30 32 33 35 37 38 39 39 37 36 34 33 40
9 10 14 16 15 18 22 20 25 27 28 35 29 28 26 25 27 29 29 29 30 31 31 32 31 30 30 30 30 31 32 32 34 34 35 37 39 41 42 41 41 40 40
11 13 17 18 17 21 25 24 29 28 32 33 32 34 33 28 27 28 29 29 29 28 28 29 30 30 30 30 31 31 30 30 31 33 33 33 34 37 41 44 45 46 46
6 14 19 19 22 26 30 27 28 29 31 30 28 32 31 28 27 28 29 31 33 34 31 30 29 30 30 30 32 31 31 33 32 31 34 35 35 38 38 39 41 45 48
10 9 15 16 21 27 29 31 29 30 30 30 30 33 33 32 33 34 35 36 37 39 38 37 39 39 39 37 35 32 35 35 34 33 33 33 33 39 41 39 40 41 43
15 11 14 18 24 26 28 28 30 34 37 36 37 39 43 37 35 39 42 43 43 43 43 41 43 45 43 43 44 39 41 40 35 37 38 35 34 34 40 43 43 42 41
18 20 22 24 26 29 32 32 34 37 40 41 44 46 42 37 38 41 46 47 45 45 46 43 44 49 45 48 46 47 45 47 47 44 38 38 33 34 34 36 42 46 45
20 22 25 25 27 32 32 34 36 40 45 51 46 43 44 44 45 46 48 49 50 49 49 46 48 47 49 49 48 49 50 50 52 53 51 43 39 38 39 40 42 44 45
22 25 27 27 31 33 34 36 39 46 47 46 47 47 47 48 49 49 50 52 54 55 53 49 52 52 54 54 56 55 56 56 57 58 58 56 51 43 43 44 45 46 44

GFSSE_700_spd_003.txt.gz
Wind_Speed
10 11 13 12 13 12 9 7 5 4 2 5 6 6 7 8 7 5 6 6 6 8 10 11 11 16 16 16 14 14 9 10 14 17 13 15 18 21 18 15 11 6 6
13 14 15 19 14 11 7 3 1 1 4 5 6 7 9 10 9 9 11 10 11 11 13 16 17 15 18 19 18 19 15 14 13 14 16 16 17 20 22 21 19 15 10
14 15 14 13 13 8 4 3 2 2 4 4 4 6 9 10 9 10 13 13 13 14 15 18 19 20 20 22 22 19 17 19 19 20 16 17 19 20 22 20 22 20 17
14 13 12 11 11 11 8 3 2 4 5 5 5 9 9 11 11 13 17 16 16 16 18 19 20 19 21 21 21 21 22 19 22 22 19 19 20 21 23 21 18 23 22
13 11 11 11 10 8 6 6 6 6 7 7 8 8 10 11 12 14 17 18 17 18 19 20 20 19 20 20 19 20 21 22 25 24 19 15 17 20 23 23 19 20 22
9 8 8 6 4 5 6 8 7 7 8 8 9 10 10 10 11 14 17 16 16 17 19 20 20 18 19 19 19 19 21 20 19 22 24 20 19 19 18 18 21 16 19
7 4 4 4 5 6 7 6 7 9 10 10 11 10 8 8 10 11 12 12 12 12 14 14 15 17 18 18 16 15 17 17 15 23 27 27 25 24 21 17 16 15 15
7 4 2 3 3 5 7 8 10 11 9 9 8 6 4 6 6 5 4 5 6 7 7 7 7 8 10 13 13 14 16 17 19 21 25 29 26 26 26 23 19 16 16
4 1 3 2 3 6 7 8 8 4 5 6 3 0 2 3 4 4 2 4 5 6 6 6 7 7 7 7 9 11 15 19 21 24 27 29 30 27 25 24 24 19 17
1 0 3 0 3 6 7 8 6 4 4 5 3 2 4 5 6 6 6 8 10 10 10 9 10 10 12 14 15 14 15 15 19 21 24 25 28 28 29 28 25 26 23
5 5 3 2 9 10 10 8 7 6 7 6 7 8 9 10 10 11 11 12 12 14 14 14 14 15 16 16 16 16 15 14 14 16 19 21 24 25 30 28 34 25 27
9 6 3 4 10 12 13 13 11 8 8 8 9 11 12 13 14 15 16 17 18 18 18 17 17 18 19 20 20 19 18 17 16 16 18 20 20 20 23 26 23 31 29
8 6 4 8 13 15 16 15 14 13 12 12 13 15 16 17 17 18 19 21 23 23 24 24 23 23 23 23 24 23 22 21 20 20 21 21 23 24 25 23 24 27 33
9 6 6 9 13 15 17 18 17 16 15 15 17 17 18 19 20 22 24 25 27 28 29 29 28 27 27 27 27 27 26 25 25 25 26 26 25 24 20 25 27 28 32
7 6 5 8 11 14 15 17 19 18 17 20 20 20 21 22 23 24 26 27 28 30 31 31 31 30 29 28 28 29 30 29 29 29 30 30 30 28 25 23 25 31 32
7 4 2 4 8 12 12 15 19 21 20 20 25 23 21 21 22 24 25 27 27 29 29 29 29 29 29 29 30 30 31 33 33 34 35 35 35 34 31 28 26 27 31
2 2 3 6 10 12 14 20 22 25 23 21 25 23 23 25 26 26 25 25 26 27 28 28 28 27 27 28 29 30 32 33 35 37 38 39 39 39 37 34 31 29 29
6 7 7 11 14 13 15 22 25 24 23 21 22 21 21 25 25 25 25 25 26 26 27 28 28 28 29 31 31 31 32 34 36 38 40 41 42 42 40 39 37 35 33
8 9 9 14 15 17 20 23 27 27 24 23 22 23 24 27 27 25 24 24 25 26 27 29 30 31 31 31 31 31 32 33 35 37 38 40 41 42 42 44 43 40 39
11 12 15 18 19 22 25 26 27 26 24 25 25 25 30 31 31 30 29 29 30 32 32 32 33 33 33 33 33 32 32 32 34 34 35 35 36 37 39 40 41 43 43
10 9 15 17 18 20 23 28 27 27 24 25 26 28 32 35 36 36 33 32 32 36 36 38 39 39 39 36 37 36 35 35 36 36 36 37 35 35 36 38 40 40 39
6 6 12 16 18 21 24 26 29 30 29 30 31 33 37 39 39 39 39 39 40 42 42 42 42 45 44 41 41 43 46 43 41 36 37 38 36 33 34 36 38 38 38
11 8 11 15 17 21 25 28 29 30 32 34 35 39 39 37 37 39 39 42 44 47 49 48 47 46 48 47 43 44 48 51 45 41 43 41 40 36 32 34 38 38 38
12 12 13 15 20 24 28 30 33 34 36 38 43 47 40 41 43 43 43 43 44 46 49 50 51 51 49 51 53 49 54 52 53 48 46 48 43 41 37 34 37 37 35
15 15 17 20 24 28 31 34 37 38 39 44 46 42 46 46 44 42 45 48 51 50 50 53 56 56 54 52 56 56 58 57 56 52 52 50 47 45 42 40 43 43 38
17 19 22 28 29 32 36 38 39 44 50 49 46 46 43 44 46 49 51 51 51 52 52 50 53 55 55 54 53 56 59 58 57 61 53 56 55 54 50 47 47 49 45

GFSSE_700_spd_006.txt.gz
Wind_Speed
8 10 12 14 18 15 12 7 4 4 1 2 4 5 6 8 9 11 11 10 11 12 12 13 13 14 14 13 13 13 14 13 14 13 13 15 14 15 15 16 17 14 7
11 11 11 14 14 9 7 4 1 0 3 3 3 4 6 7 11 13 14 15 13 16 17 17 17 17 19 19 21 18 17 17 18 17 14 15 13 15 16 15 17 19 12
11 12 13 11 9 4 3 4 2 1 2 3 4 7 10 10 13 15 16 16 16 17 19 20 20 21 22 23 24 24 22 18 19 19 16 13 15 15 18 15 16 18 19
16 16 15 12 11 11 9 6 3 3 6 6 9 12 14 13 14 17 18 19 19 18 18 19 20 21 21 19 19 20 20 21 19 18 20 20 17 18 19 23 19 17 19
15 14 12 11 10 8 4 2 2 5 7 9 11 13 14 14 15 17 18 18 17 17 18 20 21 21 20 19 18 16 17 20 20 21 25 23 20 17 16 20 20 19 17
12 10 9 7 5 2 1 2 5 7 9 11 12 12 12 12 13 15 16 16 16 16 18 19 19 18 18 19 18 17 17 18 19 23 23 24 23 16 17 19 16 20 18
11 8 6 3 1 3 4 5 7 10 10 11 12 11 10 10 11 11 12 10 11 12 12 13 13 14 15 15 14 14 16 16 17 19 21 20 24 23 25 28 16 19 19
9 6 1 3 5 5 7 8 8 7 6 6 7 7 6 7 8 9 8 7 7 8 9 11 11 11 11 12 12 13 14 15 17 18 21 20 21 27 27 25 21 23 20
6 3 3 4 5 5 5 6 5 3 3 5 5 3 5 7 8 9 9 8 9 9 10 10 11 13 13 11 9 10 12 14 17 19 21 24 23 25 26 30 26 27 23
5 5 5 3 2 5 7 6 4 3 5 5 5 6 9 11 12 12 13 13 14 14 15 15 16 17 17 17 17 16 16 17 17 18 20 22 23 24 27 30 30 28 28
5 6 4 2 5 8 8 8 6 5 6 6 7 9 11 14 16 17 18 19 19 19 18 18 19 21 22 22 21 20 18 18 17 17 19 19 23 23 23 26 26 25 24
9 8 5 3 7 8 9 9 8 7 7 9 10 12 14 17 19 20 22 23 24 25 25 25 24 24 25 25 26 25 23 21 21 21 22 18 19 21 22 23 23 22 22
12 9 6 5 7 8 9 10 11 10 9 9 10 12 13 15 17 19 21 24 26 27 29 29 29 29 29 29 30 30 29 27 26 25 27 23 21 20 22 25 26 25 22
11 8 6 5 4 7 9 12 15 13 11 10 10 12 14 16 17 19 21 24 25 27 28 28 29 30 31 31 31 32 32 32 31 30 32 28 27 25 23 22 22 28 26
11 9 6 3 2 6 6 9 15 14 14 12 13 15 13 14 17 20 24 26 26 27 27 26 26 26 27 29 30 30 32 34 34 34 35 34 33 32 31 29 25 23 28
11 8 4 4 3 7 8 10 14 16 17 16 16 18 16 15 18 21 23 25 27 28 28 28 26 26 26 26 27 28 31 33 35 36 36 38 37 37 35 34 32 29 27
10 8 7 8 6 9 12 13 15 20 22 23 21 20 18 17 21 21 21 23 25 26 27 28 28 29 30 31 30 31 32 33 35 36 37 38 41 39 40 39 36 35 33
9 10 12 12 12 13 15 17 21 22 23 24 22 22 21 22 25 24 25 25 26 27 27 27 27 29 30 30 31 32 34 35 36 38 39 40 41 41 41 39 39 37 35
11 13 14 16 15 15 19 22 23 24 26 26 23 22 20 24 27 29 27 25 29 30 31 31 31 33 34 36 36 36 36 36 37 36 37 39 40 40 40 39 38 38 37
12 15 16 17 17 20 22 23 21 25 25 24 24 25 27 28 31 32 31 30 31 31 31 33 36 36 40 39 42 43 41 41 40 39 38 39 41 40 38 37 39 38 36
15 14 14 19 19 22 23 21 23 26 27 25 26 27 30 32 36 36 35 35 35 38 37 37 39 42 41 42 43 45 47 47 46 44 44 42 41 43 44 41 39 36 38
13 13 14 18 21 22 23 25 27 29 31 29 31 32 34 38 41 42 38 39 39 38 38 37 39 42 45 45 46 46 50 45 42 51 48 48 45 44 44 44 41 38 35
13 14 16 20 22 23 25 28 31 35 35 36 36 37 36 42 40 40 39 37 37 38 42 44 45 47 51 51 50 52 50 46 37 36 46 46 43 45 44 47 42 39 37
14 17 17 22 25 27 28 32 35 39 40 42 43 43 47 42 39 34 37 39 41 44 46 47 48 50 51 55 54 51 56 54 56 48 45 50 52 53 49 47 48 42 42
18 19 22 27 29 31 33 36 40 41 41 47 50 51 47 42 35 37 39 42 45 47 48 50 50 51 53 56 57 56 56 52 56 60 59 47 47 48 55 52 45 47 43
22 24 27 28 30 35 37 41 42 45 42 48 46 45 41 37 41 44 47 52 51 51 53 52 53 53 54 54 53 55 53 53 53 46 55 57 50 39 39 53 56 49 52

GFSSE_700_spd_009.txt.gz
Wind_Speed
10 10 12 13 13 12 10 7 6 4 2 2 2 5 6 7 7 10 11 13 14 16 15 14 14 14 14 16 16 15 14 15 16 17 16 15 16 15 14 15 15 13 15
6 9 12 15 14 10 7 6 4 4 3 4 4 6 7 9 11 13 15 16 17 18 18 17 17 17 18 17 18 22 22 19 19 19 19 16 16 17 15 15 17 22 8
8 10 13 16 12 10 9 7 5 4 5 6 8 10 11 13 14 16 18 17 18 19 20 20 20 20 21 20 19 20 21 21 19 17 17 16 19 16 15 17 16 17 14
11 12 14 14 11 7 5 6 5 4 6 9 11 14 14 15 16 18 19 19 20 21 20 20 22 23 22 21 19 18 16 14 14 16 15 18 23 24 18 21 20 19 15
13 13 12 10 9 8 6 6 5 6 9 12 14 15 15 14 15 16 18 19 20 20 20 21 23 24 23 22 18 17 16 14 12 14 16 19 15 19 22 19 21 22 20
13 12 10 9 7 6 4 5 8 9 11 13 13 13 13 13 13 14 14 15 16 17 19 20 20 20 18 16 16 15 14 15 15 15 19 27 22 20 20 15 17 20 25
11 9 8 5 4 4 6 8 9 10 11 10 10 11 11 11 11 12 13 12 11 12 14 15 15 15 14 12 11 12 13 14 14 15 16 23 22 17 23 22 21 24 24
9 7 5 5 5 7 8 9 8 8 4 5 8 8 8 9 11 13 13 13 12 12 13 14 15 15 14 14 12 11 11 12 12 17 17 26 27 17 21 25 26 25 24
8 7 6 6 6 6 6 5 6 3 5 8 8 8 9 11 14 15 15 15 15 16 18 18 18 18 17 17 16 15 13 13 14 16 18 24 24 21 24 24 24 25 26
8 7 7 6 5 5 4 5 5 6 8 8 8 9 11 13 15 18 18 19 20 21 21 21 22 22 22 22 22 21 19 19 19 18 20 22 22 23 23 24 24 24 27
9 7 4 2 1 2 4 4 4 5 7 8 10 11 14 16 18 21 20 23 25 25 26 26 25 25 25 26 25 24 23 23 21 21 25 21 20 23 23 23 22 23 24
10 7 6 3 1 2 4 6 6 6 7 7 9 11 14 15 18 20 22 23 25 26 28 29 29 29 30 29 31 29 27 27 25 26 31 25 23 22 23 23 24 21 21
9 8 7 5 4 4 5 8 8 8 7 7 8 9 12 14 17 19 21 24 26 27 27 29 31 31 30 30 30 31 31 31 29 29 35 28 29 27 25 23 23 25 25
10 8 9 8 5 4 5 6 7 8 10 9 12 14 17 17 18 19 21 25 27 28 29 29 28 29 28 29 29 29 29 30 31 32 37 32 31 31 30 28 27 24 24
11 10 8 9 5 2 0 2 6 10 13 16 16 18 19 20 20 20 22 23 25 26 27 28 28 28 29 28 28 27 27 28 29 31 35 38 34 33 33 33 31 29 28
10 10 12 8 6 6 6 9 13 16 17 19 22 22 21 22 20 22 22 21 21 23 26 27 27 27 27 28 28 29 29 29 32 32 31 37 36 36 35 34 33 33 32
12 9 15 11 11 11 12 15 17 19 20 21 24 25 23 22 20 21 20 20 21 22 26 28 29 29 29 29 30 33 34 33 33 33 33 35 40 38 38 39 36 34 32
10 12 13 13 16 15 18 19 22 23 23 24 26 26 24 23 24 23 22 22 24 27 30 29 30 33 34 35 37 38 37 38 39 40 40 38 37 40 42 40 38 38 36
11 11 13 19 18 22 21 22 25 25 23 19 24 25 26 26 26 27 27 27 29 32 33 30 29 32 36 37 40 41 43 45 45 43 44 44 42 41 39 45 41 36 36
13 14 12 21 19 23 24 24 25 28 26 28 32 32 30 30 31 33 35 37 35 35 37 35 35 34 35 37 37 40 43 44 49 51 49 49 49 49 45 42 46 41 38
18 17 13 24 25 22 25 26 28 28 28 32 34 38 36 37 37 39 41 45 43 41 38 35 33 33 35 35 41 43 44 43 46 49 49 50 49 49 52 51 49 41 46
22 24 23 24 21 23 27 31 29 30 31 34 36 40 39 41 41 44 46 50 43 40 36 35 35 38 39 40 44 47 51 50 49 46 45 46 48 48 49 50 50 47 42
11 13 17 20 22 25 31 32 33 32 35 38 42 41 43 43 45 47 46 45 40 39 39 39 41 44 47 45 45 47 46 49 46 40 37 49 46 48 50 49 50 51 46
16 18 21 25 27 30 32 36 34 38 44 46 47 48 51 48 48 45 44 42 41 43 44 46 48 51 51 53 54 53 50 50 50 53 48 42 42 44 45 48 43 55 59
20 22 25 29 33 35 38 37 40 45 45 45 49 55 49 43 44 45 42 43 43 45 49 53 55 54 55 57 55 57 56 55 46 51 54 48 49 49 46 45 35 49 55
24 25 28 31 35 34 35 44 48 52 50 45 48 51 49 48 47 47 48 49 51 52 57 57 57 59 57 56 55 53 54 52 49 49 51 52 54 48 41 41 43 42 49

GFSSE_700_spd_012.txt.gz
Wind_Speed
4 13 15 14 15 12 9 7 4 1 1 3 3 4 5 7 9 11 12 14 15 16 16 15 16 16 16 16 17 19 17 16 14 15 16 16 19 17 19 18 17 15 11
6 15 16 15 15 11 7 4 3 2 2 2 2 5 8 11 13 15 16 17 17 19 19 19 18 19 19 19 20 20 22 21 19 17 16 17 19 18 18 19 16 14 11
8 13 15 15 12 9 6 5 4 3 4 4 6 9 12 14 16 17 17 18 19 20 20 20 20 19 19 21 22 22 21 20 18 15 13 14 22 17 17 19 21 18 18
9 11 12 15 12 8 6 5 5 4 6 7 10 13 14 16 17 16 18 19 20 21 20 20 20 20 21 23 23 24 23 20 16 14 11 13 19 21 12 16 17 19 22
5 11 13 12 9 7 6 5 5 8 10 11 13 15 15 13 13 13 15 16 17 17 18 18 19 20 21 21 21 22 21 20 17 13 12 16 17 20 17 10 15 19 17
11 12 10 8 6 5 6 7 9 11 13 13 13 11 10 10 9 10 12 15 16 16 15 16 17 17 17 16 15 15 16 15 15 15 13 16 18 27 16 3 11 11 10
11 9 8 7 6 6 9 11 11 11 10 7 6 8 9 9 9 11 13 15 16 16 16 15 16 17 16 16 16 15 13 13 13 14 12 20 20 15 7 12 14 15 14
7 7 6 5 7 10 10 9 7 6 3 5 8 9 10 10 10 14 15 17 18 18 20 21 21 21 19 18 17 17 15 13 14 16 16 21 21 18 13 13 16 21 22
5 5 4 7 10 8 5 4 4 3 4 8 9 9 10 12 14 15 18 19 20 21 22 22 22 23 22 21 21 20 19 18 18 20 22 21 22 23 20 20 19 20 18
7 7 9 10 6 3 4 5 6 6 7 8 9 11 13 14 16 17 18 20 21 21 22 24 25 25 25 24 23 23 23 23 23 23 26 25 21 20 19 20 20 19 20
10 8 11 7 4 4 2 3 4 5 7 9 10 11 14 13 17 19 17 19 21 22 24 25 26 27 29 28 27 26 25 27 24 23 29 29 23 23 20 20 20 21 20
12 10 7 4 2 2 4 2 2 5 5 7 10 11 16 17 18 19 22 22 22 23 24 25 27 27 28 27 30 30 28 29 26 26 31 32 27 25 24 22 21 21 20
6 4 9 5 3 2 4 3 5 7 10 11 11 14 16 19 20 22 25 27 28 28 29 28 26 26 25 23 23 24 26 26 27 28 31 32 28 28 28 27 24 23 22
10 9 17 7 7 5 5 3 2 7 9 12 16 18 20 21 22 24 24 25 27 27 25 24 24 25 24 23 22 20 21 22 22 24 29 31 28 27 27 27 28 28 26
11 13 16 12 9 7 6 7 8 11 14 18 21 22 23 24 24 26 26 27 26 23 22 22 23 25 27 28 28 27 25 24 24 23 27 29 32 28 28 27 26 27 29
11 15 22 19 12 10 9 10 12 15 18 21 24 24 25 25 24 22 22 22 21 18 18 22 27 28 27 27 26 28 29 28 27 30 30 32 30 32 31 32 31 29 28
14 16 21 23 11 9 13 14 18 20 21 24 28 27 25 24 24 24 24 24 25 26 28 31 31 32 31 31 32 34 35 33 33 31 29 32 34 33 34 32 32 32 31
16 21 21 10 22 15 18 18 21 24 23 24 28 25 28 28 30 27 26 27 28 29 31 34 34 33 33 32 32 33 36 37 37 38 40 36 35 37 36 37 35 33 31
5 15 12 24 27 25 23 19 23 25 24 27 23 27 34 33 33 33 33 33 34 36 38 36 35 37 39 37 36 35 34 35 38 41 44 45 44 47 50 44 41 39 36
17 19 16 22 23 20 30 21 22 23 27 33 34 33 37 35 38 40 41 43 41 43 44 45 40 40 38 38 38 37 35 36 36 37 41 44 49 49 48 53 50 47 44
23 22 19 21 20 23 27 28 28 29 33 34 32 36 38 41 42 42 44 46 42 49 46 44 44 42 39 38 40 40 40 39 39 40 41 43 44 47 48 47 50 49 48
21 19 21 23 24 25 30 31 29 35 35 35 35 40 45 45 43 49 48 52 54 45 45 44 42 42 42 39 41 45 50 48 45 44 43 43 39 40 45 49 50 47 49
13 14 16 19 21 22 29 34 37 35 37 37 38 43 47 52 56 47 44 45 45 44 42 43 45 45 47 45 45 49 51 53 54 50 46 44 41 36 42 48 48 48 50
13 17 20 25 27 26 29 32 34 37 39 47 49 50 44 42 45 44 42 44 44 46 47 48 48 50 52 52 53 54 52 53 57 60 54 52 47 47 44 38 44 45 51
18 21 25 28 32 33 34 35 39 43 43 45 46 47 46 50 47 46 48 49 49 50 49 50 52 53 54 56 57 56 54 49 46 50 59 59 56 52 51 53 46 45 34
25 27 24 24 28 34 36 37 40 43 42 43 47 50 49 51 52 50 51 50 50 50 51 52 54 55 55 53 51 48 47 49 49 42 40 48 51 50 50 56 52 55 61

GFSSE_700_spd_015.txt.gz
Wind_Speed
9 16 14 11 11 9 7 4 2 1 2 2 1 2 4 7 10 12 14 16 17 17 17 16 16 17 18 18 19 20 19 15 15 15 16 12 13 13 11 10 11 8 7
11 15 15 12 11 9 6 3 2 2 1 1 3 5 8 12 15 17 17 17 17 17 17 17 18 19 18 18 19 20 21 22 18 15 17 17 16 13 10 7 3 4 4
10 15 15 13 13 9 5 4 4 3 3 4 7 10 13 15 17 18 17 17 16 17 18 18 17 17 17 18 20 20 20 20 19 15 12 17 16 13 13 12 10 14 11
12 15 15 14 13 8 6 6 5 4 5 8 11 14 15 16 15 13 11 11 13 14 14 14 14 14 16 17 18 19 19 18 14 11 12 15 15 14 9 13 12 7 6
10 12 13 13 11 7 6 4 5 7 10 12 14 14 12 10 9 8 10 12 15 17 17 15 13 13 13 13 13 14 15 13 12 10 13 12 14 16 18 20 9 10 7
11 11 11 9 6 5 5 7 9 12 12 12 10 7 8 8 8 9 12 14 16 17 17 17 17 18 17 15 15 16 15 13 11 12 11 10 12 14 23 19 18 14 6
9 10 8 6 4 6 9 11 10 9 8 5 5 7 8 9 10 12 15 16 17 17 17 18 18 19 19 18 17 16 16 15 12 11 10 10 12 14 12 5 11 8 11
5 5 4 4 5 9 10 7 5 5 3 4 8 9 10 11 13 15 16 17 17 18 18 19 19 20 20 18 18 17 17 16 16 16 13 12 14 17 17 14 8 11 14
4 4 4 6 8 8 4 2 3 2 5 7 9 10 12 13 13 16 17 19 20 21 21 21 22 22 22 22 21 18 18 19 19 21 20 21 18 15 14 15 15 16 17
6 7 7 7 7 4 2 3 3 4 6 7 9 11 13 14 13 12 15 17 19 22 23 24 25 25 24 24 23 21 20 21 19 21 23 21 21 18 17 17 16 19 19
10 11 7 7 4 4 4 4 5 5 5 8 10 11 12 13 15 17 17 19 21 22 24 25 26 27 25 25 24 21 19 19 17 20 20 21 20 19 17 16 17 18 20
12 12 9 8 7 3 3 5 4 3 6 7 10 11 16 20 21 22 24 25 24 25 26 26 25 24 23 21 24 24 22 19 17 20 20 18 16 16 17 18 18 18 19
9 8 5 6 7 6 7 4 3 5 8 9 12 18 20 20 22 23 24 24 24 25 23 24 24 23 22 22 19 20 21 20 19 20 19 19 17 14 16 18 19 19 20
13 14 11 14 9 7 6 6 8 10 13 15 17 19 21 22 24 24 25 26 26 25 24 23 22 22 23 24 24 23 20 19 18 20 22 22 22 17 15 16 18 21 22
10 13 18 16 15 10 7 7 9 10 13 17 18 21 24 25 26 24 25 25 23 23 22 21 23 25 26 27 26 25 24 23 23 23 23 22 22 22 20 18 18 20 20
12 17 17 16 11 12 11 9 12 13 16 20 21 22 24 26 24 24 25 23 22 23 23 25 27 29 29 27 26 29 31 30 27 25 27 27 25 24 24 21 20 19 20
14 17 22 25 4 7 15 16 14 17 20 23 25 24 24 29 28 29 26 24 26 28 28 29 30 31 32 31 31 32 34 33 33 35 33 33 31 27 25 26 25 24 23
16 18 24 31 26 9 11 20 23 23 21 24 27 31 34 35 32 32 32 32 35 35 34 36 36 38 36 36 35 34 34 36 37 36 35 35 37 36 34 34 33 30 26
18 18 18 25 23 25 19 22 22 23 22 25 28 31 36 37 35 34 35 39 42 43 43 43 41 44 40 38 38 38 35 36 37 36 35 35 37 39 41 42 41 40 37
19 21 23 25 23 22 22 25 27 28 31 30 32 41 42 41 42 41 44 48 50 50 47 44 42 40 40 41 41 40 39 37 38 39 38 37 38 38 40 42 43 42 39
22 21 24 22 24 25 28 27 27 31 32 35 43 39 36 39 38 48 47 49 51 45 43 40 42 43 43 41 44 44 44 43 42 42 41 42 42 42 41 36 37 43 39
25 26 27 23 22 26 26 27 29 31 32 33 31 35 38 43 50 51 45 45 47 46 43 40 41 44 45 44 46 49 52 48 47 47 46 43 45 46 45 43 41 43 44
19 18 17 15 17 22 26 28 31 33 34 36 34 34 43 49 48 47 47 47 45 47 47 46 45 46 48 46 47 48 51 54 56 48 48 49 48 48 47 44 44 45 45
12 15 19 20 22 25 27 29 32 33 33 34 39 44 45 43 49 50 50 50 50 47 47 47 47 47 47 48 47 47 47 51 53 60 56 51 51 52 54 50 48 52 51
16 20 23 26 28 28 29 31 33 36 38 40 42 43 49 49 47 47 47 46 45 45 46 47 48 49 50 50 48 47 48 47 46 47 56 55 51 50 51 54 56 52 54
20 24 24 22 25 27 32 38 41 41 42 44 46 48 48 46 46 46 45 45 47 48 48 47 48 49 49 47 42 44 45 45 46 40 47 45 45 43 39 42 48 54 55

GFSSE_700_spd_018.txt.gz
Wind_Speed
11 14 14 12 10 8 6 3 1 0 1 1 2 3 5 9 13 16 17 18 19 19 18 18 17 17 17 18 18 18 18 17 15 15 16 17 16 14 10 9 8 5 3
11 14 15 11 9 8 6 1 2 4 4 3 4 6 10 15 17 18 18 18 16 16 17 17 17 16 15 16 17 18 19 19 18 16 16 17 16 17 15 12 6 7 6
12 17 15 10 10 9 5 4 6 6 5 5 8 11 16 18 18 15 11 9 9 11 12 12 11 12 12 13 15 17 18 18 17 18 16 14 13 14 13 11 13 10 12
10 15 13 11 12 9 6 7 7 5 6 9 12 16 17 14 10 7 8 9 10 13 14 13 12 12 11 11 11 12 13 14 14 13 14 13 10 8 13 8 14 16 14
13 15 14 12 11 8 8 6 5 7 10 14 16 14 8 8 8 8 9 11 13 14 14 13 12 12 12 12 12 12 12 11 11 12 11 11 9 8 10 16 12 21 16
11 12 12 11 11 9 5 6 9 13 14 12 7 4 7 10 11 11 12 14 15 15 15 15 16 15 14 14 13 14 13 13 11 10 8 9 11 9 7 11 10 15 13
12 12 11 10 7 5 7 11 13 9 6 2 4 8 11 12 12 13 14 15 15 15 17 17 17 17 17 17 17 15 14 15 11 9 8 9 10 12 10 10 7 9 10
11 11 9 6 5 7 10 8 4 3 1 4 8 10 11 12 14 15 15 16 17 18 19 19 19 18 18 18 18 18 17 18 15 13 11 11 12 11 11 8 7 9 14
10 7 5 4 7 8 5 2 2 2 4 7 8 9 10 11 13 15 17 18 19 20 21 22 22 21 19 18 17 17 16 17 17 16 16 15 14 11 9 10 10 12 15
7 5 4 6 7 4 2 2 3 4 5 5 6 9 11 11 11 14 16 18 19 20 21 23 23 22 20 18 15 14 14 14 14 16 16 17 18 15 13 12 12 12 11
5 4 5 6 4 3 3 3 4 5 5 8 9 10 12 16 18 19 18 20 21 21 22 23 23 21 18 17 17 15 14 13 13 13 14 13 13 15 15 15 14 14 14
4 5 5 6 4 5 3 4 4 6 7 8 10 13 16 20 22 22 22 21 21 23 23 21 20 19 17 16 17 17 16 14 14 12 12 11 10 11 14 15 16 17 17
7 7 11 13 8 7 4 2 1 3 5 8 13 17 18 20 23 24 24 23 23 24 20 20 21 21 22 22 21 20 18 18 19 18 15 13 12 12 13 15 16 18 20
7 9 10 13 12 12 7 5 5 6 8 11 15 18 21 22 25 26 26 25 25 25 22 23 24 24 25 26 25 24 21 20 20 22 21 20 18 15 14 15 18 18 19
7 9 7 7 8 8 8 11 13 14 15 15 16 17 19 22 24 29 30 28 29 27 24 26 29 28 25 24 26 26 26 27 27 27 26 24 22 21 19 18 17 18 20
5 9 12 14 11 12 8 10 13 20 20 18 18 21 23 25 26 33 32 30 29 28 27 31 33 33 32 32 29 30 30 31 31 32 33 33 31 27 23 21 18 19 20
7 7 13 12 6 13 17 13 11 21 24 23 24 25 27 28 30 34 34 36 35 35 36 38 39 41 40 39 42 38 35 34 33 34 36 37 37 35 32 28 25 22 21
11 13 13 15 18 18 9 12 19 17 20 25 28 32 32 31 34 35 35 36 36 39 44 44 46 46 46 43 41 40 37 35 34 35 35 36 37 38 38 37 33 31 28
14 15 17 18 17 14 12 18 20 20 23 26 30 33 32 36 37 36 35 38 41 44 44 42 43 46 43 42 43 39 36 35 36 36 37 37 38 40 41 41 40 38 35
16 17 20 20 20 18 19 19 19 21 24 28 30 31 32 35 34 34 37 42 49 45 45 45 42 41 42 44 46 44 42 40 38 39 40 41 43 43 43 42 42 43 43
20 21 21 23 25 18 19 18 18 21 26 29 33 34 33 33 37 41 48 47 47 47 49 50 49 47 48 46 50 49 47 42 42 42 43 45 46 47 48 47 46 44 43
21 22 24 18 14 15 16 18 21 25 29 30 33 35 39 40 40 44 44 45 49 51 50 48 47 47 46 46 49 50 53 49 45 45 43 46 48 49 50 51 49 46 44
18 14 12 11 12 14 17 20 22 24 26 30 35 36 37 39 43 47 50 53 51 48 47 46 45 44 45 45 45 48 51 53 54 49 47 48 49 49 50 51 51 49 47
10 11 13 16 19 22 24 25 25 27 30 32 33 35 37 42 47 50 50 49 48 47 45 45 45 45 46 46 46 45 47 49 53 59 55 51 49 49 50 52 54 53 50
19 21 22 23 22 22 22 23 28 33 36 36 37 42 46 48 50 52 52 50 48 48 49 49 48 47 47 48 49 48 48 48 47 49 59 56 51 44 45 47 51 52 53
19 19 25 26 24 29 34 37 39 41 44 47 47 45 50 46 57 55 52 48 48 47 46 47 49 52 52 52 50 48 46 45 45 42 45 49 46 42 35 34 38 42 45

GFSSE_700_spd_021.txt.gz
Wind_Speed
14 14 12 11 9 8 8 5 1 2 3 3 4 4 7 12 16 20 21 21 20 17 17 17 17 16 14 14 15 15 17 17 18 18 15 13 13 15 12 10 9 10 13
12 11 12 10 8 9 8 3 3 5 5 4 4 8 11 16 20 21 18 13 10 10 11 11 11 11 11 11 13 14 17 18 18 17 16 13 12 13 11 10 9 4 7
12 13 11 10 10 10 6 4 5 6 6 5 8 12 16 19 15 9 6 7 8 11 13 13 11 11 11 11 11 11 12 13 15 15 14 12 10 11 10 8 10 10 8
14 11 12 11 10 9 7 6 8 5 6 9 13 16 16 10 7 7 8 10 12 13 13 13 13 13 13 13 12 12 12 13 14 13 10 8 7 7 9 9 8 13 13
13 15 14 12 10 10 7 8 5 6 9 13 16 12 7 8 10 10 11 13 14 14 13 13 14 14 14 14 15 15 16 14 14 13 10 7 4 5 7 7 16 13 13
15 16 15 12 10 8 8 6 8 11 14 12 6 6 9 10 10 11 13 14 14 14 15 15 15 16 16 15 15 15 16 15 14 12 10 8 5 4 6 12 12 11 10
14 14 13 10 9 8 7 9 12 11 6 2 5 7 9 10 11 12 12 13 14 14 15 16 15 15 15 16 16 16 16 15 14 12 11 7 5 7 7 8 6 6 5
12 12 10 9 7 5 8 10 4 2 2 4 5 7 10 12 13 14 15 16 17 17 17 18 18 17 16 14 13 13 12 13 11 13 14 13 10 10 12 11 7 6 10
13 11 9 6 4 6 7 2 1 2 4 5 7 10 13 14 15 15 16 16 17 18 20 21 20 19 18 16 14 13 11 11 11 11 13 16 15 12 10 12 12 12 12
10 7 5 4 5 6 3 1 2 4 5 7 9 12 12 13 15 16 17 17 17 19 21 22 21 19 18 18 16 14 13 11 10 10 12 14 14 13 14 15 14 14 14
5 5 5 5 5 2 1 2 3 4 6 7 7 9 10 14 17 21 22 22 23 22 25 22 20 19 17 16 18 18 16 14 12 10 10 12 14 15 15 17 17 18 19
4 5 4 3 1 2 3 2 3 4 4 4 5 9 13 17 19 21 24 24 23 23 24 22 21 23 24 23 21 21 20 18 16 15 13 12 13 15 16 16 18 20 21
6 9 7 7 7 4 3 2 2 3 3 7 10 13 16 19 21 23 25 27 27 25 24 23 22 24 25 26 25 24 25 22 20 20 19 17 16 15 16 19 20 21 21
8 7 2 9 6 4 3 1 3 5 8 13 16 17 20 21 21 22 25 30 28 26 26 24 24 26 27 27 27 27 29 30 30 27 25 23 22 21 20 20 21 23 24
4 5 8 9 8 5 6 7 6 9 12 17 18 21 23 24 23 23 27 29 30 29 29 29 29 32 32 33 34 32 31 33 35 36 34 31 28 25 25 24 24 24 26
11 7 7 8 8 7 12 17 10 8 19 17 18 20 21 22 24 26 31 33 34 32 32 33 36 39 39 40 39 38 38 39 39 39 40 38 37 34 31 28 26 27 26
7 3 7 8 8 4 14 15 12 14 18 16 17 20 21 23 26 28 36 37 36 36 38 40 42 43 42 43 42 41 38 37 38 39 40 40 41 39 38 36 33 30 29
6 11 15 15 10 9 14 12 13 19 18 16 20 23 25 28 31 32 39 38 36 39 40 46 47 44 45 43 41 39 39 37 38 39 41 41 42 43 41 40 40 39 36
15 19 22 19 18 13 9 15 15 18 22 23 24 28 32 32 34 39 39 38 39 41 47 51 50 53 49 48 48 46 43 41 42 43 44 44 45 45 45 43 43 42 42
16 23 26 22 21 20 19 14 14 20 23 24 27 30 32 35 36 34 35 42 45 47 52 53 54 53 54 57 56 54 50 45 44 46 46 47 48 48 49 49 48 46 45
18 18 20 21 23 13 12 13 17 20 22 26 29 30 33 32 36 41 40 45 48 52 55 56 58 56 53 52 53 52 49 47 45 46 46 47 47 49 50 52 53 53 50
14 17 22 23 18 13 14 16 17 19 25 26 27 32 34 37 38 41 44 47 50 54 55 53 51 50 50 50 52 52 55 53 51 48 48 47 49 49 48 50 52 53 53
16 17 16 12 12 13 14 15 17 20 23 25 27 29 34 37 40 44 47 51 53 53 55 52 48 48 48 46 45 47 50 54 56 51 48 50 50 50 49 50 52 53 52
14 12 11 12 14 12 10 13 16 23 28 31 34 37 41 43 44 48 52 49 47 56 55 49 47 47 47 49 49 48 48 49 54 62 59 55 52 51 53 54 54 55 54
12 15 15 16 17 18 21 25 31 37 39 40 42 46 46 46 50 47 50 54 64 56 52 50 47 48 51 51 51 50 48 50 52 53 60 61 56 47 42 44 47 51 52
13 13 16 24 28 31 33 35 38 41 42 45 48 50 47 51 53 57 56 55 55 47 42 41 43 43 44 44 44 48 51 55 60 53 50 51 48 44 39 28 30 37 40

GFSSE_700_spd_024.txt.gz
Wind_Speed
22 17 14 13 11 7 6 3 2 4 4 5 5 6 10 14 18 20 18 14 12 11 11 12 11 11 12 12 12 13 13 14 13 13 12 9 8 10 10 10 8 8 10
16 17 15 13 10 8 7 3 0 3 3 4 5 9 12 16 19 14 10 9 9 12 14 14 12 12 12 11 11 10 11 11 11 10 8 6 6 8 6 6 7 7 8
16 15 14 11 10 10 8 4 2 4 4 5 7 11 16 15 10 8 9 11 13 14 15 14 14 14 13 13 13 13 12 12 12 11 8 3 4 5 5 4 5 9 10
16 15 14 11 11 10 7 2 5 4 4 7 11 14 10 8 8 9 11 13 13 13 14 15 15 15 15 14 14 14 14 14 14 13 10 6 3 3 3 4 7 9 12
14 16 15 11 11 9 4 3 4 5 8 12 11 5 6 8 9 10 12 13 14 14 14 15 15 15 15 15 14 14 14 12 12 11 10 6 4 3 2 6 8 10 10
14 16 15 11 9 6 3 4 5 9 11 6 4 6 8 9 11 11 12 14 14 14 15 15 16 16 16 16 16 15 15 13 11 9 8 6 3 4 4 7 10 7 9
17 16 13 10 7 5 4 5 9 8 2 3 5 7 9 10 12 13 13 14 14 15 17 17 17 17 16 14 13 12 12 13 12 11 8 7 7 8 9 9 9 7 7
14 13 11 8 6 4 4 7 4 1 3 5 6 8 10 12 13 14 15 16 17 17 18 20 19 18 17 16 14 11 10 11 12 11 12 9 9 10 13 15 13 11 9
15 12 10 8 5 3 5 3 3 4 5 6 8 10 10 12 13 15 16 16 16 17 19 21 20 20 19 19 17 15 13 13 12 12 13 13 11 11 14 15 15 15 15
15 12 9 5 3 4 2 3 4 5 7 8 8 8 8 10 13 15 18 19 20 20 21 20 18 18 19 19 19 17 15 14 14 12 13 15 14 12 14 16 17 18 18
10 8 6 5 3 2 3 5 5 8 7 6 5 5 8 12 15 17 18 20 21 22 22 22 20 18 20 22 20 18 18 16 14 14 14 15 16 16 16 18 20 21 21
6 6 7 7 5 6 7 6 7 7 6 4 5 9 13 16 18 19 19 21 23 24 22 22 21 19 20 23 25 24 21 19 18 17 17 17 17 18 18 18 21 22 23
5 6 6 6 7 8 8 8 6 4 2 4 8 12 15 17 18 18 20 21 24 26 25 23 22 22 23 26 30 30 29 28 26 23 22 22 22 22 22 22 21 22 24
7 8 10 8 8 7 7 6 2 1 3 8 11 13 14 16 18 20 21 21 24 28 29 27 26 25 27 29 31 32 35 34 33 32 30 30 30 29 27 26 26 25 25
6 7 9 9 8 7 6 3 2 4 5 12 13 14 15 17 18 21 23 24 26 30 30 30 31 33 34 34 33 33 36 36 36 35 35 36 34 34 33 33 31 29 29
6 4 2 4 4 4 1 3 5 6 9 14 15 15 17 18 19 23 29 29 30 34 34 34 38 37 40 39 38 40 40 38 36 35 36 35 36 37 37 36 36 35 33
5 5 5 10 8 9 8 4 3 6 16 17 16 17 19 20 23 27 30 30 33 34 35 40 43 44 45 45 46 44 42 39 41 42 40 40 39 38 39 40 40 39 37
7 10 15 18 14 14 13 12 15 15 18 20 20 21 20 23 28 30 33 33 35 34 35 44 47 48 50 51 50 48 47 45 46 46 47 47 46 45 44 43 42 43 44
8 13 21 24 24 21 10 20 11 16 20 20 22 21 22 28 32 28 39 29 36 41 45 47 50 53 55 56 56 55 48 43 43 43 43 44 46 47 47 48 47 47 47
15 18 24 29 30 23 19 12 11 14 19 21 23 23 29 36 30 38 36 40 46 49 50 53 54 55 57 58 56 56 53 47 45 44 43 43 44 46 47 49 50 51 51
18 19 32 23 20 8 15 13 14 16 20 22 24 31 28 35 37 39 41 43 47 49 51 54 56 57 56 55 56 56 55 52 49 44 44 44 44 45 46 48 50 52 52
10 12 12 11 13 13 11 11 12 15 20 24 26 29 30 32 35 37 40 44 47 50 53 56 56 57 59 60 57 54 52 53 52 48 47 46 48 49 50 50 49 50 51
9 8 8 10 12 13 12 12 14 15 18 24 28 30 32 36 40 45 49 52 54 55 57 58 57 54 54 47 44 43 45 48 48 46 41 41 43 45 46 48 52 54 54
5 9 11 8 12 12 14 17 21 25 29 35 37 39 41 45 48 51 52 54 54 55 56 56 52 48 45 45 45 42 41 44 48 54 53 51 48 46 48 49 52 52 56
11 15 13 11 13 20 23 28 31 33 38 39 39 42 44 47 47 48 51 52 52 52 51 48 48 49 50 51 47 46 42 44 47 52 54 51 50 48 48 44 40 43 48
20 23 17 19 20 24 26 31 34 39 39 39 41 44 45 45 45 48 48 48 48 49 50 50 47 44 43 45 47 46 49 48 45 46 50 49 43 36 37 38 29 30 34

GFSSE_700_spd_027.txt.gz
Wind_Speed
24 21 19 17 14 11 9 8 6 4 4 4 5 6 10 15 18 14 12 12 12 12 13 14 14 14 14 13 13 11 10 9 8 7 6 7 8 9 9 9 10 9 9
22 21 19 17 13 11 8 6 4 3 3 4 5 9 13 16 11 10 11 12 13 13 13 12 12 12 12 11 10 10 9 8 7 7 7 5 9 10 9 7 7 8 9
19 19 19 16 13 10 7 4 3 4 3 4 7 12 13 7 8 9 11 12 12 12 12 12 12 12 12 12 11 10 9 7 7 6 5 2 7 9 8 6 6 9 10
21 19 18 16 13 10 7 2 3 1 3 6 10 8 5 8 8 10 11 12 13 13 14 14 14 13 13 13 12 11 10 9 8 7 5 2 2 5 6 7 7 8 12
21 20 16 14 12 9 6 1 1 2 6 8 3 5 6 7 8 10 12 13 14 14 15 15 16 15 14 13 12 12 11 10 9 8 6 5 3 4 6 8 8 7 10
20 19 15 13 11 8 4 2 2 6 5 3 5 5 7 9 11 12 12 12 12 13 14 15 16 15 14 13 12 11 11 10 9 9 7 6 6 6 8 9 11 9 7
19 19 15 12 10 8 4 3 5 3 3 5 5 8 11 11 11 11 12 13 13 14 15 18 19 18 16 14 12 11 11 10 9 9 11 9 7 8 10 12 12 10 9
19 17 14 11 10 6 4 4 4 3 5 6 9 10 10 11 12 13 14 14 14 15 18 20 21 20 19 18 17 14 13 13 10 8 10 12 12 12 13 14 14 14 13
19 15 12 10 8 5 4 2 4 6 7 9 9 9 9 9 11 12 13 15 17 18 18 19 20 18 17 17 17 17 15 14 13 11 10 10 11 13 16 17 17 16 15
17 16 14 10 7 4 4 6 7 8 10 9 8 7 7 8 9 10 12 14 17 19 19 18 18 16 16 16 16 17 17 17 15 13 12 12 13 13 14 17 20 21 21
17 15 11 8 5 4 6 8 9 10 10 7 5 4 6 8 10 11 13 15 17 18 18 20 21 21 19 18 18 18 19 18 18 19 17 16 15 15 16 16 18 21 24
12 9 8 6 6 7 9 11 12 9 7 4 2 4 7 9 10 12 14 16 20 21 22 23 22 22 22 21 21 22 23 22 21 22 23 23 21 20 20 20 20 21 22
7 5 4 8 10 11 12 12 10 7 4 0 4 6 8 11 11 13 15 18 22 22 25 26 25 23 24 25 26 26 26 26 27 28 29 29 27 27 26 25 25 24 25
11 12 10 11 12 13 14 13 9 6 4 4 7 8 10 11 14 16 18 20 22 23 26 29 28 27 31 30 30 29 28 29 30 30 30 30 29 29 31 31 30 30 29
11 11 11 10 12 14 14 11 8 7 8 7 9 12 13 14 15 16 18 21 23 26 28 31 31 29 34 34 34 34 34 35 35 34 32 31 31 31 32 32 33 34 34
11 10 9 10 11 11 12 9 7 4 10 12 14 13 14 16 17 18 21 23 26 29 31 29 35 35 40 41 39 40 41 42 43 42 40 40 39 39 38 37 36 35 37
9 8 9 13 13 13 12 10 8 10 12 20 18 15 18 19 19 21 25 28 31 35 38 35 38 40 47 45 45 46 46 48 49 47 44 43 42 42 42 42 42 42 41
13 15 17 18 15 18 20 18 25 12 10 15 15 19 22 22 23 25 34 34 34 36 34 42 43 46 47 49 49 50 50 52 51 49 47 45 44 42 41 42 43 43 43
16 17 20 24 24 23 18 23 11 4 9 12 16 21 24 25 24 32 33 39 39 39 43 44 47 49 52 53 54 55 52 51 49 48 49 50 50 49 49 48 46 45 46
14 16 20 25 23 24 24 16 5 7 11 14 19 23 23 28 31 32 34 35 38 41 45 47 49 52 54 56 55 56 55 54 53 53 53 52 50 50 50 50 49 48 48
19 18 21 21 10 10 5 7 8 10 13 14 18 23 25 26 29 33 36 38 40 43 45 48 49 50 52 55 56 56 54 53 52 50 50 50 51 50 50 49 50 53 53
16 14 11 7 8 9 10 9 9 10 13 15 17 23 26 28 32 36 39 41 45 47 49 51 53 55 55 56 55 55 53 51 51 48 48 48 48 47 48 47 48 50 51
3 2 4 6 5 4 7 8 9 13 16 22 26 28 31 34 37 40 42 45 48 50 51 52 53 54 54 53 52 49 48 50 51 46 43 43 42 42 43 45 47 51 53
4 8 12 8 8 10 11 11 16 21 26 30 31 32 34 37 40 43 46 47 48 49 49 49 50 50 50 48 44 41 38 42 43 47 45 48 45 39 37 38 42 46 50
5 14 13 13 14 15 17 20 23 26 30 35 35 35 36 39 41 43 44 45 46 46 47 49 49 49 47 43 44 42 40 40 40 43 46 45 44 43 45 42 41 40 37
13 22 22 14 17 20 22 23 25 29 34 37 36 37 38 40 41 42 43 46 48 48 49 49 48 46 44 42 39 36 33 33 37 43 45 45 44 42 41 39 35 34 32

GFSSE_700_spd_030.txt.gz
Wind_Speed
22 21 20 19 16 13 11 9 7 5 4 3 3 6 10 13 8 8 9 10 10 11 11 11 11 11 10 9 8 7 7 6 5 4 5 9 11 12 12 11 9 10 10
24 22 21 19 16 14 12 8 5 4 3 3 4 8 11 7 7 9 9 10 10 11 11 12 12 11 10 9 7 6 6 6 5 6 6 7 11 11 11 11 8 9 9
21 20 20 19 17 13 10 7 4 3 2 3 7 9 5 6 7 7 8 9 10 11 11 11 11 11 10 9 8 7 6 6 6 5 5 5 8 9 9 11 10 9 11
18 15 19 19 16 13 10 5 4 3 2 5 7 4 5 6 6 8 9 10 11 11 12 12 12 12 11 11 11 10 9 7 6 5 5 6 8 8 9 11 10 10 12
18 21 18 17 16 13 8 4 4 1 4 4 3 4 5 6 8 9 10 10 11 13 14 14 14 13 12 12 11 12 13 11 8 7 6 6 7 7 9 10 11 10 13
21 21 18 16 15 11 7 4 2 2 1 4 4 4 6 8 9 9 10 11 12 13 14 15 15 14 13 12 12 12 12 13 12 10 9 8 9 9 10 11 11 12 13
23 21 18 17 13 9 6 4 1 0 5 6 6 8 8 9 9 10 11 11 11 12 14 15 15 15 14 13 12 11 11 11 11 11 12 12 11 12 13 14 14 14 13
23 21 18 15 13 9 6 3 2 6 7 8 10 8 9 9 9 9 10 11 12 13 13 14 16 17 16 16 16 14 12 11 10 10 10 12 13 13 15 17 17 17 17
24 21 17 14 11 8 5 4 7 9 9 11 9 8 7 6 6 6 7 9 13 15 16 17 18 18 18 17 15 15 15 14 12 11 12 13 13 13 13 15 18 19 19
23 18 15 13 10 6 5 8 11 11 13 11 9 6 4 3 4 5 7 10 13 16 16 18 20 19 18 16 15 15 15 15 14 13 14 14 16 17 16 15 16 17 18
20 17 14 11 7 7 10 11 12 13 13 10 7 4 1 1 3 5 8 10 14 15 18 20 21 19 17 15 16 17 18 19 18 17 17 17 18 19 20 20 20 20 20
17 15 12 10 9 11 12 12 14 15 13 9 6 4 3 4 5 6 8 11 13 16 19 22 24 24 21 20 21 19 20 20 21 21 23 23 22 22 24 24 24 23 23
14 12 10 11 12 13 14 15 16 15 12 9 7 6 7 7 7 8 10 12 14 17 20 23 26 28 26 24 23 23 22 22 23 25 26 24 25 25 24 25 26 28 27
11 11 12 14 15 17 18 19 17 15 12 10 9 9 10 10 10 11 12 14 16 18 21 25 29 31 29 29 29 30 30 27 28 29 33 29 30 29 30 30 29 29 30
15 13 12 13 15 17 19 17 14 13 11 11 12 13 11 12 14 14 15 18 20 24 27 28 32 33 34 34 34 36 36 36 35 35 37 37 34 33 33 33 35 36 37
15 14 12 12 14 15 16 15 14 12 10 13 16 18 14 12 16 18 20 22 25 30 35 33 33 33 33 40 41 41 41 43 43 43 42 43 41 37 35 35 35 37 39
14 13 12 12 13 14 16 17 14 7 7 11 14 26 22 16 18 21 24 26 31 36 35 39 38 38 41 42 44 45 47 48 49 47 45 44 45 45 41 40 40 39 39
15 13 13 14 15 20 25 25 20 10 12 9 16 17 17 19 22 22 28 29 37 35 38 38 41 42 45 48 47 48 47 45 48 47 47 44 45 45 48 49 45 45 46
18 17 18 20 21 22 27 30 28 9 11 11 12 16 18 21 24 28 33 35 35 37 39 41 43 46 47 49 48 48 47 46 47 48 48 49 49 48 48 52 50 47 49
18 19 20 20 21 22 19 15 11 6 10 11 13 15 17 23 26 28 32 35 36 38 41 42 44 46 46 49 48 50 51 51 50 50 50 51 52 55 53 53 54 52 53
20 20 20 17 14 6 4 3 5 6 8 9 12 16 19 24 29 31 33 35 36 39 41 44 45 47 49 51 50 50 51 52 52 51 51 49 52 56 56 58 56 57 56
22 22 20 13 6 7 3 8 5 2 4 8 11 17 21 25 28 31 33 36 38 41 44 45 47 49 49 51 53 50 49 42 33 34 49 49 51 52 49 50 52 52 53
10 10 8 2 5 5 6 4 3 4 8 12 18 24 26 28 31 34 36 38 41 42 44 46 48 48 50 47 49 48 45 38 44 43 42 37 45 44 45 45 48 50 51
8 8 4 4 5 7 7 6 9 11 15 19 24 28 31 32 34 36 38 39 41 42 44 45 47 48 48 47 46 43 44 42 38 35 30 28 31 36 36 38 43 42 45
7 3 8 11 11 11 12 13 15 18 21 24 29 32 32 34 35 36 38 39 41 43 45 46 46 46 46 45 41 38 35 31 27 24 29 30 35 33 33 41 41 41 41
7 11 16 13 11 16 16 17 19 22 25 29 34 33 34 35 36 38 40 42 43 43 44 45 45 45 42 40 35 31 28 23 26 27 28 30 36 36 32 36 35 32 35

GFSSE_700_spd_033.txt.gz
Wind_Speed
22 23 20 20 19 16 14 12 9 6 4 4 3 4 7 7 5 5 7 8 8 9 9 9 8 8 7 6 6 6 6 6 6 7 9 11 13 12 12 10 10 10 9
23 24 20 20 19 17 14 11 8 6 5 3 2 5 5 5 5 6 7 9 9 9 10 9 10 10 10 10 9 8 8 8 8 8 9 9 11 11 10 10 10 10 8
24 24 22 19 17 17 14 11 7 6 5 1 3 3 5 5 5 7 9 9 10 10 11 11 11 10 10 10 10 10 10 9 8 7 6 6 15 7 9 11 10 11 10
24 23 20 17 21 18 14 9 7 6 3 1 2 6 6 5 6 9 9 9 10 11 11 11 10 10 10 10 10 10 9 8 8 7 6 3 15 7 10 11 11 12 12
28 22 19 21 19 17 12 9 8 4 0 1 7 6 6 7 8 8 9 9 10 10 10 10 11 12 12 12 11 11 10 9 7 6 11 10 15 9 11 12 12 12 14
22 22 26 21 19 15 11 9 5 1 1 6 6 6 8 8 8 8 8 8 8 9 9 11 12 13 13 13 12 11 11 10 8 8 8 12 12 12 13 14 14 14 15
22 26 25 21 19 15 10 7 3 2 7 7 7 9 8 8 8 8 8 8 10 11 12 13 15 16 16 15 14 13 11 10 10 10 12 11 12 13 14 15 16 17 17
25 26 25 22 17 13 10 6 3 7 9 9 10 9 8 7 6 6 6 9 11 14 14 15 18 18 17 15 12 11 12 12 10 10 11 14 15 14 13 14 16 17 18
22 22 21 17 15 14 9 5 7 11 11 11 10 9 7 5 3 3 6 8 11 12 14 17 19 20 20 17 15 13 12 12 12 12 11 14 15 17 17 15 15 16 17
18 19 20 16 14 11 8 7 11 12 12 12 10 8 5 2 1 4 5 7 9 12 14 15 18 20 20 19 18 18 16 14 13 12 17 16 17 19 20 19 18 18 18
18 16 15 15 12 9 8 11 13 13 14 12 10 7 4 3 3 5 6 8 10 12 14 15 18 21 25 26 20 17 17 17 16 14 18 16 18 20 22 23 23 23 21
18 17 18 13 11 9 10 12 13 15 15 13 10 6 6 6 5 8 9 11 12 14 17 19 21 24 25 26 25 22 21 19 21 20 23 17 20 21 21 21 22 24 24
18 16 12 9 8 9 12 15 16 16 15 11 10 9 8 7 8 10 11 13 16 17 21 25 27 28 32 33 27 25 25 26 26 26 28 25 25 26 27 26 25 25 25
14 11 9 9 11 12 15 16 18 14 15 11 10 10 10 9 10 11 14 16 18 19 21 25 29 34 32 34 29 30 30 31 32 32 32 33 29 29 28 29 29 29 29
11 11 10 10 12 13 15 16 17 14 9 8 10 13 14 15 13 17 16 19 20 23 27 31 36 36 34 35 35 36 37 37 37 38 37 37 37 30 30 29 29 30 32
11 8 8 9 12 14 16 16 16 12 11 10 10 12 19 22 23 26 20 22 25 27 32 34 38 35 35 36 39 40 41 42 43 43 40 38 39 40 35 33 33 33 34
12 9 8 8 10 16 18 20 22 21 8 6 18 26 26 28 24 20 22 27 23 29 33 37 37 38 39 40 43 44 44 43 43 43 45 40 37 42 43 39 37 37 39
15 12 10 10 12 14 18 24 26 24 16 17 18 22 22 21 17 18 23 29 30 34 35 37 39 41 42 42 45 45 45 44 43 41 42 46 43 41 43 47 45 40 43
16 14 14 15 15 18 18 27 24 32 26 10 16 21 20 18 17 21 25 28 32 36 37 37 39 40 43 44 45 46 45 46 45 45 42 44 44 42 44 41 47 46 47
20 16 19 19 18 18 19 15 3 4 10 9 12 16 15 16 19 23 27 30 31 34 36 40 40 41 43 46 48 49 46 45 46 47 41 40 42 44 47 51 54 53 53
22 20 20 20 20 20 11 9 6 8 9 11 14 12 12 16 19 23 28 30 30 36 39 41 42 43 45 46 48 48 48 46 40 36 33 38 48 45 50 55 53 54 54
23 22 22 23 21 13 12 9 9 9 10 11 10 12 16 20 23 26 27 32 35 35 40 43 43 45 45 47 47 48 49 46 37 26 37 41 38 41 37 44 46 42 47
23 20 18 14 12 11 11 9 11 12 12 13 15 18 20 24 28 29 32 33 36 38 40 43 46 47 46 46 46 44 43 40 41 38 37 38 40 41 35 35 36 40 42
15 14 12 12 9 8 11 12 11 12 11 18 20 23 27 29 30 32 35 36 37 39 41 43 43 45 45 45 43 39 37 36 33 38 28 26 27 29 29 33 31 35 37
17 14 11 8 11 12 12 13 13 15 16 19 21 26 28 35 34 35 37 38 38 39 41 43 43 43 42 42 40 35 32 29 29 26 30 27 26 26 26 28 32 35 34
15 12 12 13 13 13 14 16 18 20 23 27 25 27 34 35 34 37 38 39 40 41 42 42 43 41 40 36 32 33 30 27 25 26 28 26 28 32 30 30 31 31 33

GFSSE_700_spd_036.txt.gz
Wind_Speed
19 22 21 21 21 20 18 15 12 10 8 6 4 4 6 5 7 7 7 7 7 8 8 9 10 9 9 9 9 8 8 9 10 10 10 10 10 15 11 10 9 8 8
19 23 22 22 21 19 17 14 11 9 7 5 3 4 3 7 6 7 8 8 9 10 11 11 11 11 11 10 10 9 9 10 10 9 7 6 8 12 10 10 8 9 9
21 25 24 23 21 19 16 13 10 8 7 3 1 2 7 7 8 8 9 10 11 11 11 11 12 12 12 12 12 11 10 8 9 12 8 11 12 13 10 12 11 10 9
24 27 25 24 21 18 16 12 9 9 6 2 2 7 7 7 9 9 9 11 11 10 11 12 12 12 12 12 12 11 11 8 7 6 11 12 18 10 8 12 12 12 10
28 27 26 24 21 19 15 11 11 8 4 4 9 7 8 10 9 10 10 9 10 11 11 11 12 13 14 13 12 12 10 8 8 4 11 12 12 12 12 12 11 12 14
30 29 24 22 23 20 14 12 10 5 4 9 8 8 10 10 10 9 9 10 11 11 11 12 14 15 14 13 12 11 11 9 7 8 12 12 13 13 13 14 14 13 13
33 30 27 24 25 16 12 11 7 5 9 10 9 11 10 10 9 9 9 10 10 10 10 12 14 16 16 14 12 11 11 11 11 11 13 12 14 15 14 13 14 15 15
29 31 27 28 23 18 12 10 7 10 11 10 12 11 10 10 8 7 7 8 8 9 11 12 14 16 18 17 15 13 11 13 12 8 13 12 15 16 16 16 14 14 14
29 29 24 24 21 10 12 10 8 11 11 12 12 11 10 8 5 4 4 5 7 9 11 13 15 17 18 19 18 16 15 10 11 13 15 14 16 17 17 17 17 16 15
14 24 23 19 12 13 13 8 10 12 11 13 12 10 7 4 2 1 3 5 7 9 11 13 15 17 18 21 20 17 15 13 13 16 16 15 16 18 18 18 18 18 18
15 24 21 18 16 15 10 9 12 13 14 13 11 9 6 5 2 3 5 7 9 12 14 16 18 19 22 26 26 24 16 16 17 20 18 17 18 20 20 20 21 20 19
18 9 16 19 15 10 9 11 12 14 15 14 12 10 6 3 7 6 9 11 12 14 16 17 19 21 24 30 29 25 21 19 21 23 21 23 22 24 25 24 22 23 23
15 14 16 13 11 10 10 12 14 15 16 15 12 6 6 6 9 11 11 14 14 17 19 23 26 29 31 33 30 27 24 25 26 28 28 28 29 28 28 29 27 25 23
14 11 9 8 7 7 9 13 15 17 14 10 8 8 8 10 13 15 20 22 18 20 21 23 26 29 33 32 31 32 31 32 32 33 32 29 31 31 28 29 28 27 26
12 9 10 11 10 11 13 16 17 16 15 12 11 9 13 15 17 19 28 23 22 26 26 28 29 30 33 33 34 35 35 35 35 37 38 34 32 34 32 30 30 30 30
9 8 8 9 11 14 14 13 15 17 15 12 10 11 16 16 15 20 26 26 23 24 26 31 31 32 34 34 34 35 37 36 35 37 37 40 38 37 36 36 33 35 35
9 7 7 7 8 7 11 15 16 19 16 11 13 21 24 29 27 25 27 23 20 26 29 29 32 33 35 37 37 39 40 39 40 40 39 38 44 41 39 41 42 36 36
9 6 4 5 6 6 8 12 14 17 23 26 22 21 31 22 22 20 21 19 22 26 30 31 34 36 38 40 39 40 42 40 40 40 40 36 40 42 43 44 44 43 39
9 10 10 11 9 9 11 10 16 14 18 26 31 31 25 21 19 19 19 18 23 27 29 32 33 36 38 40 40 41 43 44 42 42 42 38 38 42 46 47 50 51 51
12 9 15 16 12 16 15 15 10 11 13 12 13 17 16 16 17 18 18 20 24 28 31 35 36 36 37 39 40 41 43 44 43 42 42 39 42 44 47 50 54 56 59
22 13 16 17 15 18 18 16 13 13 12 10 13 15 16 15 16 20 24 26 26 30 35 38 39 40 40 41 42 42 42 42 40 37 40 42 41 44 47 51 54 57 59
24 23 20 20 18 22 20 14 14 13 11 12 13 14 16 17 19 23 25 29 32 34 35 38 40 41 41 41 43 45 45 43 42 42 38 39 40 45 47 49 51 52 55
27 26 24 24 21 18 16 13 13 13 13 15 16 18 20 21 24 26 30 30 32 35 36 37 38 41 42 40 40 43 45 47 47 44 43 38 40 46 49 48 45 39 42
30 26 25 22 16 16 15 14 13 14 18 20 21 21 20 22 26 29 33 33 33 33 35 37 37 40 40 41 42 41 40 44 44 48 41 37 39 38 34 37 39 37 37
26 23 21 17 17 15 13 15 13 16 20 21 23 25 28 28 29 34 35 37 37 37 37 39 40 42 42 41 43 44 41 38 36 37 42 41 37 31 30 31 35 36 38
23 22 19 13 16 16 17 18 16 19 22 24 25 26 28 32 32 34 36 37 37 37 38 38 38 40 40 39 39 39 33 34 37 36 38 45 35 30 32 38 38 35 35

GFSSE_700_spd_039.txt.gz
Wind_Speed
17 20 21 22 23 23 21 18 15 13 11 9 6 4 4 8 8 7 8 8 8 9 8 9 9 9 9 8 8 7 7 6 6 6 6 6 8 12 11 9 8 8 7
16 22 23 24 25 24 21 18 15 13 11 8 5 4 7 8 7 9 9 10 10 9 9 10 10 11 10 11 10 10 9 7 6 4 5 8 10 16 12 10 9 8 8
18 20 25 28 27 24 21 18 15 13 10 7 3 6 9 8 9 10 10 10 10 10 11 12 12 12 12 13 12 10 10 12 11 10 3 4 12 11 10 10 11 9 9
24 28 32 31 28 25 21 17 14 12 9 5 4 10 9 10 11 10 10 11 10 10 10 10 11 12 12 12 11 10 9 11 13 12 12 12 11 10 9 11 12 10 9
29 32 32 31 29 25 21 16 14 12 8 6 9 10 10 11 10 11 10 10 9 9 10 11 11 11 12 11 10 10 10 12 12 14 11 10 11 12 11 10 11 12 12
33 35 34 31 28 24 18 14 14 11 9 11 12 11 12 11 11 11 11 10 10 10 9 9 11 13 13 11 10 10 10 11 10 12 11 9 8 9 10 10 10 10 11
43 37 34 31 27 25 20 16 13 9 12 14 13 13 12 11 11 11 10 9 8 8 8 9 11 13 15 14 12 11 10 14 15 13 12 11 11 12 12 11 10 11 10
30 37 34 32 31 28 19 15 10 10 14 13 14 13 11 10 10 8 7 6 6 6 7 8 11 13 15 18 18 12 9 12 13 14 16 16 14 13 14 14 12 11 11
39 34 33 29 28 22 14 11 10 13 14 14 14 13 12 10 8 6 4 2 3 5 7 10 11 12 13 16 19 15 10 12 15 15 15 15 16 15 14 14 15 15 14
33 30 20 23 23 18 16 14 11 14 15 16 16 15 11 7 4 1 2 3 6 7 9 11 13 14 16 18 22 19 13 12 15 14 17 16 16 17 18 18 18 17 16
16 22 23 17 19 17 13 10 10 14 15 16 14 12 8 4 3 3 5 7 9 10 11 13 16 17 19 19 21 22 15 14 17 17 19 21 21 21 21 22 23 23 22
15 27 19 18 16 13 10 11 14 14 13 13 12 10 8 5 5 7 9 11 15 14 14 18 18 19 21 22 21 18 17 16 18 20 21 23 25 24 24 23 24 24 24
20 22 20 18 14 11 10 11 11 11 11 11 12 11 9 8 8 9 11 15 20 16 16 17 19 21 24 26 28 26 25 23 24 26 26 25 25 27 26 24 25 25 25
15 20 15 15 12 9 10 12 11 10 9 12 14 13 10 11 11 12 17 19 24 25 26 24 26 25 28 29 30 31 31 30 29 30 29 30 29 27 28 27 26 27 27
10 14 12 9 9 10 10 7 7 11 12 15 14 11 11 14 16 16 17 20 22 23 29 25 23 26 28 29 30 30 30 29 30 31 32 33 34 33 32 31 29 28 31
9 9 6 6 6 5 3 4 5 7 8 10 13 16 16 16 17 14 19 22 22 22 26 25 25 27 29 30 29 31 32 30 31 32 33 35 36 36 35 34 35 34 33
9 7 5 4 2 1 2 3 5 9 10 13 18 17 18 18 21 24 20 20 21 24 24 24 25 27 30 32 33 36 37 36 34 35 35 34 37 37 40 41 39 39 37
9 7 7 6 4 2 3 3 8 8 13 17 23 21 24 24 22 24 19 21 22 25 24 23 25 30 33 36 35 35 35 35 34 35 35 35 38 39 40 44 46 47 47
7 6 7 4 2 5 4 7 8 10 17 18 24 32 30 32 32 26 22 21 24 26 26 28 29 33 35 35 34 33 32 34 34 36 37 38 38 39 42 46 51 53 54
6 4 8 5 9 10 10 13 10 11 14 15 16 17 18 19 23 23 20 21 25 28 30 31 33 35 34 35 34 34 34 34 35 37 36 37 39 41 43 46 50 53 55
6 8 7 9 12 13 13 14 11 13 14 14 14 15 16 18 20 20 21 23 25 27 29 32 35 36 35 34 35 36 36 35 34 36 36 37 38 40 42 45 50 53 57
13 11 13 13 14 15 17 19 16 13 13 13 15 16 17 18 21 22 23 24 26 27 30 34 37 37 36 36 37 38 39 37 36 37 38 38 38 40 41 45 49 52 55
23 21 19 19 16 20 21 20 16 15 16 15 18 17 19 21 23 22 22 24 30 29 30 33 35 37 38 37 38 39 41 43 46 45 43 43 34 35 35 40 46 51 51
27 27 26 21 20 23 20 15 15 17 20 18 19 19 20 22 25 27 28 29 33 29 31 32 33 35 38 38 38 38 40 42 45 49 48 46 41 35 33 40 40 41 40
32 29 27 24 22 19 18 16 18 22 23 20 21 21 22 25 28 31 37 35 32 32 31 32 34 37 39 40 40 41 42 42 40 42 46 46 41 35 36 36 30 31 34
26 27 26 25 22 21 19 18 20 23 24 24 25 27 30 31 33 36 34 37 35 34 33 34 36 38 39 39 39 40 39 41 42 39 41 42 42 40 33 33 37 35 40

GFSSE_700_spd_042.txt.gz
Wind_Speed
12 22 25 27 27 26 24 21 19 16 14 12 8 4 6 9 7 6 6 8 9 9 9 9 9 8 7 6 6 7 7 7 7 8 8 8 9 12 11 8 7 5 5
13 24 24 26 27 26 24 22 19 17 15 12 8 4 8 8 7 7 8 9 9 10 10 10 10 9 7 6 8 8 8 8 6 5 7 8 9 10 9 8 8 8 8
22 25 27 28 28 26 25 23 20 18 15 12 7 6 9 8 8 8 9 9 9 10 9 8 8 8 8 8 10 9 9 8 8 9 10 8 9 9 9 9 10 10 9
23 28 28 29 29 31 27 24 21 18 15 11 10 11 10 9 10 9 9 9 8 7 7 7 7 7 7 8 8 10 10 11 10 10 9 9 8 8 8 9 9 10 9
23 28 31 33 34 31 28 24 21 18 14 11 13 13 12 12 11 11 9 8 7 7 8 8 9 9 10 10 11 11 12 12 13 12 12 11 10 8 7 7 8 9 9
24 33 37 37 37 34 27 23 20 17 12 11 14 13 14 12 11 11 10 8 7 7 8 8 9 11 12 10 12 13 13 13 15 16 13 12 11 10 9 8 8 8 9
23 38 40 34 34 32 24 21 16 12 11 14 14 14 13 12 11 10 8 6 5 6 7 7 9 11 13 12 14 15 15 16 15 15 14 12 10 9 9 9 9 10 10
32 43 38 34 32 34 28 19 15 11 13 14 13 13 12 11 10 7 5 3 2 3 3 5 6 7 8 11 16 17 17 15 15 16 17 15 15 14 13 13 12 12 12
32 29 32 37 37 34 30 21 13 15 15 15 16 15 13 11 8 5 3 2 3 3 4 5 6 6 7 9 12 15 16 15 16 15 17 17 17 16 17 16 16 14 14
37 39 36 35 39 27 22 15 15 17 17 17 15 12 11 9 6 4 4 5 7 7 8 8 9 11 11 13 15 18 20 17 16 16 17 19 19 18 18 19 20 21 20
25 30 23 22 29 22 16 16 17 17 16 15 14 14 12 9 6 6 5 7 10 11 11 12 13 15 17 15 17 17 16 16 19 20 21 22 23 23 22 22 21 22 23
26 14 23 24 22 20 14 12 13 15 16 15 14 12 10 8 8 7 7 10 13 14 12 12 16 17 17 19 20 20 20 21 22 22 21 22 24 25 25 25 24 22 22
22 26 27 23 22 17 13 13 14 14 14 14 14 14 12 12 11 10 11 12 13 14 16 17 18 21 25 26 26 24 23 24 26 25 24 25 26 26 25 25 24 24 24
21 26 22 17 17 13 11 11 12 12 14 14 15 14 14 14 12 13 13 15 16 19 21 23 24 25 26 24 27 27 26 25 26 28 27 29 29 29 28 26 26 25 24
21 26 22 17 13 11 9 9 11 10 12 12 12 14 14 14 13 15 17 17 21 23 26 23 22 24 24 23 25 26 27 26 26 27 27 27 28 28 29 29 28 28 28
14 18 19 16 13 10 7 8 8 8 6 6 11 14 14 12 13 17 16 22 24 22 21 21 23 24 25 25 28 30 30 30 30 29 29 29 30 30 31 31 30 30 31
7 12 12 11 9 9 9 8 6 6 6 8 11 12 16 17 20 19 20 20 21 21 22 23 23 25 27 29 31 35 35 34 34 33 33 33 32 32 33 34 36 34 34
8 10 10 10 11 10 8 5 3 0 5 9 14 15 19 23 24 26 27 27 26 25 24 24 26 29 31 33 35 36 33 33 33 32 33 34 34 34 36 39 41 44 46
8 6 6 5 4 4 2 2 2 5 8 13 15 19 22 27 31 32 32 28 25 25 24 26 29 32 32 34 37 37 34 33 34 33 33 34 35 37 39 42 44 46 49
7 5 5 3 3 4 6 7 8 8 10 13 17 18 18 20 20 19 20 23 24 23 26 30 32 31 33 35 36 35 34 33 34 34 34 35 35 38 41 44 46 48 50
10 7 5 6 8 9 12 12 12 11 12 13 16 17 19 20 21 19 21 22 23 26 29 31 34 32 33 35 34 34 34 34 34 34 35 37 37 38 40 43 46 48 51
10 10 11 10 10 13 15 15 16 16 14 17 17 21 21 19 18 19 22 26 29 29 28 33 33 34 35 34 34 35 36 36 37 37 37 38 37 35 39 41 43 46 47
14 13 14 14 14 16 19 20 20 18 16 17 18 18 18 19 20 24 28 29 30 31 34 36 36 37 36 34 34 36 39 40 40 40 42 41 41 37 35 39 41 42 44
19 19 20 19 18 20 21 23 19 16 16 18 18 17 19 21 26 28 26 26 27 33 31 35 37 36 38 36 36 38 39 41 43 46 46 44 42 41 38 38 36 38 40
20 20 22 24 24 23 25 23 16 16 17 18 19 19 21 24 28 26 28 31 34 42 40 36 37 38 38 38 38 39 40 41 42 43 46 45 42 41 38 36 34 33 33
25 23 22 24 30 28 25 17 14 16 16 19 21 21 23 26 29 32 35 34 32 40 44 38 36 41 40 40 40 40 40 41 41 41 42 43 43 41 38 36 37 37 38

GFSSE_700_spd_045.txt.gz
Wind_Speed
16 23 28 30 30 28 25 24 22 18 16 13 9 5 4 6 4 3 4 5 6 5 6 5 5 8 8 8 9 9 7 7 6 6 7 12 12 12 11 8 8 9 9
14 23 29 30 30 29 27 24 20 18 17 14 10 6 6 7 5 4 6 6 6 6 5 5 6 8 8 9 9 9 9 7 7 8 9 11 12 11 9 9 8 8 8
17 24 29 30 30 30 28 25 18 22 18 15 11 9 9 8 6 7 7 7 6 6 5 5 8 9 10 10 9 9 9 8 10 10 11 10 11 10 10 10 10 9 9
20 24 29 32 33 31 30 26 26 22 18 14 10 9 11 11 9 8 7 6 6 6 6 7 9 10 10 11 11 10 10 10 10 9 9 9 9 10 10 10 10 10 9
26 29 31 33 35 34 33 27 26 22 17 13 11 10 10 10 10 9 7 6 6 7 7 7 9 10 11 11 11 11 12 13 14 14 13 12 11 11 10 10 10 9 9
25 30 34 37 39 37 30 25 22 19 15 11 10 11 11 11 10 8 7 7 6 6 7 8 8 9 11 14 16 16 16 16 15 16 14 13 12 12 11 11 10 10 10
26 30 35 37 35 30 32 25 20 15 12 11 11 12 12 12 10 9 7 5 4 4 5 6 7 10 11 14 17 19 20 19 17 16 14 13 13 12 13 13 13 12 12
25 31 42 36 36 29 23 23 17 14 13 15 15 15 14 13 10 9 6 4 2 2 3 4 5 9 13 15 16 17 19 19 19 19 18 16 15 15 14 12 13 13 13
32 38 37 39 38 34 23 25 17 18 18 17 16 15 13 12 10 8 6 4 3 2 3 4 7 11 13 15 17 18 21 21 19 19 20 21 19 17 18 18 17 17 16
23 38 31 40 42 34 27 28 26 19 18 17 16 16 14 12 10 7 4 6 5 5 6 7 9 11 12 14 18 20 20 22 22 22 22 22 23 22 22 21 22 21 21
36 32 33 27 35 37 30 24 22 20 17 17 17 15 15 12 10 7 7 7 7 7 10 12 12 14 12 14 16 18 19 19 19 20 20 21 22 23 23 22 22 24 24
29 30 34 32 31 26 28 17 17 17 17 17 18 16 14 12 10 9 9 8 8 11 13 16 15 14 14 15 17 19 21 22 23 23 23 22 22 23 21 22 21 20 23
19 20 13 35 34 31 18 16 17 17 18 18 18 16 13 12 10 8 10 9 11 14 16 17 18 18 18 20 19 19 21 24 26 27 26 26 26 26 24 22 22 20 20
16 27 36 30 25 20 16 14 15 15 16 16 15 15 13 12 10 10 12 13 15 15 21 18 17 18 20 19 20 22 25 27 28 27 26 26 26 27 26 24 22 20 20
26 28 30 23 19 16 15 14 15 14 14 14 14 13 13 13 13 14 15 15 15 16 18 18 19 21 21 22 24 27 30 31 31 30 29 27 27 28 27 27 26 27 24
18 17 17 14 13 13 12 11 11 11 10 11 11 12 15 15 15 15 15 16 20 21 21 22 22 22 23 24 27 31 34 35 36 35 33 33 32 32 32 30 29 28 28
15 13 14 15 18 16 13 11 9 9 10 10 11 10 10 13 15 18 20 23 25 25 21 21 21 22 25 29 31 34 36 38 40 39 35 33 34 34 33 33 33 34 35
14 17 19 17 18 15 13 10 8 9 9 8 10 10 12 14 19 24 28 30 29 24 19 20 22 26 29 31 33 34 37 39 40 38 37 35 34 35 35 35 37 39 40
13 13 15 14 13 13 11 9 7 8 7 8 10 12 14 18 21 22 22 20 17 17 18 20 26 30 33 35 36 37 38 38 36 37 37 36 36 37 39 39 40 42 43
10 10 10 9 8 10 9 6 4 7 6 9 11 14 17 21 19 20 19 16 17 19 22 27 30 32 34 37 39 39 40 39 36 36 37 37 37 37 39 42 44 44 45
12 11 9 7 4 4 3 5 7 7 9 11 14 17 19 20 19 21 21 21 23 26 30 32 33 35 37 38 39 40 41 39 38 37 37 38 37 39 41 44 45 46 47
11 9 8 6 6 6 7 9 11 12 13 15 17 18 19 20 20 22 23 24 27 30 33 34 37 39 44 41 40 40 43 42 41 40 39 40 40 42 41 42 42 44 46
10 9 9 9 10 11 11 14 16 17 17 16 16 18 21 22 22 23 24 26 27 28 31 31 36 38 41 42 39 42 44 44 44 43 41 41 41 42 43 42 41 41 43
4 7 13 13 15 16 17 18 18 20 18 15 19 22 22 19 21 23 26 27 29 30 34 35 37 38 38 40 42 41 42 42 45 48 44 44 43 42 42 41 40 39 40
9 9 10 13 16 19 20 21 21 20 17 18 18 20 20 21 23 25 27 29 32 35 40 44 46 45 41 40 39 42 43 45 46 47 48 45 44 42 41 40 38 36 35
16 16 15 15 14 19 23 28 21 19 17 18 18 19 22 25 28 30 33 35 37 42 44 41 50 52 41 41 40 43 46 47 46 45 46 45 45 42 39 37 34 32 33

GFSSE_700_spd_048.txt.gz
Wind_Speed
17 22 26 27 28 27 24 22 21 19 17 14 11 6 4 5 3 1 1 2 3 5 8 8 8 9 8 8 8 7 6 6 7 8 11 11 10 10 8 7 7 6 5
17 23 29 30 29 27 25 24 22 19 16 15 11 6 5 6 3 3 2 2 4 6 7 8 8 9 9 9 8 9 10 10 10 10 10 11 11 11 11 9 8 8 7
19 26 30 31 31 29 27 25 22 20 17 13 9 5 6 6 5 4 4 3 3 4 6 8 9 9 10 9 9 10 11 11 12 12 13 12 12 12 11 11 10 9 8
21 24 30 33 33 32 29 26 24 21 16 13 8 7 7 7 7 5 4 4 3 5 8 9 10 10 11 12 13 14 14 13 12 12 13 12 12 11 12 11 11 10 10
21 26 33 34 35 34 31 29 25 19 15 12 8 8 8 8 9 8 5 4 5 6 7 8 10 12 14 15 16 16 16 16 15 15 14 13 12 13 12 11 11 11 11
19 27 34 35 37 36 33 29 24 18 16 12 11 10 11 11 10 8 6 5 5 6 7 10 12 14 16 18 18 18 19 19 18 16 15 14 14 12 12 12 11 10 10
20 26 36 37 37 37 34 26 24 21 16 15 13 13 13 12 10 9 7 5 4 6 8 10 13 15 17 17 18 18 19 19 20 19 18 17 16 15 13 12 12 12 12
21 28 36 39 39 38 32 25 21 19 14 13 15 16 15 13 10 9 7 5 4 6 7 10 13 14 15 15 15 16 18 18 18 18 18 17 17 17 17 16 14 13 13
24 30 35 46 39 39 35 28 23 18 17 15 16 17 15 13 11 9 7 4 2 5 7 10 11 11 14 15 15 16 19 20 21 21 20 18 17 18 18 18 19 18 16
24 40 39 38 39 41 34 32 28 25 21 18 19 17 16 14 11 8 5 1 2 3 6 8 9 12 14 12 14 16 18 18 18 19 20 20 19 18 19 19 19 20 20
17 27 29 36 24 38 39 36 34 32 21 21 21 19 17 13 9 5 2 1 5 7 8 9 12 13 13 13 15 15 15 17 18 20 22 22 21 18 18 20 20 20 21
21 27 26 23 27 43 40 32 29 27 23 23 20 18 15 12 8 4 2 6 7 9 11 13 17 16 14 15 16 14 16 20 22 25 25 24 23 21 19 17 17 19 19
11 25 28 28 24 31 39 28 23 24 23 21 19 16 14 11 7 3 6 8 9 10 12 17 15 14 14 14 14 16 19 23 25 27 29 28 26 24 20 20 18 17 17
15 14 23 15 21 35 29 26 25 23 22 20 18 16 13 9 7 7 8 10 11 12 14 14 14 15 15 15 17 20 24 25 27 29 31 31 30 29 26 23 20 19 20
10 26 33 36 36 28 23 23 23 21 19 17 14 12 11 10 9 10 12 11 12 15 19 18 17 16 16 20 24 26 27 28 28 30 32 33 31 30 31 29 28 23 21
26 27 25 23 21 22 19 17 18 17 14 13 12 13 12 12 12 13 13 15 17 20 22 20 19 19 20 24 27 29 30 30 31 33 35 35 33 33 33 33 31 31 29
16 16 17 16 17 16 18 16 14 14 13 14 12 11 11 12 14 14 16 20 21 21 20 17 19 19 21 25 29 32 34 34 36 37 38 38 36 35 35 35 35 35 35
11 13 15 17 17 17 16 14 13 12 11 11 11 13 13 10 10 13 16 17 17 16 15 17 18 21 24 26 30 33 35 37 37 39 41 40 39 38 37 37 37 38 39
13 15 15 15 15 15 15 14 13 13 13 12 10 11 13 11 12 15 16 16 15 14 14 17 20 23 26 30 33 36 39 41 40 40 40 41 41 41 40 40 40 41 42
15 16 15 14 15 14 12 10 10 11 8 9 10 11 13 13 15 17 17 17 16 15 17 19 24 27 31 35 38 39 42 42 40 41 42 43 43 43 43 43 43 43 45
16 16 15 12 11 9 6 4 3 3 7 9 10 12 13 14 17 18 17 18 17 18 21 24 28 32 35 38 41 42 44 43 42 43 43 44 44 44 45 44 44 46 47
13 12 11 11 9 8 6 5 6 8 9 11 12 12 13 16 18 19 19 20 21 22 24 28 31 35 40 42 40 42 46 41 43 43 44 46 46 45 46 47 47 48 49
11 10 9 8 8 8 8 10 9 11 12 12 12 12 15 18 19 20 21 23 25 26 28 32 34 38 40 41 42 48 49 45 46 45 46 47 47 47 48 50 49 49 50
5 9 11 13 12 13 13 14 15 14 14 14 16 16 18 19 21 21 22 25 26 28 32 35 38 43 43 41 44 49 45 45 51 49 48 49 47 48 49 49 49 49 50
7 6 7 9 12 14 14 15 18 19 18 17 20 20 19 20 22 24 26 28 31 33 35 39 42 36 48 45 49 47 41 52 46 45 51 48 51 51 49 47 48 48 46
13 12 13 13 12 15 15 17 19 22 23 24 24 22 21 22 24 27 31 34 36 37 34 33 38 45 44 48 52 44 50 46 45 49 48 52 56 51 48 45 44 43 40

GFSSE_700_spd_051.txt.gz
Wind_Speed
11 18 22 23 25 23 20 17 17 15 13 10 9 5 4 2 4 5 6 8 8 8 8 8 9 8 7 8 9 10 10 9 9 10 10 10 9 8 7 5 4 4 4
15 20 27 27 27 26 23 21 20 18 16 14 11 7 4 3 3 5 7 8 8 8 8 8 8 8 8 9 10 9 10 10 11 12 12 12 10 9 8 7 6 5 4
18 23 27 29 30 28 26 24 22 20 18 15 10 7 6 5 5 7 9 8 8 7 9 9 9 9 11 11 13 13 14 14 14 13 13 12 11 11 10 10 9 8 7
19 23 29 31 31 30 27 26 24 21 18 15 11 9 7 7 7 7 8 7 8 9 8 8 10 12 13 15 15 15 15 15 15 15 15 14 14 13 12 11 10 9 8
18 24 31 32 32 30 28 26 24 22 19 15 12 11 9 9 9 8 8 8 8 8 9 10 12 14 14 14 14 15 15 16 16 15 15 14 14 13 12 11 10 10 10
19 26 30 30 33 34 31 28 26 22 20 16 15 12 11 11 10 9 9 8 9 8 9 11 13 15 16 16 16 16 16 16 16 16 15 14 14 13 12 12 11 10 9
20 26 29 34 36 35 31 30 26 23 20 16 15 13 13 13 11 10 9 8 7 8 9 12 13 14 15 15 15 16 18 18 17 17 16 16 15 14 13 12 11 11 9
21 25 31 35 35 35 36 30 28 23 20 18 16 15 15 13 12 10 9 7 6 8 10 10 11 13 15 15 14 14 16 17 17 17 16 16 15 15 15 14 14 13 12
21 26 29 35 40 36 36 30 25 25 21 19 17 17 15 14 12 10 7 5 6 7 6 7 10 13 13 11 12 14 15 15 16 16 17 18 17 17 17 17 16 16 15
21 25 31 37 32 32 39 34 27 27 25 19 16 17 16 15 11 8 5 4 4 3 6 9 12 12 13 12 12 13 13 13 15 15 17 17 16 15 16 18 18 19 18
20 30 29 38 45 40 37 38 30 28 27 22 21 20 18 14 10 6 4 2 2 5 7 9 12 14 11 10 11 11 11 13 15 17 17 18 18 17 16 18 18 19 20
9 13 44 36 35 29 32 40 41 34 31 29 23 22 19 13 9 6 2 2 4 5 8 11 14 11 10 11 11 11 14 17 18 19 19 22 23 22 18 15 16 18 18
12 18 20 17 28 38 22 40 38 35 31 29 27 18 15 12 7 5 5 3 4 7 9 10 12 13 12 11 12 14 17 19 20 22 24 26 27 25 21 16 14 15 17
12 13 19 31 37 30 31 33 31 29 29 21 20 18 14 11 8 7 5 6 8 7 8 14 16 13 12 11 13 16 20 23 24 25 26 27 29 29 27 23 19 17 16
9 14 17 18 10 18 31 38 32 28 23 22 19 17 14 9 7 8 9 9 8 11 14 17 16 12 12 13 16 19 22 24 25 26 28 29 30 31 31 31 30 26 23
12 11 27 35 43 38 32 31 28 24 22 21 20 16 13 11 10 11 11 11 13 17 19 15 12 11 12 16 19 21 23 24 26 28 29 30 31 32 33 34 34 34 33
30 32 32 31 28 26 26 28 27 25 22 20 17 13 12 11 12 11 11 13 15 14 12 10 11 13 16 20 23 25 27 28 29 31 34 35 34 35 37 38 38 39 39
13 16 18 18 20 21 21 21 21 21 20 16 14 15 13 12 9 8 10 12 12 11 10 11 12 15 19 24 27 29 32 33 34 35 37 36 35 37 39 39 41 42 43
12 13 15 16 16 16 17 17 17 17 17 17 16 14 13 11 11 10 10 13 12 12 11 12 14 18 22 26 28 31 34 36 35 38 42 40 38 39 38 39 42 45 46
14 15 15 16 16 16 16 16 17 16 16 16 15 14 13 12 13 13 14 14 13 12 14 15 17 21 24 26 29 33 34 35 38 42 41 40 42 40 41 42 43 45 45
14 14 14 13 13 13 11 10 10 10 12 12 15 13 12 12 14 15 15 15 15 16 18 19 21 24 26 30 34 38 38 35 35 40 41 38 43 43 43 46 50 50 49
15 15 15 14 13 13 11 10 10 10 11 13 15 13 12 12 15 16 17 17 18 20 22 22 25 27 30 34 38 42 43 43 45 45 39 42 49 45 43 48 51 50 51
14 13 13 12 12 13 12 13 11 11 9 11 12 13 15 17 18 18 18 19 21 23 23 25 28 30 32 34 41 44 44 45 45 42 36 45 43 40 45 51 49 51 53
11 13 13 13 13 13 14 14 13 13 12 12 14 17 20 22 19 19 21 21 23 24 27 29 31 33 32 35 42 39 45 44 43 43 46 43 43 44 47 49 51 53 51
12 11 12 12 14 15 15 17 18 17 17 16 19 22 24 24 21 21 22 25 27 29 30 32 35 35 37 39 38 42 45 37 39 43 44 45 45 46 49 52 50 48 49
16 15 14 12 13 16 18 18 19 19 18 21 23 24 26 26 24 24 25 28 29 29 34 38 39 35 36 36 41 42 40 40 39 40 43 45 47 48 49 45 44 47 46

GFSSE_700_spd_054.txt.gz
Wind_Speed
9 12 14 19 21 21 20 17 16 14 12 9 5 2 1 4 6 7 9 9 10 10 10 10 10 9 10 10 10 10 10 10 10 11 10 10 9 7 6 4 4 3 3
15 18 19 22 22 23 21 19 18 15 13 10 7 4 2 4 5 8 10 10 10 10 10 10 10 10 11 12 12 12 13 13 13 12 11 10 10 8 7 6 6 4 4
18 20 21 24 25 25 22 19 17 15 14 12 10 7 5 5 6 9 11 11 10 10 10 10 11 11 13 14 14 14 14 13 13 11 11 10 8 7 7 6 5 4 4
13 22 24 27 28 27 23 21 19 18 17 15 13 10 7 8 9 12 12 11 11 11 11 12 11 12 13 13 13 12 13 12 12 11 11 10 10 9 8 7 6 6 5
18 25 26 29 30 27 25 24 21 20 19 17 14 11 10 10 12 13 12 12 12 12 11 12 13 13 13 12 12 13 13 13 13 13 13 12 11 10 9 9 8 7 6
20 24 26 29 32 30 28 25 23 21 21 19 15 13 12 13 14 13 13 13 12 11 12 11 12 12 12 12 12 13 13 13 13 13 12 12 12 11 11 10 9 8 8
22 26 27 33 34 34 31 28 24 23 21 20 16 15 16 16 15 14 14 12 10 11 9 9 10 11 12 12 12 13 13 13 13 13 13 12 12 12 12 12 11 10 9
23 27 29 32 34 35 35 31 27 24 23 20 17 16 18 18 16 15 13 11 9 8 7 7 9 12 12 11 11 12 12 11 12 13 12 13 13 13 13 13 12 11 11
18 38 29 34 34 32 37 33 31 26 23 21 18 17 19 18 16 14 11 9 7 6 6 7 10 12 11 11 12 12 11 11 11 12 12 13 14 13 13 13 14 14 14
17 27 23 39 33 38 40 41 40 29 26 22 23 21 20 17 15 13 9 7 5 4 5 8 10 12 12 10 9 8 9 11 13 12 12 12 12 14 15 15 15 15 16
19 24 27 30 32 39 39 32 34 33 27 26 26 22 20 17 14 11 8 5 3 3 5 6 10 11 9 7 7 7 10 12 12 13 13 13 14 16 15 15 14 15 16
21 23 27 18 29 33 29 31 47 38 29 26 21 23 18 16 13 9 7 3 1 1 4 8 7 9 9 8 7 7 10 13 14 14 15 15 16 17 18 17 16 16 17
21 17 21 27 45 42 43 32 28 47 41 37 34 24 21 16 12 9 5 2 1 3 6 6 10 10 9 7 6 9 12 14 15 14 15 17 18 20 20 19 18 17 17
18 20 9 40 34 20 19 17 35 32 36 38 29 23 18 14 10 8 5 5 4 5 6 10 12 11 8 6 7 11 14 16 17 18 21 23 24 23 22 21 21 21 20
12 8 25 31 27 26 25 30 34 36 38 30 22 21 19 16 11 9 8 6 6 8 11 15 14 9 6 7 10 14 17 18 20 23 24 26 27 28 27 27 27 27 24
6 15 24 20 17 13 18 23 40 40 26 24 24 19 18 14 12 11 9 8 10 12 15 13 11 7 7 10 13 16 18 19 21 23 24 25 28 29 30 31 32 30 30
11 14 17 17 38 38 28 37 35 27 27 24 20 20 18 15 14 11 11 11 12 13 13 11 9 8 10 13 15 16 19 21 25 24 24 28 30 30 31 32 33 33 33
24 30 32 34 35 29 25 27 28 28 23 21 21 19 20 16 13 12 11 11 11 12 12 9 9 11 13 16 18 20 22 25 26 26 27 28 31 34 36 34 34 35 36
15 21 21 18 19 20 23 24 24 23 23 22 22 22 19 17 15 13 12 11 11 12 11 11 12 14 15 18 20 22 24 28 32 32 29 32 36 37 32 35 36 38 37
13 14 17 17 19 20 21 21 22 21 22 22 21 17 17 18 16 15 15 14 14 13 15 15 15 16 19 21 23 25 27 30 33 36 36 39 40 37 33 37 41 42 38
15 15 15 16 17 17 17 17 16 16 17 18 19 20 19 19 18 17 16 17 17 18 18 17 18 19 21 22 24 29 34 34 35 34 36 39 41 35 38 38 38 38 42
15 15 16 15 15 15 14 14 14 14 14 16 18 17 22 20 18 17 18 19 21 21 20 20 21 22 24 23 26 32 34 37 42 38 40 39 35 35 39 38 38 40 42
18 17 16 15 15 15 15 15 15 16 16 16 18 20 22 21 20 20 23 21 21 22 22 22 24 24 26 27 30 33 35 35 36 40 39 33 34 34 37 40 42 43 44
16 18 19 19 18 17 17 17 17 18 16 14 16 19 20 21 23 23 26 23 23 25 25 25 26 26 28 33 39 28 31 32 35 35 37 41 39 37 41 41 41 44 45
18 18 18 18 18 18 19 19 19 20 19 21 20 22 22 24 25 27 26 26 25 26 26 26 27 29 36 38 38 36 36 33 35 33 35 33 36 43 42 42 40 40 41
18 18 18 18 17 17 18 19 18 20 21 23 23 25 25 27 27 28 31 28 27 26 25 25 30 33 27 35 35 35 34 39 38 37 36 37 38 37 40 40 39 39 39

GFSSE_700_spd_060.txt.gz
Wind_Speed
18 9 15 17 18 19 21 20 19 17 14 10 8 7 9 11 12 13 13 14 14 14 14 13 13 12 12 11 10 9 9 10 10 10 9 9 8 7 7 6 6 5 5
26 5 9 15 18 20 21 22 21 19 16 12 9 7 8 9 11 13 14 14 14 14 14 14 14 14 13 13 12 11 11 10 10 10 9 9 8 8 7 6 6 5 5
13 11 12 13 15 20 23 24 22 20 17 13 10 7 8 10 12 14 14 14 15 15 16 16 15 14 13 13 12 11 10 9 8 8 10 8 8 8 7 6 6 7 7
20 16 13 14 15 20 22 23 22 20 17 13 10 8 9 11 14 15 14 15 16 16 16 15 15 15 14 13 12 10 9 8 8 8 11 8 7 7 7 7 7 7 6
18 19 20 20 20 22 22 22 21 20 18 15 12 10 10 13 15 16 16 16 18 16 17 16 15 14 13 12 12 11 9 8 8 10 9 9 9 9 9 8 8 8 7
20 21 21 23 22 24 23 23 23 21 19 17 14 12 12 15 16 16 16 17 17 16 16 15 13 12 12 11 10 9 9 7 11 11 10 9 9 9 9 8 7 7 7
16 21 21 25 24 25 27 26 24 22 19 17 16 15 15 17 17 17 17 17 17 15 13 12 11 11 10 9 8 8 8 8 10 9 9 9 8 8 7 6 7 7 7
17 17 31 21 28 30 32 30 28 24 21 20 18 17 18 20 18 19 18 18 16 13 12 10 10 8 8 8 8 8 7 7 8 9 8 8 8 8 8 8 8 8 8
15 18 20 23 32 34 30 30 29 27 26 24 21 21 21 21 21 21 18 16 14 11 9 8 8 8 8 8 7 7 7 7 8 8 8 8 8 8 8 8 9 9 9
11 14 13 9 15 17 23 23 31 32 30 25 24 24 24 24 23 21 18 15 12 10 8 7 7 8 8 7 6 6 6 6 7 9 9 8 9 9 9 10 10 10 11
12 12 11 13 9 17 12 22 22 32 35 25 28 28 27 26 25 21 17 15 12 10 6 6 7 7 6 6 5 4 4 6 9 8 7 7 7 8 9 10 10 10 11
15 14 15 12 20 18 16 15 21 22 33 35 32 31 31 30 26 21 18 14 11 7 5 4 4 5 6 2 3 4 5 6 7 6 6 7 7 8 9 11 11 13 14
15 11 12 17 15 20 24 21 32 33 33 41 38 33 30 29 25 18 14 9 8 5 2 1 3 6 6 3 1 2 3 5 7 7 8 9 10 10 11 11 13 14 16
21 12 12 21 20 18 25 21 28 36 39 43 38 36 30 26 25 20 14 9 7 3 2 3 7 10 7 2 1 3 5 7 7 6 10 10 10 11 11 10 12 16 19
8 13 17 12 24 22 30 15 27 36 46 44 43 41 29 29 21 16 13 8 6 4 4 6 10 9 6 4 5 5 6 6 10 9 11 11 10 9 10 15 19 20 20
6 16 21 15 23 30 20 30 41 34 33 45 43 34 33 22 16 16 10 8 6 5 7 8 9 9 6 5 6 7 8 8 10 13 9 13 14 15 17 20 22 23 23
8 9 13 15 18 25 25 27 31 18 22 48 38 34 27 21 17 13 9 9 8 9 9 10 10 10 7 7 7 10 9 10 10 14 18 16 18 21 20 23 27 27 27
6 8 7 15 19 16 22 24 17 21 25 33 31 25 20 19 18 13 12 11 11 11 10 11 12 12 9 11 11 12 14 14 14 16 19 25 26 26 26 26 25 27 28
23 27 21 16 17 15 14 25 32 33 30 26 26 25 23 20 17 15 14 13 14 14 12 12 14 13 13 14 15 17 18 19 19 19 21 23 25 30 33 29 26 27 28
18 22 24 26 30 32 38 37 35 27 33 26 25 22 20 20 21 18 17 16 18 18 16 17 15 15 19 18 18 22 21 22 24 25 24 28 25 23 26 30 29 34 35
8 11 15 17 20 22 23 22 25 24 23 23 23 24 23 19 21 24 20 20 21 20 23 20 19 19 22 23 21 23 27 28 27 30 33 32 29 31 26 27 30 34 36
8 9 12 13 14 16 17 18 17 17 18 19 20 20 19 19 19 15 16 22 25 24 27 23 24 24 23 24 25 25 27 30 34 32 36 36 31 27 30 35 36 32 34
12 11 11 12 14 16 17 17 18 20 21 20 19 19 19 18 21 17 17 22 31 30 30 28 25 28 25 29 25 26 30 30 33 34 35 36 39 31 30 31 31 35 37
10 12 12 13 13 13 12 14 16 15 15 14 16 17 17 17 19 23 24 27 32 28 29 32 28 28 30 30 32 30 30 32 36 31 34 40 37 35 33 35 36 36 35
14 13 14 15 14 12 13 13 13 15 13 14 15 16 16 13 18 22 25 26 29 30 31 31 32 27 35 29 35 29 32 32 31 39 38 33 36 36 35 38 42 44 40
17 17 16 14 13 13 14 15 16 19 18 17 17 19 19 16 22 24 28 27 29 32 33 31 33 38 42 34 22 32 30 32 34 40 40 37 33 31 28 33 38 42 44

GFSSE_700_spd_063.txt.gz
Wind_Speed
20 16 12 19 21 22 21 22 22 20 17 14 11 11 13 16 17 16 17 17 16 15 14 14 14 13 12 11 10 9 9 8 9 9 9 8 8 8 7 6 6 5 4
14 15 14 19 24 26 25 25 25 22 19 16 13 12 13 15 17 18 18 17 16 15 15 15 15 14 13 11 10 9 9 9 9 8 9 8 7 7 6 7 6 6 6
15 19 15 22 25 26 27 27 26 24 21 17 14 12 12 14 16 18 18 17 16 16 17 17 16 14 13 11 10 10 10 10 9 7 9 8 7 6 7 6 6 6 6
15 19 33 35 29 28 29 28 27 24 20 17 15 12 12 13 16 17 17 17 18 17 17 17 16 15 14 12 10 9 9 10 9 8 9 8 7 7 7 7 6 7 7
18 17 23 7 25 26 26 26 25 23 20 18 15 14 13 15 16 17 17 18 18 17 16 16 15 15 13 11 8 8 11 9 10 11 10 9 9 8 9 8 8 7 7
18 18 22 19 21 23 29 29 27 24 23 20 17 14 14 16 17 17 19 19 18 17 17 16 14 13 10 8 6 11 12 9 10 11 10 9 9 8 8 8 7 6 6
20 19 17 21 27 30 33 33 31 28 25 22 20 18 17 18 18 18 19 19 18 17 15 14 13 10 9 6 5 9 10 9 9 9 9 9 8 9 8 7 7 7 7
18 16 14 26 32 32 35 36 35 31 25 23 21 20 20 20 19 20 20 20 18 16 14 12 11 9 7 7 5 6 11 9 7 8 8 8 8 8 8 8 8 8 8
15 15 16 14 30 37 34 40 35 35 30 26 25 23 23 22 22 22 21 20 17 14 13 11 10 10 9 7 5 4 10 10 7 7 6 7 7 7 8 8 8 8 9
13 15 18 29 27 5 15 32 31 36 32 28 27 26 26 26 26 25 23 20 17 13 10 10 11 10 9 7 5 2 8 8 6 6 6 7 7 6 6 6 7 7 8
13 12 14 17 13 8 16 10 27 30 31 28 28 29 29 30 29 26 24 21 12 14 10 10 10 9 6 5 4 1 7 6 6 5 5 4 4 4 5 6 6 7 8
16 18 19 14 13 11 4 11 10 13 30 32 30 29 29 29 27 25 21 19 17 11 10 10 7 6 4 2 4 1 3 4 3 3 2 2 3 4 5 5 6 8 9
15 16 14 14 9 14 16 13 12 14 27 30 38 38 33 30 27 23 20 15 11 10 8 6 4 3 1 4 3 1 2 4 5 3 3 3 4 3 4 6 7 8 10
18 19 17 12 14 11 12 13 9 16 27 40 40 37 34 31 29 24 17 15 10 8 6 3 0 2 0 2 2 2 5 4 3 3 3 4 4 5 5 5 8 13 15
9 4 11 12 13 13 14 14 14 27 36 43 43 41 40 35 32 21 20 18 13 8 4 2 3 4 4 2 4 5 8 6 4 5 6 8 8 8 9 11 13 16 17
9 9 12 15 10 12 20 14 22 19 32 48 48 48 43 35 24 24 20 16 10 6 4 5 4 4 4 6 7 7 9 10 6 6 8 11 12 10 13 15 17 18 17
5 7 24 20 16 13 11 17 17 24 41 39 32 46 38 29 27 25 18 14 9 7 7 5 6 7 7 8 9 9 8 11 13 10 11 13 15 16 20 21 19 18 17
5 12 17 11 15 8 12 17 18 38 14 25 27 37 34 30 30 23 17 13 11 8 8 9 9 10 8 8 10 10 10 11 14 16 15 16 17 20 19 18 21 20 21
20 9 17 15 16 13 8 15 26 26 16 23 34 30 34 28 22 18 13 12 11 11 11 11 11 13 13 12 10 13 13 13 16 17 22 23 23 25 21 20 22 21 23
16 20 18 16 18 17 22 22 23 24 31 33 36 37 33 30 26 19 16 15 14 13 13 14 15 17 18 17 17 18 17 18 20 21 20 25 30 31 27 26 24 24 25
11 14 18 22 28 31 29 30 32 33 36 37 35 29 27 25 21 18 17 18 18 14 15 18 20 20 22 21 24 26 25 25 22 24 25 26 30 28 25 31 30 28 28
10 12 12 15 19 24 25 24 22 25 25 24 24 24 24 22 18 18 13 15 15 15 17 21 23 24 24 25 25 27 31 32 28 27 29 31 33 31 31 31 32 31 28
10 11 14 15 15 18 21 20 20 21 21 21 21 20 20 19 19 17 17 16 13 18 14 18 24 28 30 30 29 28 35 36 31 29 29 34 32 37 35 35 37 37 35
10 11 11 11 14 16 16 18 17 15 15 13 14 16 17 19 18 18 19 22 20 21 24 24 23 24 34 32 36 32 39 38 31 28 30 31 36 37 36 39 37 37 37
9 9 10 10 11 12 12 13 12 16 15 14 15 16 17 15 17 20 20 18 20 21 19 22 25 28 34 32 31 33 42 36 29 26 32 32 35 36 39 41 39 40 36
15 14 13 13 12 12 13 13 11 11 13 14 15 16 14 13 16 22 20 20 22 25 27 29 29 30 33 31 34 38 41 30 30 27 34 34 34 36 39 39 43 39 36

GFSSE_700_spd_066.txt.gz
Wind_Speed
18 16 14 11 23 30 30 30 27 24 22 19 15 12 12 16 17 16 16 16 15 14 13 13 11 10 10 10 10 9 8 7 7 8 9 8 7 7 7 7 8 7 7
2 4 15 26 23 30 31 30 27 24 22 19 16 15 16 17 17 17 17 17 17 15 14 13 12 11 10 10 10 9 8 8 7 7 8 7 6 6 6 7 6 6 6
7 6 4 21 20 26 30 32 30 26 22 19 19 17 16 17 16 17 18 18 17 15 14 13 12 11 11 11 11 10 8 8 7 6 7 7 6 6 5 5 6 5 6
4 10 13 19 26 29 30 31 31 27 23 20 19 18 17 17 17 18 17 17 16 15 15 14 12 11 11 12 12 11 8 7 7 6 7 7 6 6 6 6 6 6 6
16 23 22 23 33 31 30 38 34 31 27 23 22 21 21 20 20 20 19 17 16 16 15 14 12 11 12 11 9 10 9 8 8 8 8 8 8 8 8 7 7 7 7
34 33 34 31 27 31 45 62 32 32 28 25 22 22 22 21 21 20 19 19 17 16 15 13 11 10 11 9 7 7 8 9 9 9 9 9 8 7 7 7 6 6 6
23 23 22 25 22 23 23 38 38 37 30 26 24 23 23 23 21 20 21 20 19 17 16 14 10 8 8 8 7 7 8 7 9 9 9 8 8 8 7 6 6 6 7
16 18 25 27 29 19 39 42 44 41 33 31 28 25 25 24 23 22 22 20 20 18 15 13 10 8 9 10 9 7 6 6 7 7 7 7 7 7 6 6 7 7 7
15 19 31 38 35 27 31 50 41 39 40 33 29 28 28 26 26 25 24 23 21 18 15 12 8 6 6 11 11 9 5 6 5 5 5 6 6 6 7 7 7 7 7
16 17 21 21 20 32 40 19 45 40 38 35 34 32 32 30 28 27 26 24 21 19 16 13 10 6 4 8 9 9 6 5 4 4 5 5 6 6 5 5 5 5 6
13 15 18 19 22 28 19 9 6 31 36 38 32 32 32 32 31 30 28 25 22 17 13 9 10 8 4 5 7 7 6 5 4 4 4 4 4 3 2 2 3 4 5
14 19 19 19 17 12 17 9 5 35 39 36 33 33 32 32 32 30 27 23 16 11 12 13 10 7 3 2 4 4 3 3 3 2 1 1 0 1 1 2 3 5 8
20 21 21 19 16 14 8 7 27 15 25 36 34 32 33 33 32 31 28 21 18 14 11 10 8 5 3 3 3 4 2 1 2 1 1 1 1 2 3 4 6 9 11
17 19 22 17 10 13 19 15 21 18 30 34 36 39 40 35 33 30 26 19 20 16 12 9 6 3 4 6 6 4 1 2 3 3 2 1 1 3 5 7 10 11 12
15 13 12 7 15 14 18 18 16 10 19 35 35 39 41 38 35 30 23 23 20 12 10 7 3 3 5 7 7 5 3 3 3 3 2 2 4 4 4 6 8 12 12
14 7 12 13 20 21 11 18 10 11 31 42 44 41 41 39 31 28 27 21 15 11 9 7 4 3 2 4 5 5 5 5 5 5 6 6 7 7 9 13 15 13 13
12 10 16 13 10 14 12 22 16 15 32 39 42 42 44 39 32 29 26 19 15 15 13 7 5 2 2 4 6 8 10 9 9 9 9 9 10 12 14 18 16 16 17
6 8 20 18 16 15 10 9 16 27 32 44 47 48 47 41 34 30 26 20 17 15 11 9 3 2 3 5 9 12 12 13 13 13 12 12 13 15 18 22 22 21 21
7 5 13 18 15 16 9 16 29 29 40 47 45 44 46 40 32 32 24 19 19 16 12 7 5 5 6 7 11 13 15 17 18 17 16 16 17 19 22 23 22 22 23
10 7 15 17 14 15 19 21 27 32 39 39 38 43 38 38 34 28 23 24 19 16 10 8 10 10 12 14 15 17 15 16 22 23 20 21 21 23 25 24 21 24 26
6 13 14 18 20 20 17 23 32 33 27 23 29 32 41 36 35 28 25 22 18 12 11 11 12 13 15 20 23 24 24 22 21 21 23 25 26 26 29 26 25 24 25
4 10 15 20 18 19 20 21 26 23 25 29 34 39 41 35 31 28 24 21 17 15 16 13 13 15 17 20 25 28 28 30 28 28 28 26 29 29 32 29 32 31 29
6 8 12 16 18 22 23 23 25 27 31 34 37 36 34 31 31 28 22 9 12 8 14 13 11 15 15 21 26 30 38 37 35 32 32 33 29 28 30 31 32 31 32
10 9 12 13 14 16 19 22 22 19 20 20 26 28 28 28 25 22 21 21 19 15 13 15 19 18 17 21 25 32 35 38 38 42 38 33 26 27 30 37 37 37 37
14 11 12 14 15 15 15 17 18 18 17 17 21 23 23 24 24 22 20 19 17 15 14 19 21 22 24 24 27 32 28 24 32 40 45 37 28 25 30 34 34 43 41
16 18 16 15 13 12 13 14 16 17 20 21 23 22 22 21 19 20 21 19 21 18 20 22 24 25 27 27 27 29 30 36 32 33 37 31 32 31 31 39 42 43 39

GFSSE_700_spd_069.txt.gz
Wind_Speed
12 12 14 15 21 13 13 18 28 23 25 27 22 18 14 11 13 14 15 15 14 12 10 8 8 8 9 10 10 9 9 8 7 7 8 8 9 9 9 9 9 9 8
11 11 10 14 19 19 18 25 25 21 27 24 19 17 15 14 16 15 14 14 13 11 10 9 9 10 10 10 9 8 8 7 7 7 7 7 8 9 9 9 9 9 9
9 8 8 11 19 19 26 31 27 26 27 24 22 20 19 17 16 14 14 14 13 12 11 10 10 11 12 10 9 8 7 6 5 5 5 6 6 7 7 7 7 7 7
11 8 8 8 14 17 23 38 35 30 28 25 21 22 22 20 19 17 17 16 15 15 14 13 13 13 12 9 8 6 6 4 5 5 5 5 6 5 5 6 7 7 6
13 14 14 14 18 21 29 29 24 34 31 27 26 24 23 22 20 19 19 18 17 16 15 14 14 13 13 10 7 6 4 4 4 5 7 6 7 6 7 7 8 7 6
19 22 24 23 20 27 27 29 34 37 40 31 26 26 24 23 21 20 20 18 17 16 14 14 15 13 12 10 8 7 7 7 7 8 9 8 7 6 6 6 7 6 6
17 18 18 24 31 31 30 31 43 43 46 35 31 27 27 26 24 22 21 20 18 16 15 16 16 14 11 10 9 9 7 8 8 8 8 7 6 6 6 7 6 6 6
15 17 21 26 32 38 34 40 44 42 35 38 32 29 29 28 27 25 23 21 19 18 17 17 14 11 10 9 9 8 7 7 7 7 6 7 6 6 5 6 6 7 8
14 15 16 20 31 40 20 33 48 55 43 34 36 31 31 30 29 27 25 24 21 19 17 16 13 11 9 10 9 9 7 6 6 6 6 6 6 5 6 7 7 7 7
10 13 17 17 19 39 22 40 22 51 51 46 45 36 35 33 32 30 27 25 22 18 15 15 13 12 13 13 9 8 7 6 5 5 5 5 6 6 6 6 6 6 7
11 12 14 17 20 19 12 10 36 38 46 42 37 38 38 36 34 31 28 25 21 17 13 12 14 10 11 13 11 7 7 5 4 4 4 4 4 4 5 5 6 5 5
13 14 13 16 18 15 7 8 10 22 31 36 38 41 38 37 35 32 29 26 22 17 13 9 10 12 10 8 10 9 8 6 4 4 2 2 3 2 3 3 2 3 5
15 15 17 18 18 15 8 9 10 21 34 38 37 36 38 37 35 32 29 26 22 18 15 7 9 8 6 7 8 8 6 4 3 3 2 2 2 1 1 1 3 5 6
14 12 16 18 16 15 13 9 9 33 38 41 42 43 38 36 33 32 29 26 20 18 13 11 7 5 9 9 7 6 5 3 3 2 2 1 1 1 2 4 5 7 10
11 12 16 11 17 14 21 22 17 24 31 35 42 45 40 37 34 32 30 24 20 14 14 11 7 6 8 7 8 6 4 2 2 2 2 2 1 3 5 6 8 12 14
11 15 12 7 19 17 20 20 21 20 30 36 39 36 39 43 33 33 27 22 19 17 18 11 7 6 5 6 8 7 5 2 2 3 4 3 4 4 6 9 10 12 13
11 13 14 14 19 21 28 20 18 19 27 37 40 39 37 34 35 29 26 25 20 19 12 10 7 5 4 5 6 6 6 5 5 7 6 7 8 9 10 12 14 16 16
10 3 19 21 18 26 16 15 25 19 32 40 40 37 38 37 34 30 28 20 25 17 12 10 7 6 3 4 5 6 7 8 9 10 10 10 12 13 14 16 19 20 18
9 4 24 14 18 18 11 14 22 22 36 43 42 40 41 44 42 29 25 25 22 17 13 10 10 7 3 5 6 9 10 12 14 14 14 15 15 16 17 18 20 20 17
11 13 19 19 17 17 15 18 19 33 40 42 41 43 41 37 42 32 27 29 19 18 15 11 13 10 7 8 9 10 11 16 18 18 19 19 20 19 20 20 22 21 20
9 12 18 17 16 18 18 23 28 24 40 45 45 38 38 36 37 31 30 25 23 19 15 14 15 11 10 13 15 14 16 17 18 18 24 24 22 23 22 24 25 27 24
5 8 13 17 19 20 18 19 21 27 35 40 39 42 44 44 43 34 33 27 24 20 15 19 14 13 15 16 18 19 21 21 21 28 27 28 25 31 30 26 26 28 27
3 5 9 16 18 13 11 16 26 27 32 31 27 39 40 43 39 38 34 28 23 19 19 22 17 14 12 17 17 21 25 26 27 25 29 31 31 34 35 28 26 27 28
4 5 6 9 15 16 17 19 24 27 30 30 27 34 32 39 37 37 31 26 19 21 21 15 17 19 21 20 20 23 24 30 31 26 18 21 30 33 38 34 30 31 33
7 5 6 7 9 12 12 13 13 16 19 22 26 30 34 36 36 32 29 25 25 19 24 23 23 22 23 25 26 26 27 31 31 34 34 30 34 29 35 39 33 37 34
12 11 9 8 8 9 10 11 12 14 17 19 20 21 24 27 29 30 28 26 26 28 26 23 23 25 27 27 27 30 28 30 34 24 35 35 34 26 31 32 37 37 36

GFSSE_700_spd_072.txt.gz
Wind_Speed
14 13 12 18 17 21 18 13 17 21 12 18 21 22 22 18 14 12 12 12 13 11 8 6 8 10 10 11 11 10 8 8 8 8 9 10 11 11 11 11 11 10 11
12 17 19 21 22 21 26 23 22 22 12 17 20 24 23 19 16 14 14 14 14 12 10 9 9 10 10 11 11 10 9 8 8 9 10 9 9 10 10 11 11 11 11
11 14 18 19 21 20 21 16 22 19 18 18 23 24 21 20 18 17 16 15 14 12 11 11 12 12 12 11 10 8 7 7 7 7 8 8 8 9 9 9 10 10 10
16 18 16 19 22 20 16 20 16 21 19 21 23 23 22 19 20 19 17 15 14 12 12 12 13 12 11 10 9 8 6 6 5 5 6 6 7 7 8 8 9 10 10
13 13 17 19 23 23 24 28 27 25 18 25 24 19 26 23 21 20 18 16 13 12 12 12 12 11 11 10 9 7 6 6 5 5 5 5 7 8 9 9 9 10 9
18 20 20 25 31 34 33 35 37 29 21 32 30 24 26 24 23 21 19 17 15 14 15 15 14 11 11 10 8 7 6 6 7 7 8 8 8 9 8 9 9 8 9
24 24 25 25 24 25 33 38 41 37 24 32 41 31 34 27 26 24 21 19 17 17 16 16 15 14 12 11 9 8 7 7 8 9 9 8 8 8 8 8 8 8 8
23 26 23 25 29 30 31 32 37 31 30 34 34 29 32 28 26 25 23 21 19 17 17 18 17 15 12 10 10 9 8 9 9 8 8 9 9 9 8 8 8 8 9
16 20 21 22 22 19 30 32 42 32 39 35 42 34 31 30 29 26 25 23 22 20 20 18 15 13 12 11 11 10 9 9 9 7 7 7 8 8 8 7 8 7 7
12 16 18 19 16 13 14 10 29 38 52 47 47 36 36 32 31 29 28 25 22 20 18 14 13 12 11 12 12 10 10 8 8 7 7 7 8 8 8 7 6 8 8
12 14 11 12 16 13 19 22 24 41 48 42 45 42 36 36 36 31 29 25 23 22 18 16 14 13 12 10 9 10 8 7 7 7 8 8 8 6 6 6 7 6 5
13 14 12 13 16 17 17 20 8 34 42 51 45 42 37 41 33 34 30 26 23 22 19 16 13 13 13 9 8 6 6 6 6 7 6 6 5 5 5 5 5 3 4
14 16 17 17 17 14 14 15 10 25 37 43 44 47 46 40 39 34 30 26 22 21 20 19 15 11 9 10 7 7 7 5 5 5 5 5 5 5 3 3 1 2 5
17 20 21 19 17 16 13 14 11 29 32 40 37 40 40 41 36 32 27 23 20 20 19 15 11 8 9 8 8 8 7 5 3 3 4 4 3 2 1 1 2 3 6
13 17 18 15 15 19 19 18 19 24 37 37 41 42 43 41 36 32 26 21 19 20 16 6 10 12 8 7 8 8 7 5 4 4 4 3 2 0 2 3 5 8 9
12 16 16 11 9 18 18 17 20 26 38 39 46 44 46 41 36 36 28 22 20 16 11 6 12 7 5 8 9 9 7 5 4 4 3 3 2 4 5 5 7 10 11
13 13 13 11 12 16 17 19 21 28 29 34 41 47 38 38 43 40 31 25 21 15 11 15 9 5 5 7 9 7 6 5 4 3 2 4 6 7 9 9 10 13 14
11 12 14 16 13 14 21 23 22 27 33 38 45 53 51 48 44 31 25 24 20 14 13 14 8 5 6 6 6 5 6 6 6 6 5 7 10 11 13 13 14 16 17
12 12 17 21 13 21 23 27 23 29 31 34 41 41 45 44 33 33 31 24 19 15 12 13 8 7 7 7 5 5 6 7 8 9 9 11 14 16 18 19 18 18 18
13 14 20 23 13 23 15 16 20 31 32 37 36 38 35 37 39 38 33 25 19 19 17 14 8 9 10 8 7 7 8 9 9 11 12 14 17 19 20 23 23 22 22
11 15 18 23 20 20 16 14 21 21 26 30 37 33 37 42 40 39 32 26 23 18 18 14 11 10 13 13 13 12 13 14 14 13 14 20 22 20 24 21 25 29 28
8 11 5 17 20 18 23 16 21 30 38 38 38 38 37 39 39 40 30 25 23 21 18 14 13 14 16 18 16 14 15 16 16 16 18 22 21 25 25 26 28 33 30
3 5 6 6 11 16 20 16 21 32 28 35 39 40 39 35 30 34 34 26 23 23 21 17 16 18 22 17 14 15 17 19 16 17 24 23 20 19 22 27 29 32 34
2 4 6 6 7 7 6 13 24 25 23 25 31 25 29 27 29 29 27 27 26 27 23 21 20 23 25 20 24 22 22 23 24 24 24 25 25 21 26 25 25 31 33
6 5 7 9 10 10 10 9 11 18 26 25 23 21 31 30 34 37 33 34 30 26 27 29 24 22 20 25 24 27 29 28 27 29 33 29 31 26 28 37 23 27 32
8 8 8 10 11 11 11 13 14 15 16 19 20 22 26 28 32 35 35 35 30 30 22 21 27 26 27 30 29 31 31 30 29 31 31 31 38 29 30 36 24 33 30

GFSSE_700_spd_075.txt.gz
Wind_Speed
11 18 19 15 11 12 16 14 12 11 11 15 16 14 20 14 10 11 8 7 11 13 10 9 10 11 11 11 11 10 10 9 9 9 9 10 10 11 11 10 10 9 11
13 13 12 18 16 17 16 15 15 13 17 16 17 16 22 17 14 12 12 9 14 14 8 8 9 10 11 11 11 11 11 10 9 8 9 9 10 11 11 11 11 11 11
11 16 22 21 22 20 19 19 17 19 18 19 19 21 19 16 16 14 13 12 13 12 9 9 10 11 11 11 11 10 9 9 8 8 9 8 9 11 10 10 11 11 12
13 16 21 27 28 25 22 22 22 23 19 19 19 20 18 18 16 16 15 14 13 11 10 11 11 11 11 10 10 10 8 8 7 8 8 7 8 10 10 10 12 12 12
16 20 24 28 30 30 25 23 26 26 25 20 14 22 18 17 18 17 16 15 15 13 13 14 13 13 11 10 9 8 7 7 6 7 9 9 9 10 10 11 11 11 11
19 23 25 27 30 20 20 26 24 34 33 23 17 24 20 18 19 19 19 17 16 15 15 15 13 11 10 9 7 6 6 5 6 8 8 9 9 10 10 10 10 10 10
21 24 27 24 26 26 20 19 25 31 36 27 24 28 25 23 26 21 20 20 17 16 16 15 13 11 10 9 8 8 8 8 9 9 10 9 9 10 10 9 9 9 9
23 26 27 25 23 23 22 24 29 38 41 24 28 30 30 27 26 24 22 20 19 19 17 14 13 11 11 10 10 10 10 10 10 9 9 8 9 9 9 8 8 8 9
20 21 27 27 22 23 19 23 20 28 42 35 29 33 36 33 27 28 22 22 21 20 18 16 14 13 13 11 10 9 9 8 8 9 8 8 8 9 8 9 8 8 9
14 14 18 22 21 25 23 19 19 18 37 41 46 37 41 38 30 25 26 24 23 21 19 17 16 14 13 12 11 10 8 7 8 8 8 8 9 9 9 8 8 9 8
15 14 15 17 21 26 22 17 20 27 25 28 47 33 37 36 30 28 27 26 25 23 20 18 16 14 12 12 11 9 9 7 7 8 8 8 9 8 7 8 8 7 6
17 16 17 19 21 21 21 20 24 26 33 32 49 48 44 41 32 30 29 27 25 23 21 19 16 14 12 10 10 10 8 9 7 7 7 7 7 8 8 8 6 5 4
15 15 17 19 18 19 21 22 25 23 29 42 45 45 50 48 39 34 31 28 26 24 21 19 17 14 12 7 6 6 7 6 6 6 7 7 7 7 6 5 3 2 2
16 15 16 18 18 20 21 24 21 16 37 56 44 37 42 42 39 36 32 30 24 23 20 17 16 13 8 5 6 7 5 5 6 7 8 8 6 6 6 5 4 3 2
15 16 17 16 17 20 21 20 16 13 44 45 40 39 44 39 36 34 32 29 27 23 19 16 11 6 5 14 10 9 6 6 6 7 7 8 7 5 4 4 4 4 6
13 13 14 15 16 19 22 16 14 16 26 37 39 42 45 37 38 35 31 28 27 25 18 12 9 7 9 13 11 9 7 6 6 6 6 5 5 4 3 4 5 6 9
12 13 13 15 16 19 19 15 18 23 25 41 33 40 44 38 42 35 31 32 29 26 25 14 11 6 10 11 10 10 10 8 7 7 7 7 7 7 7 7 8 10 11
9 11 14 15 11 14 16 17 21 30 37 30 33 37 38 38 34 37 38 31 24 23 22 14 8 10 11 11 12 12 11 10 8 7 8 9 8 9 10 11 12 14 15
10 13 14 16 17 16 11 19 23 32 33 30 40 40 40 40 39 39 35 33 26 24 21 15 11 12 11 11 11 11 10 9 8 7 8 8 9 11 13 15 16 17 18
11 15 13 14 17 15 17 21 24 38 34 34 43 46 45 46 44 40 36 32 31 25 19 16 13 11 10 8 8 9 8 8 7 7 7 9 11 15 17 17 18 17 20
10 14 3 19 17 16 18 24 19 27 34 38 40 50 52 51 50 43 40 35 33 24 16 17 15 13 12 12 11 11 12 11 10 11 11 10 14 16 19 17 22 22 21
7 11 2 20 14 18 18 13 19 26 34 36 40 42 49 47 47 44 43 37 32 24 19 16 15 14 14 12 13 15 16 13 10 12 13 13 19 19 16 20 23 23 29
3 6 6 14 16 18 20 20 20 25 24 35 39 41 36 37 42 42 39 36 30 25 18 18 19 19 17 17 19 18 16 16 13 18 16 17 18 17 19 20 22 27 22
2 2 4 6 6 13 19 26 22 26 27 30 35 37 36 36 42 38 41 39 33 28 22 19 22 21 21 21 24 25 17 19 20 22 22 20 25 23 22 27 28 26 29
6 6 6 7 5 6 10 13 23 21 27 33 36 36 37 34 28 26 35 35 30 27 20 23 25 24 25 26 29 23 24 21 25 27 27 26 27 29 30 25 30 30 29
8 8 8 9 8 5 5 9 11 24 31 32 28 28 24 27 27 27 28 30 29 24 25 23 26 27 27 31 31 24 27 27 30 30 29 29 31 31 30 33 26 32 34

GFSSE_700_spd_078.txt.gz
Wind_Speed
10 14 17 23 17 10 12 12 13 14 15 16 15 14 14 7 8 5 5 7 10 12 14 12 12 11 12 13 13 13 12 11 10 8 9 9 9 9 9 8 8 9 9
10 16 19 20 18 17 18 16 16 15 13 12 13 13 14 11 9 9 6 9 11 15 12 11 11 12 12 13 13 12 11 11 10 9 9 9 10 11 11 11 10 10 11
6 11 15 19 22 20 20 20 18 15 14 14 14 14 19 15 11 7 9 9 15 15 10 10 12 12 11 11 11 11 11 11 10 10 10 10 11 11 10 11 10 10 11
11 14 24 24 26 26 26 23 22 20 19 18 15 15 19 17 14 10 11 12 17 17 13 12 11 11 11 12 11 10 11 12 11 10 10 10 10 11 11 11 12 12 12
12 17 24 29 33 29 24 25 27 25 26 23 19 17 20 18 16 8 12 15 18 17 14 11 11 11 12 12 11 10 10 10 11 11 9 9 8 11 12 11 12 12 12
17 19 23 30 30 35 27 37 31 27 26 27 25 18 18 16 18 10 11 17 18 17 13 13 12 12 12 11 11 10 10 10 10 8 9 9 9 11 12 11 11 10 11
19 21 21 23 27 31 27 27 23 24 23 26 27 21 19 18 15 9 10 18 19 16 14 13 14 13 12 11 9 8 8 9 9 9 9 10 10 10 11 11 10 10 10
20 20 23 21 29 31 40 19 20 21 22 22 29 26 22 20 16 14 12 17 19 18 16 16 16 14 12 11 10 9 8 7 7 9 10 10 11 11 10 10 10 10 10
19 17 21 22 27 25 21 17 18 23 26 28 29 25 26 25 22 17 15 17 21 18 18 18 15 14 13 11 10 8 7 7 8 8 9 10 11 10 10 9 9 9 11
21 13 17 19 27 29 17 21 22 27 33 37 39 39 30 29 25 27 20 23 22 21 19 18 16 15 13 12 11 10 9 8 9 6 6 8 10 10 10 9 9 10 10
22 15 13 13 16 18 26 25 28 30 34 34 41 32 38 36 30 24 27 25 25 23 21 19 17 16 14 14 12 11 10 9 8 8 6 7 9 9 9 9 10 9 8
17 17 15 19 21 24 21 30 31 33 29 27 33 33 37 40 33 32 33 28 26 26 23 20 18 15 13 12 10 10 9 9 9 9 10 9 8 9 10 9 8 7 7
14 18 20 21 21 21 26 28 32 29 27 28 40 45 61 44 36 33 34 31 29 27 24 22 19 16 14 12 9 9 8 7 8 10 10 10 10 9 9 9 7 5 4
16 15 18 20 21 21 24 25 30 27 30 35 33 46 52 50 39 38 36 32 30 27 23 22 19 16 12 10 10 7 7 8 9 10 10 10 10 9 8 7 6 5 5
15 13 12 15 20 22 23 25 27 28 28 30 42 57 42 40 41 37 38 32 29 27 25 22 18 15 9 8 7 7 8 9 10 9 10 10 10 10 8 7 6 6 6
9 9 10 12 15 19 21 25 26 21 22 24 58 53 47 49 48 36 39 32 30 28 25 21 16 12 11 10 6 11 11 11 10 10 11 11 9 8 7 7 6 6 6
9 10 10 13 16 21 24 23 20 12 12 35 49 42 33 49 40 37 39 32 31 26 27 22 18 14 7 10 14 13 12 12 11 11 12 11 10 9 8 8 8 9 10
11 12 13 14 16 19 19 17 16 17 24 18 31 33 34 39 34 37 32 32 33 32 23 19 15 11 15 15 14 15 14 12 10 10 9 9 8 8 10 10 11 12 13
11 13 18 19 16 16 13 17 21 19 25 26 34 31 38 41 44 42 47 45 40 30 25 21 17 17 14 13 14 15 14 12 10 10 9 9 8 9 10 11 13 15 16
12 15 19 19 17 16 18 12 19 23 28 30 32 27 32 45 51 46 44 36 32 29 31 28 22 17 15 14 14 14 13 12 10 10 9 10 10 10 13 16 17 17 20
10 13 18 5 13 12 17 15 17 23 30 28 24 27 35 38 35 40 44 41 30 28 28 31 25 18 15 14 14 12 12 12 11 11 11 11 12 14 16 18 17 21 21
8 10 10 9 12 13 13 17 19 27 31 29 24 30 28 33 37 40 35 36 34 32 36 29 24 19 16 17 16 16 14 14 12 13 14 16 16 16 21 18 20 20 21
6 5 2 8 10 16 13 19 22 28 32 33 31 33 39 41 41 41 42 43 41 38 33 27 24 22 18 18 17 17 17 17 16 17 15 20 16 18 22 25 20 23 25
7 3 1 5 9 13 14 20 18 25 35 32 33 32 34 44 45 47 35 36 37 39 33 27 21 19 19 18 20 19 24 22 16 19 19 21 22 22 23 24 27 27 25
8 6 4 5 7 8 12 16 20 24 26 33 34 37 34 33 37 48 44 41 40 36 34 29 27 26 21 20 23 25 27 28 21 25 20 25 26 25 28 29 29 27 26
10 8 7 6 6 6 7 12 21 25 25 32 35 41 34 34 35 37 40 45 45 42 39 32 29 24 23 26 25 27 29 31 26 26 25 25 27 30 28 28 29 30 31

GFSSE_700_spd_081.txt.gz
Wind_Speed
13 10 14 17 21 18 13 14 13 13 14 14 15 13 8 6 4 3 2 7 8 11 12 12 13 12 12 12 12 12 11 11 11 11 10 10 10 10 8 6 6 7 8
13 11 13 16 20 17 14 14 16 16 16 14 13 12 10 8 6 3 2 6 8 10 11 12 12 11 10 12 11 10 11 10 10 10 10 10 9 8 7 8 8 9 10
12 13 12 16 21 19 21 17 20 20 18 14 12 12 12 8 6 4 2 5 9 15 12 9 9 9 10 12 12 12 12 12 11 10 10 9 10 10 9 9 9 9 10
12 13 13 15 20 23 23 22 25 24 22 19 16 14 13 9 8 5 5 5 12 15 10 9 9 10 10 12 13 14 13 13 11 10 8 9 9 10 10 10 10 11 12
12 14 16 18 26 31 30 26 28 27 25 24 18 15 14 12 10 12 7 7 15 17 12 10 9 11 13 13 13 14 12 11 10 9 9 9 9 11 12 11 12 12 12
12 16 16 20 23 31 32 31 30 30 28 28 21 18 14 15 12 16 9 11 14 18 13 12 12 13 13 13 12 12 11 10 6 7 9 10 10 12 13 12 12 12 12
17 16 19 20 21 28 39 37 31 30 36 28 22 21 18 17 14 15 11 14 14 16 16 14 13 14 14 14 13 11 10 8 8 7 8 10 11 12 12 12 12 11 11
22 19 18 22 24 30 25 38 47 30 37 32 25 25 23 19 18 23 11 14 16 16 16 15 15 15 15 14 13 12 11 9 8 8 8 10 12 13 13 12 12 12 11
25 23 22 23 23 24 27 37 37 23 26 22 19 18 25 24 20 17 18 17 16 16 17 16 16 16 15 14 13 12 10 10 11 10 10 9 10 11 13 12 11 11 11
27 25 24 21 19 20 24 24 17 11 18 25 22 18 20 25 25 22 18 17 16 16 17 18 18 16 15 13 12 11 11 11 11 11 12 11 10 11 12 11 10 11 10
27 23 19 19 17 18 16 22 19 17 16 24 21 25 28 24 24 24 21 20 19 19 20 19 18 16 15 15 14 13 13 11 12 13 12 13 12 11 11 10 10 10 9
22 16 15 18 16 17 13 14 22 22 22 22 27 27 29 33 29 29 26 28 21 21 21 20 19 18 16 14 14 14 12 13 12 12 13 13 13 12 11 11 11 10 8
20 17 15 19 19 19 17 20 20 24 26 26 27 32 37 39 32 32 29 28 26 25 24 23 20 19 17 15 14 13 13 12 10 12 13 12 13 12 12 11 10 8 7
19 18 18 19 20 23 22 23 25 23 28 30 31 32 34 36 42 38 33 32 29 28 25 23 22 21 18 16 14 13 11 11 11 11 11 12 12 13 11 10 9 8 7
14 17 18 18 19 20 23 27 28 28 29 32 33 31 29 35 40 32 36 37 31 29 27 26 23 20 19 17 15 13 13 13 10 12 12 13 13 12 11 10 8 8 8
10 11 13 14 16 18 21 25 27 28 31 32 34 35 38 45 45 36 36 33 36 32 30 27 24 21 18 16 14 13 13 12 12 13 13 13 12 10 9 7 8 7 8
10 10 12 13 16 19 23 23 26 25 28 26 31 38 38 43 46 39 41 35 34 34 32 28 25 22 18 16 15 14 12 11 13 13 12 11 11 10 9 9 8 9 10
13 13 13 14 16 20 23 25 26 23 19 22 19 41 43 46 46 43 43 39 34 33 31 29 26 22 18 16 15 13 13 13 12 10 11 11 11 10 10 10 10 11 12
15 14 16 19 19 23 19 16 17 15 10 18 24 42 46 51 44 53 45 37 33 34 33 28 25 20 16 15 15 14 14 14 13 12 10 10 10 11 10 11 12 13 14
18 16 17 21 23 18 13 10 14 12 14 26 25 26 39 31 26 39 46 38 38 41 39 36 28 22 16 18 17 16 16 15 14 13 12 11 12 11 12 13 14 15 17
17 15 16 20 9 11 14 18 14 24 20 20 23 28 23 22 38 41 40 51 54 45 36 32 22 25 23 22 20 16 16 15 14 13 12 12 12 13 14 16 16 18 18
14 12 14 10 4 11 10 14 14 16 18 27 24 26 20 20 43 47 49 45 37 31 37 30 27 27 21 20 18 17 16 16 14 14 14 15 16 18 17 17 18 20 23
12 10 10 7 6 9 12 15 15 15 20 27 28 21 16 18 27 40 42 42 44 38 34 33 31 29 25 22 20 20 18 18 15 18 18 20 18 17 19 19 20 20 21
11 10 8 6 7 9 12 12 15 15 19 26 25 23 15 18 24 33 36 41 38 38 34 30 35 33 31 26 24 24 22 18 20 18 16 17 18 18 19 20 25 25 26
9 10 9 6 6 8 11 12 17 16 19 27 24 24 24 21 26 31 41 44 44 39 36 32 42 38 32 31 26 20 18 21 21 23 22 23 21 21 21 22 27 27 29
10 9 9 7 6 6 7 10 16 17 22 26 28 23 23 27 24 31 42 45 41 42 41 41 36 35 33 32 30 25 24 24 24 24 26 28 25 27 27 26 30 29 32

GFSSE_700_spd_084.txt.gz
Wind_Speed
10 7 11 10 15 18 19 15 14 14 12 13 12 9 7 8 7 6 7 9 11 11 11 12 11 9 10 9 9 11 11 10 9 10 12 11 10 8 6 8 7 7 6
12 8 9 10 14 16 18 15 15 15 17 15 11 9 10 10 8 6 5 9 9 12 11 10 9 9 10 11 12 12 12 12 11 11 9 8 9 8 8 10 9 8 9
16 12 10 11 13 16 19 18 17 19 20 17 14 12 13 11 9 6 4 6 8 10 12 10 10 9 11 14 14 14 14 12 10 8 9 9 10 10 10 10 11 10 11
17 13 7 10 10 16 23 23 21 21 22 19 15 14 15 13 11 8 5 5 10 12 12 11 10 11 13 15 14 15 15 13 11 10 11 10 11 12 12 12 12 12 12
18 16 14 13 15 19 29 27 25 24 25 22 21 19 17 17 13 10 6 6 12 13 11 9 11 12 13 14 14 14 12 10 9 11 11 11 12 12 12 13 13 14 13
15 16 15 15 19 22 28 32 28 27 28 27 25 22 19 16 14 12 8 8 13 14 12 7 10 12 13 13 14 13 11 10 10 10 11 11 12 13 15 15 15 14 14
14 17 16 17 20 22 24 30 33 33 27 34 34 29 21 19 15 14 10 9 14 16 14 10 12 13 14 15 15 12 12 11 10 11 11 12 13 13 14 14 14 13 13
19 20 22 19 19 24 24 27 34 35 49 26 31 24 24 21 18 15 17 11 14 16 15 13 13 14 16 16 15 13 11 10 9 10 12 13 13 14 14 15 14 13 12
23 25 25 22 22 22 26 25 32 32 28 28 32 44 29 25 22 17 18 18 16 18 16 15 15 16 16 17 15 12 12 9 10 12 13 14 14 14 13 13 13 12 12
24 25 27 26 23 21 22 21 24 26 26 31 23 32 28 24 28 22 22 18 21 18 16 16 17 17 17 16 15 14 12 12 10 11 12 14 15 14 13 12 12 13 12
23 24 23 21 17 18 19 16 16 12 8 6 17 22 21 16 19 21 19 23 23 19 18 18 19 18 18 18 17 18 17 14 12 12 13 13 14 14 14 13 13 13 11
22 23 19 16 16 15 17 11 12 11 12 12 17 27 30 20 13 21 22 22 20 21 19 20 20 19 19 20 20 17 15 15 11 14 13 13 13 14 13 12 12 12 11
19 20 18 15 15 18 16 14 13 10 15 16 12 13 22 23 21 19 24 31 26 23 23 23 22 21 20 18 18 17 15 14 11 12 13 13 14 13 13 13 12 11 10
18 16 18 17 16 18 18 16 17 16 13 16 18 19 23 24 23 21 26 28 30 26 25 24 24 22 20 19 19 16 17 12 13 14 13 13 13 13 13 13 12 11 10
16 13 12 15 17 17 19 22 19 17 18 18 22 22 24 23 26 31 27 27 37 30 24 26 25 24 22 21 18 19 18 12 14 12 13 14 15 15 14 13 12 9 8
17 11 9 9 11 14 17 19 21 22 21 21 23 27 28 31 29 35 44 37 33 30 28 27 27 25 23 22 20 18 18 11 13 14 14 14 15 15 13 11 10 8 8
18 16 10 10 11 14 16 18 20 23 27 29 28 30 32 32 33 26 35 40 34 31 31 30 28 26 25 23 20 20 16 14 13 13 13 15 14 13 12 11 10 9 7
18 19 13 14 15 19 20 21 22 23 24 26 29 30 32 34 31 29 33 37 33 37 36 32 28 28 26 23 21 18 16 15 11 11 13 14 13 12 12 12 10 9 10
18 18 17 16 19 23 26 26 26 24 24 24 29 29 28 28 41 44 43 34 31 37 39 34 32 30 26 24 21 18 16 13 11 11 14 14 14 13 12 11 10 11 11
19 18 18 17 22 24 22 18 13 16 16 15 20 21 28 23 40 47 39 42 42 40 36 33 34 32 29 25 20 18 13 14 14 13 13 14 14 13 12 12 11 11 12
19 18 15 18 20 14 3 6 8 7 8 4 7 19 29 37 46 42 40 40 45 45 37 35 36 31 30 23 14 20 17 16 16 16 16 14 12 12 13 12 14 13 13
18 16 12 16 15 10 6 8 7 8 12 8 20 21 14 20 23 34 28 49 45 42 43 44 42 32 24 29 30 20 22 20 19 18 16 15 15 15 16 18 15 15 12
15 14 12 12 13 9 6 7 8 11 15 16 19 19 17 20 16 17 30 48 45 41 40 40 34 33 26 27 24 23 24 23 19 19 18 19 19 19 16 17 18 17 19
14 13 12 11 10 10 8 3 7 8 8 12 13 17 16 8 5 9 30 42 47 44 39 41 34 34 33 28 25 24 24 24 23 21 20 21 18 20 21 17 18 19 22
15 13 13 10 7 8 6 5 6 8 9 9 12 22 15 11 9 16 22 38 42 42 42 40 35 36 32 27 26 28 27 24 25 21 18 22 21 17 24 23 23 23 22
16 13 13 11 7 7 5 4 4 6 9 11 15 17 15 14 14 15 21 29 36 38 38 38 37 32 29 31 30 30 30 28 25 24 24 21 20 22 25 24 24 24 28

GFSSE_700_spd_087.txt.gz
Wind_Speed
4 4 5 5 8 12 16 19 17 14 13 14 15 12 11 10 10 10 13 14 13 13 13 12 12 12 12 13 13 12 11 10 9 10 11 11 11 8 7 8 9 8 8
7 8 6 5 8 12 17 19 14 15 15 16 16 12 12 12 11 9 9 12 13 13 13 13 11 11 12 12 14 14 13 12 11 10 10 12 12 11 10 10 10 10 9
13 13 12 9 9 13 17 20 19 16 16 17 17 13 13 14 12 10 8 10 13 13 12 12 11 11 12 13 14 15 15 12 11 12 13 12 11 11 11 11 11 10 9
22 19 16 12 10 13 17 23 20 19 18 19 19 15 16 16 15 12 10 11 14 13 13 13 13 13 14 16 16 16 14 13 12 11 12 12 12 12 12 11 11 11 11
24 22 19 15 15 16 17 23 27 22 20 21 21 18 19 19 17 14 12 11 16 16 12 12 13 14 15 16 15 15 16 13 13 14 13 12 11 11 11 11 11 12 13
23 18 15 15 17 16 20 22 28 29 23 26 28 23 22 24 23 16 13 13 17 17 12 10 13 14 15 15 16 16 15 14 14 12 12 11 11 11 12 13 14 14 14
19 17 17 17 17 16 18 24 26 30 32 33 31 32 29 31 29 20 19 15 20 18 14 11 12 14 16 16 16 15 13 13 12 14 13 13 13 13 14 15 15 15 14
23 22 22 22 21 21 21 20 23 27 26 34 39 44 21 28 23 19 19 19 22 22 17 14 14 15 15 16 14 14 13 12 13 14 14 14 14 15 16 16 16 14 13
27 24 24 24 22 23 25 23 25 24 30 33 39 39 48 20 25 22 24 24 21 22 20 15 17 16 15 14 15 15 12 12 13 14 14 14 14 16 16 17 15 14 14
26 26 26 23 23 24 25 23 21 25 29 31 35 34 27 29 30 25 21 24 25 22 20 17 17 18 17 16 16 15 12 13 13 13 13 14 15 16 16 15 14 13 14
24 26 26 24 18 18 19 17 19 23 23 17 16 28 36 29 33 30 24 20 24 25 20 19 20 19 18 18 17 16 16 14 14 14 14 15 16 17 17 15 14 14 14
18 21 23 20 17 13 12 15 18 14 16 9 3 6 25 41 27 27 19 21 21 23 23 21 21 22 20 20 20 19 14 15 15 15 15 15 14 15 15 14 14 13 13
20 19 21 17 15 11 12 15 16 13 14 11 9 10 27 25 21 12 18 29 26 27 24 25 25 23 22 24 22 20 14 15 15 15 15 14 15 15 14 13 13 13 13
18 17 18 15 14 12 11 14 15 16 11 15 12 10 8 9 17 13 15 26 28 28 29 26 26 25 25 24 22 21 15 15 17 15 15 14 15 15 14 14 14 14 13
16 15 14 13 8 11 11 13 15 15 15 14 16 16 16 18 20 19 14 13 22 28 27 27 27 27 28 25 23 20 16 16 16 16 15 15 15 15 14 14 14 13 12
15 15 12 11 8 7 8 10 12 15 18 17 18 17 18 21 21 22 21 17 21 36 29 29 29 29 28 25 25 21 17 18 19 18 17 16 15 14 15 15 13 12 10
16 16 12 11 10 10 12 12 13 15 18 21 21 21 21 20 26 26 22 22 21 29 35 32 32 32 30 27 27 23 20 17 17 17 17 16 14 14 14 14 13 11 10
16 16 13 13 14 14 15 17 18 20 22 23 26 26 26 26 27 27 26 20 30 38 42 33 32 31 29 28 28 24 20 17 17 17 16 15 14 14 13 13 13 11 9
16 14 14 14 16 18 22 22 22 23 25 25 27 30 32 32 31 29 32 21 37 39 43 37 35 33 31 31 28 25 20 18 18 17 15 14 15 15 15 15 13 11 11
17 16 15 14 15 17 20 18 13 14 19 26 25 29 31 32 34 32 39 36 40 35 40 40 39 37 33 31 29 25 21 18 16 16 15 16 15 16 16 15 13 12 12
19 16 16 14 14 15 14 11 6 5 8 13 18 21 21 25 29 35 46 48 34 31 42 41 39 37 35 31 30 26 20 16 12 14 17 17 16 16 16 14 14 13 12
17 16 15 13 14 12 10 9 8 8 8 13 15 16 17 19 29 29 42 44 43 39 41 40 37 38 38 33 28 26 18 19 24 19 19 18 17 17 18 17 15 15 14
17 15 15 12 14 10 8 6 7 3 4 9 11 16 7 4 21 43 43 40 34 43 42 42 40 41 37 35 31 24 26 34 24 24 21 18 17 17 17 16 15 16 14
18 16 15 13 12 9 6 4 3 5 5 7 9 8 9 7 17 21 24 36 26 42 48 44 41 37 33 36 30 30 28 23 24 24 23 22 21 20 20 21 21 17 18
20 17 15 14 11 8 4 3 4 4 8 7 15 18 16 13 16 16 22 29 33 43 45 48 47 42 42 32 28 27 26 26 26 25 25 20 19 20 22 24 21 22 21
23 18 15 13 11 7 4 2 2 3 4 5 16 24 21 14 11 11 19 24 27 45 44 42 33 34 37 34 33 30 30 30 31 30 26 25 22 19 18 23 23 24 22

GFSSE_700_spd_090.txt.gz
Wind_Speed
3 1 1 3 4 7 10 14 17 17 16 15 15 14 14 12 12 13 14 14 13 13 13 13 14 14 14 14 14 14 14 13 9 14 14 14 13 11 9 10 10 8 8
1 5 8 5 7 9 13 16 18 18 17 16 17 16 14 14 13 12 13 15 15 14 15 15 16 16 16 16 15 15 15 13 11 13 13 14 13 11 10 10 9 8 8
10 15 14 10 8 12 15 17 21 19 17 17 18 18 17 17 16 15 13 14 16 16 16 17 17 16 16 16 16 17 15 12 12 12 12 13 13 11 11 10 10 9 10
19 22 22 19 15 12 16 19 22 24 18 19 19 21 19 18 20 18 16 15 17 18 18 18 17 17 17 17 18 18 15 13 11 11 13 13 12 11 11 10 10 10 10
23 24 23 22 19 15 16 20 23 25 23 20 20 24 21 21 21 19 18 16 17 20 19 18 18 18 17 18 18 16 15 13 12 14 14 13 12 11 11 11 11 11 11
20 19 17 17 15 16 16 20 22 25 29 26 25 26 25 25 22 22 19 16 20 20 18 17 18 18 18 17 17 15 13 13 12 13 13 12 11 12 12 11 10 11 12
20 19 21 20 17 17 17 19 22 27 29 32 31 28 32 30 28 23 21 20 23 21 18 18 18 17 18 18 15 12 11 11 13 13 13 13 13 12 12 12 12 12 11
18 22 22 21 21 22 22 23 21 24 27 28 31 30 36 31 36 21 23 23 25 24 20 19 18 17 17 16 14 12 12 13 13 14 14 14 13 12 12 14 13 13 12
22 23 23 21 21 22 24 25 25 25 25 27 29 31 33 38 28 27 23 30 26 22 22 18 18 18 18 17 15 14 14 14 15 15 15 13 13 14 15 15 14 13 13
19 23 24 24 23 23 24 25 26 26 26 27 28 32 34 36 32 37 27 25 27 31 22 19 19 19 19 18 16 16 16 16 15 15 14 14 14 15 15 14 14 14 13
20 22 23 23 21 22 21 23 23 24 24 26 29 31 35 35 37 36 34 31 33 29 25 21 20 19 21 19 17 16 16 16 16 14 14 15 15 15 15 15 15 14 14
26 19 20 19 18 16 18 18 19 19 20 24 22 22 19 35 36 40 33 29 36 34 31 24 22 23 21 20 17 17 15 16 15 15 15 16 16 15 16 16 15 14 14
20 17 17 16 16 12 16 17 16 16 18 20 20 21 26 23 29 35 33 30 34 34 32 30 26 26 25 21 19 19 18 17 16 16 17 17 16 17 17 16 14 14 14
17 16 15 15 15 10 14 16 17 18 17 17 17 14 7 32 30 31 27 22 26 33 33 27 24 26 25 22 21 18 17 16 17 18 19 18 17 17 17 16 15 14 13
16 16 14 13 12 7 13 16 17 18 18 18 15 15 11 12 20 16 12 7 24 30 30 29 28 27 27 24 23 19 19 18 19 20 19 18 18 17 16 15 14 13 13
16 15 15 13 12 8 6 11 16 18 18 19 18 17 16 16 19 22 14 11 15 32 32 31 29 28 30 28 25 22 21 20 21 22 20 18 16 15 15 14 14 13 13
18 14 15 13 13 11 9 10 13 16 19 22 22 20 20 21 20 24 15 15 17 17 31 31 31 32 34 30 28 26 23 20 22 22 20 18 16 16 15 14 14 14 14
15 14 14 14 15 15 14 13 15 19 20 22 24 25 24 23 22 27 21 23 16 25 25 35 35 36 35 32 30 26 23 22 22 22 20 19 17 16 16 16 15 15 14
13 12 14 15 16 16 16 16 17 22 25 25 25 27 26 25 24 21 33 22 28 31 27 40 38 35 35 34 30 27 23 22 22 22 21 19 18 17 17 16 16 14 13
12 13 14 16 17 16 17 16 14 15 22 27 28 30 31 31 35 32 34 28 27 33 32 42 41 38 35 34 32 26 25 22 22 21 20 19 18 18 18 17 16 15 15
15 12 13 16 16 16 16 14 12 10 11 19 27 30 34 33 32 38 30 39 32 28 43 44 41 38 39 38 34 32 29 22 20 19 20 16 18 18 19 19 17 17 16
18 12 14 15 15 16 14 12 11 8 7 10 15 23 29 33 38 41 36 39 41 34 47 49 43 42 38 39 38 34 30 26 24 21 20 19 22 19 20 18 17 17 17
21 12 14 14 14 14 13 11 8 4 4 10 10 12 19 23 31 36 40 38 49 37 44 36 45 43 44 41 37 33 32 32 26 25 19 21 24 23 21 19 18 18 18
21 13 15 15 15 13 12 10 8 5 4 8 13 20 21 24 22 29 30 28 52 43 45 36 43 43 42 39 37 30 30 30 23 24 27 25 27 24 24 22 21 20 18
19 15 14 15 15 13 11 10 8 7 6 6 15 21 18 21 15 16 31 43 40 31 32 40 37 40 38 41 40 41 35 32 27 25 24 28 27 25 22 20 19 19 18
21 18 16 16 14 12 9 8 7 7 5 4 9 17 18 14 14 17 26 27 31 25 39 40 42 39 36 34 34 34 35 28 30 26 27 29 27 24 25 24 23 24 20

GFSSE_700_spd_093.txt.gz
Wind_Speed
6 3 1 2 4 5 7 9 12 15 17 18 18 16 15 14 13 13 14 13 14 14 13 12 13 13 13 13 14 15 14 11 10 12 13 14 13 11 10 10 8 6 6
3 1 4 8 8 9 10 12 14 15 19 19 19 18 17 16 15 14 14 14 14 14 14 14 15 15 15 15 15 15 15 13 11 16 16 15 14 11 9 9 9 7 6
6 10 12 16 13 10 13 14 15 17 20 20 20 19 17 16 15 15 15 15 16 15 16 16 17 18 18 17 17 17 16 14 12 14 15 13 12 10 10 10 10 8 7
11 16 20 18 16 14 14 17 17 20 21 20 20 21 20 19 17 15 15 16 17 18 19 19 19 19 19 19 18 18 16 13 12 13 13 12 11 9 9 9 9 9 9
17 19 14 12 12 13 15 17 19 21 24 23 25 22 23 22 20 19 16 16 18 19 20 21 21 21 21 20 19 18 16 14 12 12 12 11 10 10 11 11 10 9 9
18 14 13 15 13 13 14 15 18 22 25 27 24 24 26 26 25 24 20 17 18 20 21 21 22 22 22 20 19 17 14 12 10 10 10 11 11 11 11 10 10 10 10
17 15 17 17 16 15 16 17 18 21 25 29 27 29 28 32 30 30 28 25 18 23 21 22 24 24 20 19 17 15 12 11 10 10 12 12 12 11 10 10 10 11 10
15 17 18 19 18 17 18 21 21 22 23 27 30 31 31 31 35 36 34 34 22 24 23 23 22 21 19 17 15 14 13 11 11 11 12 13 12 11 11 12 12 11 10
13 15 18 19 18 19 21 22 24 25 25 26 28 30 34 35 34 25 22 27 25 27 25 24 22 21 17 17 15 14 14 13 13 13 13 13 12 12 12 12 12 11 9
14 17 23 22 20 21 22 23 24 25 26 26 27 27 29 35 39 38 26 33 32 29 27 24 23 21 21 18 16 15 14 14 14 13 14 12 13 13 13 13 13 11 10
19 20 22 22 22 20 22 25 25 26 28 28 28 28 30 31 31 34 30 26 37 34 30 24 23 21 21 19 18 17 16 15 13 14 13 14 13 14 13 13 12 11 11
20 20 19 20 20 18 20 22 25 25 26 26 25 26 30 32 28 33 32 30 39 30 30 27 24 24 23 21 20 19 18 16 14 14 14 15 15 14 14 15 13 12 12
20 21 18 19 17 17 16 18 22 20 21 21 22 23 24 28 35 29 33 31 35 32 29 29 27 26 24 22 20 20 20 16 14 16 16 17 16 16 16 15 13 13 14
21 20 17 19 16 15 13 15 18 18 19 19 19 20 26 31 39 32 44 40 39 32 37 35 32 30 26 23 22 20 20 18 18 16 17 17 17 17 18 16 15 15 15
22 20 17 19 16 14 12 14 18 17 18 19 19 20 23 9 18 26 30 42 42 38 36 32 31 30 26 23 23 21 18 16 18 18 18 18 18 19 17 15 14 15 16
22 18 16 19 16 14 13 12 16 19 19 21 20 20 17 8 13 26 31 27 34 34 32 32 31 29 25 25 25 22 20 20 20 19 20 19 19 17 16 16 15 16 15
23 21 16 17 16 16 14 15 16 16 18 20 21 22 18 14 4 12 20 11 17 32 32 32 30 29 26 27 25 23 23 22 21 20 20 20 19 18 18 16 16 15 15
20 13 15 15 16 17 16 18 18 19 20 21 23 23 21 20 18 21 19 17 14 28 32 31 31 30 30 29 26 26 24 24 23 20 22 21 20 18 17 17 16 16 15
17 12 12 14 16 17 17 17 19 22 24 24 25 25 26 24 24 27 30 19 22 18 27 31 33 33 33 31 28 27 25 23 22 22 24 23 21 20 18 17 17 16 16
21 18 13 14 16 17 17 17 19 21 21 24 26 27 30 27 27 28 29 23 28 22 26 21 34 36 34 30 29 28 26 24 22 22 24 24 21 20 20 19 18 16 16
24 25 13 13 15 16 17 18 19 18 18 17 21 29 26 32 31 35 28 29 34 21 31 29 33 39 38 36 35 33 31 27 25 21 23 22 21 18 19 18 18 18 18
19 25 16 13 13 15 16 17 16 16 14 14 15 24 32 33 32 35 38 29 32 32 35 39 38 41 40 38 39 36 35 31 26 24 23 24 23 20 22 21 20 20 20
19 21 16 13 13 15 15 16 15 13 12 13 13 12 24 34 37 36 41 33 39 34 42 40 38 43 44 44 41 38 37 32 32 30 25 23 22 23 27 23 23 23 21
20 21 20 14 13 14 15 15 14 12 11 13 13 14 19 25 33 35 42 40 39 31 32 40 40 45 43 43 43 40 35 31 31 28 23 23 22 25 26 24 27 22 21
27 22 22 14 13 14 13 13 12 12 10 12 14 14 16 24 27 33 35 41 37 44 38 52 44 48 50 43 44 45 41 32 29 27 29 25 24 26 27 26 23 24 24
32 26 25 17 13 14 12 12 11 11 9 9 12 17 20 21 22 25 25 30 29 35 45 46 44 44 41 52 54 34 28 36 38 32 35 28 26 23 21 25 27 28 26

GFSSE_700_spd_096.txt.gz
Wind_Speed
6 6 3 1 2 5 7 7 8 10 12 14 16 17 18 16 15 15 13 12 11 12 12 11 13 12 13 12 13 13 13 12 9 10 9 13 14 13 12 13 10 8 7
5 3 2 6 8 7 8 10 11 12 13 15 17 18 17 17 17 16 16 14 13 13 13 14 12 13 13 13 14 14 14 11 11 14 14 15 13 11 10 8 7 7 7
2 6 10 13 14 11 9 11 13 13 15 16 18 19 17 17 16 15 16 16 14 13 14 15 15 15 15 15 15 15 15 12 10 15 15 14 12 9 8 9 8 8 8
8 12 13 10 7 6 8 10 13 15 17 19 19 20 22 19 17 16 15 15 16 16 15 15 16 16 17 17 17 15 14 13 12 15 14 13 11 9 8 9 9 9 8
14 15 11 8 9 7 7 10 15 16 19 20 22 23 22 21 20 18 17 17 16 17 18 17 18 18 19 19 18 17 16 13 10 12 14 12 10 8 9 10 9 9 9
13 11 10 10 11 10 9 10 13 17 20 21 25 25 25 24 25 21 20 20 20 20 18 19 18 19 20 20 18 17 15 13 13 12 11 11 9 9 10 10 10 9 9
13 10 10 11 12 12 12 12 14 15 19 25 27 26 28 27 25 23 22 22 23 20 19 18 20 20 21 20 19 15 15 14 12 12 11 11 10 10 10 9 10 10 10
13 9 10 13 15 15 14 16 16 18 20 23 27 27 29 29 33 21 29 31 26 24 19 19 23 22 20 21 18 17 16 14 13 11 10 11 11 10 10 10 10 11 10
11 10 14 18 17 16 17 18 19 20 23 25 25 27 29 30 29 28 23 27 32 24 21 24 24 23 22 20 19 18 16 15 13 12 11 9 9 10 10 11 12 11 10
13 15 15 15 17 18 18 20 22 23 24 26 26 27 27 27 28 31 30 31 33 15 28 24 25 23 23 22 19 17 17 15 13 11 12 10 11 11 11 12 12 11 10
16 17 16 15 16 19 20 22 25 25 25 26 26 27 27 27 28 30 28 30 25 19 32 31 28 26 23 21 21 18 16 15 13 12 12 12 12 13 13 13 12 10 10
16 15 16 14 16 19 19 22 24 25 25 25 27 28 28 29 29 29 27 27 26 20 27 33 29 28 25 24 23 20 18 16 14 12 14 13 14 15 15 14 13 13 12
16 13 15 16 18 19 19 20 19 18 20 23 25 26 26 28 30 32 30 29 27 32 33 36 34 30 26 23 21 21 19 16 15 15 14 14 17 17 16 16 16 14 14
16 15 16 17 20 20 18 17 16 15 15 17 21 24 24 24 24 30 34 31 28 35 38 38 35 26 25 23 23 22 20 20 16 16 13 17 18 16 16 16 15 14 14
19 17 16 17 21 20 17 15 14 14 13 17 22 23 23 22 23 29 29 33 35 37 39 33 34 29 26 24 25 24 20 19 18 17 16 18 17 16 17 16 15 15 15
17 16 16 18 21 20 17 15 15 12 13 17 21 24 22 20 21 15 18 35 38 33 43 38 32 27 25 26 25 22 21 19 18 18 20 19 18 17 17 16 16 15 15
16 17 20 18 20 18 17 17 17 15 14 16 19 24 22 20 17 3 13 25 43 28 33 31 29 27 25 26 25 23 19 19 21 19 18 18 17 17 17 16 16 15 15
19 18 13 17 18 17 17 18 20 18 18 18 20 23 21 19 15 7 9 21 29 38 33 34 31 28 26 25 25 28 28 24 22 19 18 19 19 18 18 17 16 15 15
22 19 16 17 18 18 17 19 19 17 21 20 21 24 24 20 17 15 10 10 15 19 33 32 31 29 27 26 26 25 25 24 21 19 20 22 19 20 19 17 16 16 17
26 23 19 21 19 18 17 19 18 18 20 20 17 22 28 24 22 21 21 18 20 19 28 31 28 25 24 24 27 28 26 24 22 21 22 24 23 23 21 19 17 17 17
29 25 21 21 19 17 16 16 17 17 18 19 18 18 27 27 27 25 25 31 26 23 22 26 32 32 30 30 28 28 29 28 27 25 24 26 24 23 21 19 17 17 17
26 25 25 20 20 17 14 16 16 16 16 17 16 15 20 25 29 25 28 32 33 32 26 29 29 27 30 32 32 32 33 33 31 27 25 26 25 23 17 17 18 19 19
26 25 24 21 19 18 14 15 16 14 14 14 14 15 15 26 26 27 31 27 34 36 26 30 39 34 34 35 36 38 38 38 31 27 25 24 24 20 25 30 27 30 22
23 25 23 22 21 19 15 14 16 14 13 13 14 13 14 18 34 34 32 32 34 39 34 32 36 42 36 39 39 40 38 34 32 29 25 21 25 30 28 23 24 22 25
23 21 22 21 21 18 15 14 15 12 12 12 14 13 15 18 23 34 39 36 33 35 41 36 35 40 43 40 40 40 39 38 37 31 29 27 28 23 19 26 23 24 23
23 25 27 23 21 18 15 13 15 12 10 10 13 14 14 13 19 24 29 34 41 36 36 37 34 35 39 42 41 41 42 42 48 52 31 26 27 30 31 25 28 29 26

GFSSE_700_spd_099.txt.gz
Wind_Speed
7 6 6 4 2 4 6 6 8 8 8 8 9 11 13 14 14 12 10 10 9 9 8 7 9 10 11 12 12 13 13 12 11 11 10 10 12 12 11 11 11 11 10
6 8 6 5 7 9 8 9 10 10 9 10 11 12 14 14 15 14 14 13 11 10 11 9 10 11 12 11 11 12 12 11 11 11 11 13 12 12 13 12 9 8 7
10 8 10 12 12 10 9 9 10 10 11 11 12 12 16 15 16 15 16 14 13 11 12 12 11 12 13 12 12 12 12 9 9 11 11 13 11 10 10 10 8 8 7
7 10 12 11 5 3 5 7 10 10 12 13 15 16 14 17 16 17 16 15 13 12 12 13 12 12 14 13 13 13 13 10 10 13 12 13 12 10 9 10 9 8 8
7 11 10 5 5 3 4 6 9 12 13 15 17 18 20 17 20 15 17 17 15 14 12 13 14 13 15 15 15 15 13 11 10 13 15 14 13 10 8 9 9 9 9
7 13 7 6 6 6 5 7 9 11 15 17 18 21 22 22 22 18 21 19 17 16 14 13 14 16 17 18 18 15 14 14 12 13 14 13 11 9 8 9 9 10 10
7 9 5 7 9 10 9 9 11 12 13 17 20 22 23 23 17 16 30 19 16 19 20 16 16 17 19 19 18 16 15 16 13 12 12 13 12 10 9 9 9 9 10
7 4 6 11 11 11 11 11 12 14 16 17 20 22 20 23 27 31 23 20 18 21 27 23 16 18 19 20 17 16 17 16 15 13 13 14 12 11 10 9 9 9 10
8 6 9 10 13 12 12 14 15 17 17 20 21 24 24 23 27 24 22 25 23 23 24 34 28 20 18 20 18 19 18 17 16 14 15 13 12 11 11 10 10 11 10
8 9 12 10 11 13 15 17 17 18 21 21 24 25 25 24 25 22 24 22 22 24 27 30 30 22 20 22 21 21 20 19 17 16 15 15 13 11 11 10 12 12 11
10 11 13 10 11 13 16 20 20 21 23 24 25 25 25 26 24 22 23 22 22 26 27 20 27 24 24 24 23 22 20 19 17 16 16 16 14 15 11 12 13 12 13
13 13 12 12 12 13 16 20 22 23 22 24 26 24 25 24 24 24 24 25 25 25 21 22 32 24 25 25 26 23 21 20 16 16 17 17 15 14 13 13 13 14 14
14 15 13 15 14 13 16 19 21 20 17 19 23 24 24 25 26 25 25 26 24 24 22 24 28 29 28 26 23 22 22 19 17 16 16 16 16 14 14 15 15 15 14
15 15 16 16 15 14 16 17 19 17 12 14 20 23 23 21 22 24 26 25 29 28 26 27 29 31 29 25 23 22 22 19 17 17 17 18 18 15 14 14 15 14 13
16 17 16 16 16 16 16 16 17 15 11 13 17 18 18 19 22 23 23 26 32 34 29 33 26 33 29 26 25 24 22 21 19 17 18 19 17 13 16 16 16 15 14
13 15 15 15 16 17 16 16 16 16 12 12 16 16 19 20 20 21 21 30 26 36 30 33 31 38 30 28 26 25 24 23 20 18 19 19 17 15 17 17 17 15 15
13 14 15 14 15 16 16 17 16 16 15 14 16 17 20 20 20 20 19 19 25 31 34 31 34 37 35 28 26 26 24 22 20 19 19 18 16 18 17 17 17 17 16
18 16 16 13 14 16 16 18 18 18 16 16 17 18 21 19 19 21 17 13 19 34 33 33 40 33 32 25 25 26 24 21 18 18 18 18 18 19 18 18 17 17 17
22 21 19 16 15 14 16 18 19 19 17 16 17 19 23 21 19 20 17 12 17 29 32 38 38 35 31 26 28 26 26 24 21 21 18 19 21 21 20 18 17 17 17
30 25 23 21 19 16 16 19 18 17 18 17 16 16 20 21 21 21 17 10 5 22 32 30 37 35 30 25 26 26 27 25 26 23 21 21 22 21 22 21 19 18 19
38 34 29 24 20 19 17 16 16 16 17 17 15 15 18 19 20 23 20 17 10 7 26 29 34 33 29 37 27 28 30 29 28 26 25 23 23 24 23 21 20 20 19
36 35 34 27 24 21 18 16 16 16 16 16 15 14 15 17 24 27 25 22 21 18 15 23 29 29 23 24 28 29 31 31 30 29 26 23 23 25 24 24 21 20 22
35 34 34 28 26 22 19 17 15 15 15 14 14 13 14 15 16 22 29 27 26 28 24 27 26 29 26 30 33 32 34 35 31 29 27 24 25 27 27 25 23 21 20
32 34 35 29 26 24 21 16 15 15 14 13 13 13 12 14 14 25 24 29 28 28 37 33 26 27 26 27 29 34 34 32 32 32 31 27 23 26 26 24 22 23 29
33 37 34 31 28 25 23 17 16 15 14 12 11 12 11 12 16 20 28 25 32 28 33 39 37 32 32 37 35 33 30 37 35 31 30 29 27 22 23 25 24 25 26
30 36 31 30 27 25 22 17 15 14 13 11 10 11 11 12 15 21 27 33 31 31 30 33 34 36 39 32 36 35 36 39 40 38 37 32 41 24 21 23 25 27 30

GFSSE_700_spd_102.txt.gz
Wind_Speed
6 7 8 9 9 7 7 7 9 9 9 7 7 7 8 8 8 10 9 7 6 5 5 6 8 9 10 11 11 12 12 11 11 11 10 9 12 12 11 11 11 11 9
4 8 10 10 9 9 10 11 11 11 10 8 7 8 8 10 10 11 10 11 9 8 7 7 8 9 10 11 11 12 11 10 10 10 10 11 12 11 10 11 11 10 10
2 10 10 11 15 17 13 11 10 9 9 8 9 9 9 12 12 12 11 12 11 9 9 8 8 9 10 11 11 11 12 10 10 10 11 13 12 10 11 10 9 9 8
5 8 11 12 10 7 7 7 7 8 9 10 11 12 12 13 12 13 13 14 12 11 11 10 8 9 11 12 11 10 11 9 10 12 13 12 11 9 8 10 9 7 7
4 8 11 5 5 4 5 6 6 8 10 11 13 14 15 13 14 16 13 15 14 13 11 11 10 10 12 13 12 12 12 9 9 11 12 12 10 10 11 11 10 9 7
5 8 7 4 5 4 4 5 6 7 10 13 15 15 17 17 17 20 17 18 14 13 12 14 12 12 12 14 14 14 12 11 11 12 15 13 14 12 12 10 9 9 9
5 6 3 5 6 7 6 5 6 8 10 11 14 17 18 21 22 16 22 16 20 21 16 14 14 14 14 16 16 15 13 14 14 15 16 19 15 15 11 8 8 8 9
6 5 5 8 8 8 7 7 7 8 10 12 15 17 19 17 20 18 17 19 27 25 20 17 21 20 17 17 17 16 16 16 16 16 15 17 16 14 12 9 9 10 9
6 5 8 9 8 8 8 10 10 9 11 13 15 18 20 20 19 22 21 25 21 16 18 22 26 31 23 18 18 18 17 17 17 18 16 16 15 13 12 10 10 10 10
7 7 9 11 8 8 9 11 12 12 12 16 18 20 22 22 23 23 23 25 23 20 16 20 24 18 26 27 20 18 19 19 18 18 18 16 16 15 13 12 12 11 10
10 9 10 13 11 11 11 12 13 13 14 17 21 23 23 24 24 25 24 24 22 20 22 23 24 26 29 27 21 19 20 21 19 19 20 17 17 16 15 14 12 11 11
12 13 13 14 14 13 12 13 15 14 14 18 21 23 24 24 24 24 24 23 23 21 23 26 26 28 25 27 25 22 22 22 21 21 20 19 18 17 14 15 14 12 12
13 15 17 15 17 15 14 14 15 14 13 17 18 20 23 22 22 24 25 25 24 23 25 25 29 24 30 26 24 23 24 25 23 21 19 20 19 16 17 14 14 12 13
18 18 19 18 18 16 15 15 15 14 11 12 12 16 19 22 24 24 23 23 23 22 23 29 22 21 27 26 25 26 26 24 22 21 20 19 19 18 16 17 13 12 13
24 20 18 19 19 18 17 17 15 15 11 11 12 14 17 20 21 21 21 22 23 24 25 27 26 22 28 26 26 27 26 23 21 21 20 20 20 17 16 16 13 14 14
22 20 18 20 20 19 18 17 15 15 12 12 14 13 16 18 20 21 22 22 22 24 29 30 26 27 30 28 27 25 25 24 20 20 20 21 20 17 19 18 15 16 15
26 22 18 19 20 18 18 18 16 15 13 13 17 16 17 19 20 22 22 22 21 24 24 29 33 29 33 31 28 27 24 25 23 21 20 21 19 20 20 18 16 17 17
32 28 21 20 20 18 18 18 17 16 15 14 16 17 20 19 20 22 24 22 20 22 21 34 34 34 27 37 30 29 28 27 25 23 21 19 20 21 22 19 18 19 19
35 32 27 23 21 20 18 17 17 17 17 15 16 19 20 20 21 22 23 20 22 25 22 31 35 32 38 38 31 29 28 27 26 23 21 20 21 21 22 19 21 20 20
37 36 31 27 25 23 21 17 16 16 16 14 16 20 20 20 22 22 23 20 20 13 19 35 37 37 35 39 32 30 29 29 29 26 23 22 22 22 23 21 23 22 22
38 39 35 32 28 25 24 18 15 15 16 14 16 19 19 18 19 25 23 19 16 8 14 25 32 42 35 40 34 32 29 32 30 26 25 22 23 24 24 25 25 25 24
42 41 41 35 33 29 26 22 17 17 18 14 16 18 18 17 14 18 22 23 18 13 11 25 25 43 40 43 35 33 33 33 32 28 24 23 23 23 25 26 27 26 25
43 42 43 39 36 35 29 26 21 18 18 15 16 18 16 16 15 18 25 25 25 18 11 12 21 37 39 36 30 35 37 33 28 27 27 27 26 25 27 29 29 28 26
42 40 43 37 38 37 33 28 22 17 18 14 16 18 15 15 15 17 20 29 27 23 25 19 16 19 23 28 26 25 37 35 28 31 29 29 28 26 27 28 28 27 27
38 42 43 38 38 38 35 29 24 18 18 15 15 17 16 13 15 17 20 23 28 28 26 28 24 26 29 30 28 26 30 34 30 32 32 31 28 29 27 29 27 26 26
43 43 40 38 37 37 34 30 26 20 19 15 15 16 16 14 15 18 19 25 25 32 28 27 30 33 29 30 31 31 29 31 28 31 35 35 29 29 29 28 23 27 29

GFSSE_700_spd_105.txt.gz
Wind_Speed
10 7 8 10 10 11 9 9 8 9 11 9 8 6 5 5 4 4 4 5 5 3 2 3 5 7 8 9 9 9 9 9 8 7 7 6 8 10 10 9 8 7 7
13 8 6 10 10 10 10 10 12 12 11 11 9 8 7 6 6 6 6 6 5 6 4 4 5 7 8 8 9 8 8 8 8 9 8 9 10 10 8 8 8 8 6
10 8 6 10 12 13 16 18 13 12 12 12 10 9 8 8 8 7 7 8 7 7 6 5 6 7 8 8 7 7 8 8 8 9 10 11 12 10 9 9 7 6 5
7 6 8 11 12 10 8 9 10 11 11 11 11 10 10 9 10 10 11 11 8 8 7 8 8 7 7 8 8 8 8 9 10 10 11 12 12 10 10 7 5 6 6
5 5 8 5 3 3 4 5 6 8 9 10 11 11 11 11 12 12 13 11 12 10 9 8 8 7 7 9 9 8 10 9 9 11 13 12 11 10 8 8 9 8 6
4 6 6 3 2 2 2 4 5 6 7 9 10 12 13 14 15 15 16 13 13 11 10 11 10 10 9 10 10 10 11 9 9 12 14 13 11 10 9 9 8 10 9
4 6 2 4 4 3 2 3 4 6 7 7 9 13 14 17 17 16 11 11 17 10 15 18 16 11 13 12 11 13 12 10 11 8 15 17 14 13 11 10 7 8 9
5 6 4 4 6 5 4 4 4 6 8 9 9 13 16 18 18 23 20 12 18 19 17 19 20 14 18 17 16 15 15 12 9 8 20 17 17 16 13 10 8 8 9
6 6 6 4 4 5 5 5 5 6 8 10 11 12 17 17 17 16 16 15 18 24 15 18 20 22 20 20 19 18 17 15 16 21 21 15 13 14 13 12 10 9 10
9 8 7 7 6 7 7 7 8 7 9 11 13 14 17 18 20 21 21 20 20 21 17 20 23 27 18 21 22 22 19 18 21 14 23 15 15 15 14 12 11 10 11
12 12 10 10 11 10 10 9 10 9 10 12 14 16 19 22 22 24 24 23 21 21 19 20 25 28 26 17 29 24 21 20 20 24 24 17 17 17 15 14 12 12 14
15 15 14 13 13 15 12 11 12 12 11 12 14 15 19 23 23 25 26 24 23 22 21 23 27 27 25 26 26 28 24 24 21 26 22 19 18 17 16 14 13 12 12
20 20 17 16 17 17 16 14 14 14 13 12 12 13 16 20 23 23 24 23 24 23 24 24 24 26 23 24 32 29 24 22 22 27 24 19 19 19 17 15 14 14 13
26 23 20 20 19 19 19 14 16 15 14 13 13 11 13 18 19 22 23 23 25 25 25 25 20 23 27 20 30 28 26 22 24 28 22 21 21 18 16 15 16 16 15
28 29 23 23 21 22 21 18 19 17 15 14 15 12 11 16 18 23 26 26 26 24 25 23 24 23 25 27 32 28 27 21 25 28 24 21 21 20 18 18 17 16 17
28 32 29 27 22 23 23 21 21 18 16 13 15 15 13 15 19 22 25 26 24 23 23 23 25 21 22 27 29 29 28 27 34 26 22 21 21 21 19 18 18 18 17
30 29 33 27 23 24 23 22 22 19 16 15 15 16 15 17 17 21 24 24 23 23 24 24 26 28 28 23 31 30 28 31 29 28 23 21 21 21 20 19 20 21 21
27 27 35 32 26 25 24 22 22 21 18 16 16 18 16 17 19 22 25 24 23 23 25 24 26 23 29 26 31 32 31 28 29 26 23 22 21 22 20 22 21 22 20
30 29 34 34 28 26 25 23 22 21 18 19 18 19 17 17 20 22 25 25 24 26 27 27 30 27 36 33 34 31 32 27 27 25 24 19 20 21 22 22 22 23 21
31 31 36 38 33 29 27 26 25 20 17 18 18 19 19 18 19 22 24 25 25 24 25 25 26 25 35 36 36 32 31 25 27 27 23 23 22 21 21 22 23 23 23
33 36 44 41 38 33 30 28 26 18 18 18 18 19 21 18 19 20 23 22 25 24 19 21 23 26 31 34 42 38 27 29 28 27 25 23 22 22 22 23 25 24 24
31 44 45 44 42 35 31 30 29 22 21 20 20 19 20 19 19 19 21 23 27 24 20 18 16 28 34 45 47 40 34 30 28 31 27 24 23 22 23 25 27 26 26
34 38 49 46 45 42 34 33 32 27 26 23 20 20 20 19 18 15 19 20 20 23 20 15 20 25 37 47 38 41 37 35 27 24 26 24 24 23 23 25 27 26 26
36 35 43 47 47 45 40 36 32 31 26 21 22 20 20 19 17 19 20 17 23 22 19 12 11 23 30 46 38 43 36 36 34 30 29 24 24 25 25 26 28 27 28
34 35 40 46 48 50 46 40 35 33 29 26 24 20 19 20 18 20 21 20 26 25 25 25 14 10 32 37 31 29 25 22 28 28 30 30 32 31 28 26 26 26 29
29 36 36 45 48 48 45 40 37 34 32 28 23 22 20 19 19 20 22 21 23 26 26 24 25 21 20 31 24 24 25 23 20 32 31 30 28 27 26 28 28 29 28

GFSSE_700_spd_108.txt.gz
Wind_Speed
14 16 13 8 6 7 8 9 9 10 10 10 8 6 8 7 6 4 1 1 2 2 2 2 3 4 5 6 6 5 5 5 5 5 6 6 6 7 8 8 7 6 7
12 17 11 4 4 8 8 9 10 10 11 11 10 8 9 9 6 5 4 3 1 0 1 1 3 4 6 6 6 6 6 6 6 6 6 7 8 8 8 7 7 6 5
13 17 9 4 6 10 11 13 15 15 12 11 11 9 10 9 8 8 7 5 3 4 4 2 3 4 6 5 6 5 6 7 8 9 9 8 9 9 8 8 8 5 5
15 15 7 6 8 9 9 8 8 10 11 11 10 10 10 10 11 11 8 8 7 6 7 6 5 6 6 6 6 6 7 8 9 9 9 10 11 10 9 9 6 4 4
15 10 7 4 3 3 3 4 5 6 8 9 9 10 11 11 12 11 10 10 8 9 7 6 6 7 7 6 8 8 8 8 9 10 10 12 11 10 10 8 6 4 4
11 7 5 0 2 1 1 3 4 5 6 7 8 9 12 13 12 11 9 9 7 9 7 5 6 8 7 7 8 8 8 8 8 11 12 14 12 12 9 8 7 8 7
9 6 3 1 2 1 2 3 4 5 5 6 7 9 11 13 14 12 11 9 7 7 9 7 8 14 11 9 9 11 12 11 10 12 14 12 13 11 11 10 8 8 9
7 6 4 1 1 1 0 2 4 4 5 6 7 9 12 12 14 15 12 14 10 12 15 12 15 14 16 8 10 13 14 11 14 13 16 19 17 15 11 11 9 8 9
9 5 5 2 0 1 1 2 3 5 6 7 9 9 10 11 13 14 15 18 13 11 18 14 18 17 20 20 16 17 15 16 18 20 27 17 15 19 15 11 10 9 10
12 9 8 6 4 3 4 4 4 6 7 8 10 10 12 13 14 16 16 17 16 16 17 20 19 17 19 22 24 21 19 19 21 17 16 16 14 14 13 11 10 9 10
16 13 11 10 9 8 6 6 7 7 9 9 11 12 13 16 18 19 19 20 20 20 18 23 21 21 21 22 17 22 23 21 24 24 21 18 16 15 13 12 11 11 11
21 17 15 15 11 12 10 8 8 9 10 11 11 13 14 16 18 20 21 21 21 21 23 24 24 20 22 22 20 20 29 26 26 27 22 24 17 15 14 15 13 12 12
25 22 21 18 16 15 13 12 11 10 12 12 12 12 14 14 17 20 21 23 23 23 24 25 24 20 20 21 25 24 26 34 28 28 17 19 17 16 16 15 15 13 14
31 28 25 22 21 17 16 15 14 13 13 13 13 13 12 13 14 16 20 22 22 23 24 26 23 21 20 22 23 30 30 33 30 27 32 24 17 17 18 16 16 16 16
28 33 28 26 23 19 20 18 15 17 16 15 14 14 13 13 13 14 18 20 22 24 25 26 23 21 24 19 22 18 34 30 28 23 28 23 21 21 18 19 17 18 18
27 30 32 31 26 23 21 23 18 18 18 16 16 14 15 14 15 15 19 21 24 26 27 26 24 23 21 24 24 28 29 26 26 21 26 22 22 22 21 20 19 19 19
29 30 35 35 30 27 23 25 23 21 20 17 15 16 15 16 18 17 19 22 23 26 26 25 25 25 21 22 25 37 29 28 28 26 25 20 22 22 22 20 19 20 19
28 31 37 37 34 30 25 26 25 24 21 16 17 16 17 17 18 20 20 21 22 24 24 24 24 22 25 22 25 36 30 30 33 32 26 23 23 22 22 21 20 21 20
32 30 37 37 40 31 29 28 27 26 24 18 17 17 17 17 18 20 22 20 23 24 25 25 24 26 21 22 27 30 33 33 34 34 25 23 22 21 21 21 20 22 21
37 32 36 39 41 33 32 30 28 29 26 20 17 16 17 18 18 20 21 21 22 25 25 25 26 25 27 25 29 32 35 33 32 33 26 25 24 21 22 23 21 22 23
38 32 37 44 43 43 34 33 30 30 26 18 20 18 18 19 19 19 21 21 23 24 25 25 24 21 28 29 31 27 39 31 38 31 26 26 23 21 21 20 21 22 23
37 38 38 44 45 48 35 34 33 33 26 21 22 19 19 21 21 20 22 18 21 25 25 24 27 24 22 27 39 38 38 33 29 27 23 24 23 20 21 20 21 22 23
27 36 42 43 49 51 39 36 36 37 29 27 26 21 19 22 23 22 23 15 19 23 25 24 25 21 19 26 35 48 39 37 34 28 23 23 22 19 17 19 19 21 22
33 36 35 39 43 49 42 39 39 38 32 27 30 24 21 22 24 22 23 17 18 22 18 22 21 20 13 27 34 42 47 39 29 23 19 23 25 23 20 18 21 22 23
35 31 38 36 38 43 42 41 40 41 34 30 32 28 24 23 24 23 24 19 17 21 22 19 20 11 17 21 39 51 43 34 31 29 28 24 23 21 20 19 20 24 25
39 43 36 36 42 43 47 42 43 41 39 34 34 32 25 25 24 24 22 22 19 20 22 21 23 21 13 20 40 41 35 37 37 21 23 30 30 27 26 28 27 27 25

GFSSE_700_spd_111.txt.gz
Wind_Speed
5 10 11 14 9 7 8 9 9 9 9 8 8 5 8 11 11 9 7 6 7 6 6 6 5 7 7 7 7 6 6 6 6 6 6 6 5 7 8 9 9 8 8
9 11 13 14 8 6 8 9 9 9 9 10 9 8 8 11 11 11 9 7 5 5 5 4 5 6 6 7 7 7 7 7 8 7 6 5 6 7 9 8 8 8 8
10 12 14 16 8 6 9 11 11 12 13 11 10 9 9 12 14 13 10 8 6 5 5 5 5 5 6 6 7 7 7 7 7 6 7 6 8 11 10 9 9 7 8
11 12 15 15 10 8 9 11 10 10 10 9 9 10 10 11 13 14 11 9 7 6 5 4 5 6 6 8 8 8 8 8 8 7 7 9 11 12 10 11 10 8 7
12 14 14 13 8 4 5 6 7 8 8 8 9 10 11 12 13 13 11 10 9 7 5 4 3 5 6 7 8 9 8 8 9 9 10 11 12 11 11 10 7 5 6
16 14 12 10 6 3 4 6 7 7 7 8 9 10 12 12 13 11 11 9 7 6 7 6 3 3 4 5 7 8 8 9 8 10 11 13 13 13 11 9 7 7 7
15 13 10 7 5 3 3 5 5 6 6 7 8 10 11 12 13 11 11 10 10 8 8 8 4 5 9 7 6 8 9 9 9 11 11 15 17 14 12 9 8 8 10
13 13 10 7 4 2 3 4 5 5 6 7 8 9 10 11 13 13 12 13 12 11 10 13 11 8 10 11 9 10 11 11 11 12 13 12 11 12 11 11 11 9 11
12 11 10 7 4 3 2 3 4 5 6 7 8 8 8 10 13 14 14 15 13 15 12 16 15 12 11 17 8 9 13 13 13 13 15 14 15 16 15 11 10 10 10
13 12 10 9 6 6 4 4 5 5 5 6 7 8 9 11 13 15 16 16 15 16 11 14 16 16 13 14 18 22 19 19 20 19 17 22 14 14 16 16 13 11 11
17 15 13 11 10 10 8 6 6 6 6 5 6 8 9 12 14 16 17 17 18 18 17 16 16 16 14 16 15 18 22 27 25 21 16 14 22 17 14 15 13 13 13
19 19 17 16 14 12 12 9 8 7 7 7 6 8 9 11 15 17 19 19 20 22 19 19 19 18 15 16 18 20 13 26 26 20 21 19 17 15 14 15 14 15 14
23 23 22 20 17 15 14 15 11 10 9 9 9 8 10 10 12 16 20 21 20 21 21 20 20 17 15 15 17 19 21 20 28 27 23 21 21 19 17 17 15 16 15
32 27 26 25 22 19 17 18 14 14 12 12 11 10 10 10 10 13 16 20 21 21 21 21 19 18 16 18 18 19 22 20 27 32 27 21 21 20 18 17 17 17 15
31 37 28 29 25 21 20 17 18 16 15 14 13 11 11 11 10 12 13 17 19 20 21 21 19 18 19 20 21 17 23 21 27 37 25 25 26 18 17 18 17 19 17
24 28 30 28 25 26 25 19 19 19 18 17 15 13 12 12 12 13 16 15 18 20 22 22 20 21 22 23 24 21 25 21 25 34 27 28 27 25 20 18 20 18 17
27 28 33 30 28 27 28 24 19 21 20 19 17 16 13 14 13 14 17 17 19 20 22 24 22 22 23 24 26 20 21 20 31 30 26 25 24 20 20 21 21 19 19
32 32 35 34 32 31 30 29 23 20 21 20 19 19 16 16 16 15 17 18 19 22 23 23 22 23 24 25 22 25 25 31 31 28 26 25 20 22 20 23 22 21 20
33 33 36 38 38 33 31 30 28 23 22 22 21 19 19 18 17 16 17 19 20 23 23 23 23 23 24 23 17 22 19 30 28 29 31 27 22 18 20 23 22 22 21
35 36 37 38 39 34 34 33 31 29 24 23 22 19 20 19 18 17 17 20 19 22 24 23 23 24 24 24 26 24 25 31 29 32 30 28 22 20 23 24 22 22 22
30 38 38 37 37 33 37 37 33 33 28 24 22 20 20 19 19 18 18 21 20 21 23 23 25 26 26 24 26 28 28 34 34 34 32 29 22 25 24 23 22 23 22
28 37 41 42 40 38 37 38 37 34 33 28 24 22 24 20 19 19 20 20 20 21 23 22 25 26 27 27 24 26 29 42 34 34 35 32 28 28 24 23 21 22 23
25 23 42 43 40 37 36 39 40 38 35 34 29 25 27 22 21 20 20 21 20 21 22 20 24 26 27 26 27 28 41 44 41 35 31 33 29 26 24 23 21 21 21
33 31 31 39 46 39 39 42 47 45 39 36 32 27 28 27 25 21 21 21 21 21 22 20 20 24 25 26 25 37 38 46 47 38 34 32 25 24 22 20 20 20 20
36 34 39 33 37 43 45 43 45 49 40 38 33 30 29 30 29 25 21 22 21 22 23 21 20 23 22 19 24 34 43 44 39 32 29 31 30 28 23 20 18 18 17
42 40 37 41 32 38 42 43 48 47 38 39 35 32 30 32 32 28 22 21 22 23 23 21 19 21 20 17 18 28 36 43 43 36 29 24 24 24 25 22 19 20 20

GFSSE_700_spd_114.txt.gz
Wind_Speed
12 9 6 9 10 10 11 11 11 10 10 10 9 9 7 12 13 11 9 8 8 6 6 6 7 7 8 9 9 7 7 7 7 7 6 5 5 5 4 6 7 7 7
9 6 9 10 10 10 11 11 11 11 10 10 10 11 9 11 14 13 12 9 7 5 4 5 6 8 9 9 9 9 8 8 7 6 6 6 5 6 8 8 8 8 8
7 7 7 11 11 10 11 12 13 13 12 12 13 12 10 12 14 15 13 10 6 6 6 7 7 8 9 9 10 10 9 8 7 7 7 7 8 10 10 10 9 9 9
7 8 9 11 13 10 10 12 13 14 15 14 13 12 12 12 14 15 13 11 9 7 7 6 7 7 8 9 10 10 9 8 9 9 9 9 10 12 11 11 11 9 10
9 10 13 12 12 9 9 10 12 12 12 11 12 11 12 12 13 15 14 13 12 9 8 8 7 7 7 7 8 9 8 8 8 9 9 10 12 13 12 12 11 9 8
13 14 13 12 10 8 8 10 10 10 10 11 12 12 12 12 14 15 14 14 13 12 10 9 7 6 6 6 6 8 8 8 8 10 10 10 13 14 13 12 9 7 8
17 15 13 11 8 9 8 9 9 9 9 10 11 12 12 13 14 15 14 14 13 12 11 11 10 8 7 6 8 8 8 9 10 10 10 13 16 16 14 11 9 9 10
21 20 14 10 8 8 9 7 7 7 8 9 9 10 11 13 15 16 15 16 15 12 12 10 12 10 8 8 12 11 7 10 10 11 13 15 18 18 13 10 10 9 10
15 17 14 10 9 8 7 6 5 6 7 8 9 9 9 12 14 15 16 17 16 14 14 14 14 13 10 8 12 7 9 14 12 12 15 15 15 14 11 10 9 10 11
13 16 16 12 10 8 7 6 5 6 6 7 8 8 10 11 13 15 17 17 18 16 15 13 12 15 12 11 13 13 9 11 14 16 17 14 12 13 13 15 14 12 12
15 16 16 13 12 11 9 7 6 7 7 6 7 9 10 11 13 14 17 18 19 19 18 16 13 13 13 13 13 15 17 19 25 22 23 18 16 20 12 13 15 14 13
19 18 17 15 15 14 13 10 8 8 8 8 8 8 9 10 13 15 17 19 20 20 20 18 16 14 14 14 14 18 17 15 17 26 27 22 17 19 20 15 14 14 13
19 21 20 18 19 18 16 14 11 11 10 10 9 8 9 9 11 13 16 20 21 21 22 21 17 14 14 15 16 15 18 14 15 25 28 25 21 19 15 16 15 15 13
29 26 25 24 23 22 19 18 15 13 13 12 11 9 10 10 10 11 13 16 19 21 21 22 19 17 16 16 18 18 19 18 17 14 27 31 24 22 22 18 15 16 15
24 27 33 29 26 26 24 22 20 16 14 15 14 12 12 10 11 12 12 14 16 19 20 21 20 18 17 18 20 21 21 19 22 22 26 30 32 21 19 17 18 17 17
23 21 23 26 23 29 27 26 23 19 17 17 17 15 13 11 11 12 13 13 14 16 18 20 20 19 19 20 21 24 24 25 23 23 25 31 29 24 20 16 18 19 18
25 23 25 22 23 23 24 27 27 22 19 19 18 17 16 13 12 12 14 15 15 17 19 22 22 22 23 23 23 24 25 23 25 22 25 29 27 25 26 22 20 21 19
30 30 30 27 24 24 24 25 27 27 23 22 21 19 17 15 14 14 15 16 16 18 19 22 24 26 24 23 23 25 24 28 24 23 28 30 29 23 23 22 23 21 21
36 35 34 33 30 28 28 28 27 25 28 27 24 21 18 17 15 16 15 16 16 18 20 21 23 24 25 23 24 23 23 22 28 24 29 30 28 23 21 23 22 23 22
46 44 43 39 38 33 32 32 31 29 27 29 26 24 20 18 17 16 16 16 17 18 20 21 22 23 25 24 25 25 26 23 26 21 32 30 29 25 21 23 22 24 23
45 49 49 46 40 40 36 37 34 32 27 24 29 28 23 20 19 17 17 18 17 18 18 20 21 24 26 26 27 27 28 27 24 21 29 31 29 25 23 24 23 23 23
25 31 37 42 41 39 34 30 34 32 30 28 27 31 26 23 23 18 18 18 18 19 19 21 21 22 28 28 28 28 29 26 28 26 31 34 31 28 25 24 25 24 25
39 40 36 36 37 39 36 35 38 36 37 32 29 32 30 28 27 22 21 19 19 20 20 20 19 21 26 29 29 31 31 36 30 25 36 38 36 28 24 24 26 25 26
35 39 40 38 37 35 40 37 35 39 40 33 30 29 33 32 30 28 24 21 20 21 21 21 20 20 26 29 29 32 32 33 32 38 36 35 37 35 26 27 26 25 26
38 39 40 39 37 36 40 38 42 39 36 32 31 33 36 38 34 33 28 26 22 21 23 22 22 21 24 27 26 25 31 34 36 38 40 36 34 35 29 27 26 27 26
38 38 40 40 40 42 39 39 40 41 36 32 33 36 38 39 36 33 30 28 23 22 23 23 23 24 24 27 26 24 22 22 35 35 47 43 34 30 33 32 25 23 22

GFSSE_700_spd_117.txt.gz
Wind_Speed
9 8 8 5 9 12 8 11 12 10 10 10 12 12 10 9 11 10 7 6 6 4 4 5 6 7 9 9 9 8 8 6 6 5 5 3 3 5 5 6 6 7 7
11 10 6 5 9 13 8 10 12 11 11 12 12 12 11 9 10 11 8 8 6 6 5 4 6 7 9 10 10 9 8 7 6 5 5 4 5 5 6 7 7 7 7
13 12 4 6 9 13 11 11 12 13 13 13 13 13 12 10 11 12 11 9 8 8 9 7 7 7 9 10 10 10 9 8 8 8 8 7 7 7 7 7 8 8 8
15 7 4 5 10 12 12 11 13 14 15 14 14 14 13 11 11 13 13 11 9 8 9 8 8 8 9 9 10 10 9 9 9 9 8 8 8 8 8 9 9 9 8
9 5 6 9 10 11 11 10 11 13 13 14 14 14 13 12 11 12 13 12 11 9 9 9 9 9 9 9 8 8 9 9 9 9 9 10 9 10 11 10 10 9 9
6 7 9 9 7 8 9 8 9 9 11 11 12 13 13 12 12 12 13 14 13 10 10 10 9 9 9 7 7 8 9 8 8 9 9 10 10 12 13 13 11 8 8
10 10 10 10 8 6 7 8 8 8 10 11 12 13 12 12 13 13 14 15 15 13 11 11 9 9 8 6 6 6 7 7 9 8 10 12 12 15 17 15 11 9 8
11 11 13 15 11 6 5 6 7 7 9 9 10 11 12 12 13 14 15 16 16 14 13 11 9 10 8 6 7 8 8 6 7 10 11 13 14 19 24 16 10 9 8
10 10 11 11 10 7 5 4 5 6 7 8 9 9 11 11 13 14 16 17 17 16 14 13 11 11 11 9 9 9 11 10 10 12 13 14 15 24 16 11 8 9 9
13 10 10 11 10 8 7 5 5 5 6 7 7 8 10 11 12 14 17 18 18 17 16 15 14 13 12 10 9 10 14 13 12 12 13 14 17 18 18 13 11 10 10
19 16 16 12 12 9 9 8 7 6 6 6 7 8 9 11 12 14 16 18 19 18 18 17 15 13 12 12 11 9 10 12 14 15 17 16 14 16 12 12 12 14 12
24 20 16 16 15 12 11 11 10 8 6 6 7 7 9 11 12 14 16 17 19 18 19 19 19 16 14 13 13 11 14 16 14 16 26 27 19 19 21 15 15 12 12
22 21 17 18 17 15 14 14 14 11 8 6 7 7 9 11 12 12 15 17 18 18 19 20 20 18 16 15 15 14 15 15 15 14 14 23 23 21 16 14 13 13 12
24 22 20 20 21 19 18 17 17 16 12 9 8 8 9 11 13 12 14 15 16 16 18 20 20 21 20 19 18 17 18 17 16 15 11 20 26 27 26 18 15 15 13
23 21 22 25 25 23 22 21 21 20 16 13 12 9 10 11 12 14 13 14 14 15 17 19 20 21 22 21 21 20 19 19 17 16 19 20 24 32 28 21 19 16 16
23 22 23 24 29 28 27 26 24 23 20 18 17 13 12 12 12 13 14 14 14 13 14 17 20 21 22 24 24 23 22 23 21 21 17 21 25 29 31 24 19 18 18
27 26 27 24 23 25 27 26 29 25 24 22 21 18 15 14 13 13 13 14 14 15 16 18 20 21 23 25 26 25 25 24 24 22 27 24 26 29 28 22 20 17 19
26 27 27 28 21 20 20 22 22 23 25 24 23 22 20 17 15 14 14 14 14 15 16 18 20 22 24 26 27 27 27 27 25 23 27 26 25 28 30 27 22 19 20
29 29 30 32 29 25 24 22 21 22 23 23 26 25 24 21 18 16 14 14 15 15 15 18 19 20 23 25 26 28 28 27 27 24 22 27 27 28 27 20 22 20 21
34 35 35 36 34 32 30 28 28 28 26 25 23 25 27 24 21 19 16 15 15 14 14 16 18 20 22 24 25 27 26 28 29 24 22 24 24 29 28 23 23 21 23
38 43 45 44 42 41 38 35 32 32 31 28 25 24 26 26 24 22 19 16 15 15 14 15 18 20 22 23 25 29 29 31 30 28 26 24 28 33 30 25 24 23 25
39 44 45 46 38 45 48 43 40 34 33 33 31 28 26 24 25 24 24 19 17 16 16 16 17 18 20 22 26 28 31 33 31 28 26 26 25 30 30 27 25 25 26
45 46 45 38 34 35 36 38 38 38 35 39 39 33 29 25 26 27 28 23 20 18 18 18 18 18 20 21 24 28 33 35 30 28 26 22 26 30 33 28 25 25 27
50 47 42 41 36 37 37 38 36 34 37 38 34 30 29 26 24 26 30 30 25 22 20 20 20 19 20 21 23 26 31 33 35 31 33 32 30 35 36 29 25 25 26
43 41 41 42 39 36 37 40 36 35 34 36 34 29 29 29 28 27 28 34 32 29 24 23 22 21 22 23 24 26 28 32 34 33 36 37 38 35 37 31 26 26 26
40 41 40 40 38 37 38 38 39 40 38 36 37 39 33 31 29 30 32 35 37 34 29 25 25 24 23 24 25 27 28 28 28 30 34 33 36 37 42 36 33 26 26

GFSSE_700_spd_120.txt.gz
Wind_Speed
14 11 6 3 5 9 13 10 9 9 8 8 9 11 12 10 7 6 5 5 4 3 3 4 6 6 7 8 8 8 7 7 6 6 5 4 6 4 3 5 6 6 7
13 12 8 5 3 9 13 11 10 8 9 9 10 10 10 9 8 7 7 6 5 5 4 3 4 6 7 8 7 7 6 6 6 6 5 3 3 3 5 6 7 7 6
17 12 9 4 2 7 11 11 10 9 9 11 11 10 10 10 9 8 8 7 7 6 7 7 5 6 6 6 7 7 7 7 6 7 6 5 5 6 6 7 8 7 8
15 13 8 3 3 7 10 10 9 9 9 11 11 11 11 11 10 9 9 9 8 8 9 9 9 8 6 7 8 9 9 9 9 9 9 8 8 8 8 8 8 8 8
13 12 6 3 5 6 8 7 8 8 9 10 11 12 11 11 10 10 10 11 11 11 9 8 8 6 6 7 8 7 7 8 9 9 8 9 9 10 9 9 9 8 8
11 8 5 3 2 3 4 5 5 6 7 9 10 11 11 11 10 10 10 11 11 10 10 10 9 7 7 8 8 7 7 7 8 8 10 10 10 11 12 11 11 9 8
6 6 5 3 3 2 3 3 3 5 7 8 8 10 10 11 10 10 11 11 11 11 11 11 9 8 7 6 5 5 5 6 8 9 11 10 9 14 15 14 12 10 8
7 5 5 7 8 4 3 3 3 4 6 6 7 9 9 10 10 10 11 11 11 12 12 12 10 8 8 7 7 7 7 8 9 8 9 10 12 14 23 19 15 10 8
9 7 5 5 6 5 4 3 3 4 5 5 5 7 8 9 9 10 11 12 12 12 13 13 12 10 8 9 9 8 8 9 10 7 8 10 14 15 21 24 15 9 9
11 9 7 6 8 7 5 5 5 5 5 5 5 6 7 8 9 10 11 12 13 14 15 16 14 13 13 11 10 8 8 8 13 11 11 10 15 20 23 16 17 9 8
17 16 13 12 9 9 7 7 7 5 5 6 6 6 6 7 8 10 10 13 14 15 16 17 16 15 12 11 9 8 8 7 6 9 11 12 15 16 14 10 13 10 12
22 22 17 13 13 12 8 7 9 7 6 6 6 6 5 6 8 10 12 13 13 15 17 19 19 16 13 13 11 11 10 13 11 10 13 20 18 19 17 12 11 9 12
23 20 17 17 15 15 11 9 10 10 8 7 7 6 6 6 7 9 11 12 12 14 17 20 20 18 16 15 15 13 13 14 12 14 13 12 20 23 20 14 11 15 13
25 22 21 20 18 17 16 13 12 12 13 9 8 8 7 6 7 9 11 12 12 13 16 19 20 19 19 18 17 16 16 17 17 14 13 13 14 17 20 18 16 18 14
30 25 22 22 20 20 21 20 17 16 15 13 12 10 8 8 7 8 10 11 12 13 14 17 19 20 20 21 21 20 19 19 20 18 16 16 15 18 22 26 22 23 17
33 28 27 24 23 24 26 26 24 21 20 17 15 13 12 11 9 8 9 10 12 12 13 14 18 21 22 22 23 22 22 22 21 20 21 20 15 17 21 23 26 26 19
37 33 28 26 25 22 27 28 29 24 23 22 18 18 15 15 14 11 10 9 10 12 14 16 18 21 22 23 23 24 24 25 21 22 23 23 23 23 24 23 23 25 19
42 38 32 28 25 23 24 29 28 24 27 26 23 22 19 17 17 16 13 10 11 12 13 15 18 20 21 23 24 25 25 26 25 23 24 24 24 24 25 21 25 26 20
39 37 35 31 27 24 23 24 24 23 23 21 20 23 22 20 19 20 17 14 13 12 12 14 16 18 21 22 23 25 27 27 26 26 24 26 27 26 24 25 28 29 21
35 41 42 37 33 31 30 28 27 26 23 22 20 20 20 22 22 22 21 18 15 12 12 12 15 17 19 21 24 26 25 26 27 26 27 25 28 25 25 29 32 31 25
33 36 37 40 35 33 33 32 31 29 29 28 24 23 23 23 23 24 23 22 19 15 13 14 15 17 18 20 23 25 28 29 29 28 27 26 28 26 29 28 29 25 26
39 38 37 39 38 38 37 36 37 35 34 31 29 28 28 29 25 23 24 25 23 19 17 16 16 16 18 20 21 26 27 30 32 29 27 26 26 26 23 26 28 27 27
38 38 41 42 40 42 43 43 45 43 41 38 34 31 32 34 30 23 24 27 28 24 21 19 18 18 18 19 21 22 25 29 26 28 24 27 26 22 21 24 33 29 28
39 42 39 39 38 37 37 43 45 40 39 38 39 35 35 35 33 27 22 25 29 29 26 25 22 22 21 20 22 24 25 28 28 32 25 24 28 29 27 25 31 35 30
36 51 39 37 42 41 36 41 38 37 34 34 34 37 38 36 31 32 29 27 29 30 30 30 29 26 24 24 24 23 25 26 28 28 30 21 28 27 27 30 29 36 29
42 52 51 48 48 41 38 40 36 36 34 34 36 38 38 37 35 35 35 31 28 29 33 34 33 31 27 27 26 26 26 25 27 30 29 25 24 29 24 34 30 37 32